[[{"header":{"parameterUnit":"m.s-1","parameterCategory":1,"la1":31.0,"la2":29.5877,"lo1":-88.7671,"lo2":-86.6584,"dy":0.0162,"dx":0.0185,"nx":115,"ny":88,"refTime":"2024-04-09T06:00:00:Z","depth":0,"parameterNumber":2,"parameterNumberName":"U-component_of_WINDS"},"data":[0.0,0.0,0.0,0.0,0.0,0.0,0.0,0.0,0.0,0.0,0.0,0.0,0.0,0.0,0.0,0.0,0.0,0.0,0.0,0.0,0.0,0.0,0.0,0.0,0.0,0.0,0.0,0.0,0.0,0.0,0.0,0.0,0.0,0.0,0.0,0.0,0.0,0.0,0.0,0.0,0.0,0.0,0.0,0.0,0.0,0.0,0.0,0.0,0.0,0.0,0.0,0.0,0.0,0.0,0.0,0.0,0.0,0.0,0.0,0.0,0.0,0.0,0.0,0.0,0.0,0.0,0.0,0.0,0.0,0.0,0.0,0.0,0.0,0.0,0.0,0.0,0.0,0.0,0.0,0.0,0.0,0.0,0.0,0.0,0.0,0.0,0.0,0.0,0.0,0.0,0.0,0.0,0.0,0.0,0.0,0.0,0.0,0.0,0.0,0.0,0.0,0.0,0.0,0.0,0.0,0.0,0.0,0.0,0.0,0.0,0.0,0.0,0.0,0.0,0.0,0.0,0.0,0.0,0.0,0.0,0.0,0.0,0.0,0.0,0.0,0.0,0.0,0.0,0.0,0.0,0.0,0.0,0.0,0.0,0.0,0.0,0.0,0.0,0.0,0.0,0.0,0.0,0.0,0.0,0.0,0.0,0.0,0.0,0.0,0.0,0.0,0.0,0.0,0.0,0.0,0.0,0.0,0.0,0.0,0.0,0.0,0.0,0.0,0.0,0.0,0.0,0.0,0.0,0.0,0.0,0.0,0.0,0.0,0.0,0.0,0.0,0.0,0.0,0.0,0.0,0.0,0.0,0.0,0.0,0.0,0.0,0.0,0.0,0.0,0.0,0.0,0.0,0.0,0.0,0.0,0.0,0.0,0.0,0.0,0.0,0.0,0.0,0.0,0.0,0.0,0.0,0.0,0.0,0.0,0.0,0.0,0.0,0.0,0.0,0.0,0.0,0.0,0.0,0.0,0.0,0.0,0.0,0.0,0.0,0.0,0.0,0.0,0.0,0.0,0.0,0.0,0.0,0.0,0.0,0.0,0.0,0.0,0.0,0.0,0.0,0.0,0.0,0.0,0.0,0.0,0.0,0.0,0.0,0.0,0.0,0.0,0.0,0.0,0.0,0.0,0.0,0.0,0.0,0.0,0.0,0.0,0.0,0.0,0.0,0.0,0.0,0.0,0.0,0.0,0.0,0.0,0.0,0.0,0.0,0.0,0.0,0.0,0.0,0.0,0.0,0.0,0.0,0.0,0.0,0.0,0.0,0.0,0.0,0.0,0.0,0.0,0.0,0.0,0.0,0.0,0.0,0.0,0.0,0.0,0.0,0.0,0.0,0.0,0.0,0.0,0.0,0.0,0.0,0.0,0.0,0.0,0.0,0.0,0.0,0.0,0.0,0.0,0.0,0.0,0.0,0.0,0.0,0.0,0.0,0.0,0.0,0.0,0.0,0.0,0.0,0.0,0.0,0.0,0.0,0.0,0.0,0.0,0.0,0.0,0.0,0.0,0.0,0.0,0.0,0.0,0.0,0.0,0.0,0.0,0.0,0.0,0.0,0.0,0.0,0.0,0.0,0.0,0.0,0.0,0.0,0.0,0.0,0.0,0.0,0.0,0.0,0.0,0.0,0.0,0.0,0.0,0.0,0.0,0.0,0.0,0.0,0.0,0.0,0.0,0.0,0.0,0.0,0.0,0.0,0.0,0.0,0.0,0.0,0.0,0.0,0.0,0.0,0.0,0.0,0.0,0.0,0.0,0.0,0.0,0.0,0.0,0.0,0.0,0.0,0.0,0.0,0.0,0.0,0.0,0.0,0.0,0.0,0.0,0.0,0.0,0.0,0.0,0.0,0.0,0.0,0.0,0.0,0.0,0.0,0.0,0.0,0.0,0.0,0.0,0.0,0.0,0.0,0.0,0.0,0.0,0.0,0.0,0.0,0.0,0.0,0.0,0.0,0.0,0.0,0.0,0.0,0.0,0.0,0.0,0.0,0.0,0.0,0.0,0.0,0.0,0.0,0.0,0.0,0.0,0.0,0.0,0.0,0.0,0.0,0.0,0.0,0.0,0.0,0.0,0.0,0.0,0.0,0.0,0.0,0.0,0.0,0.0,0.0,0.0,0.0,0.0,0.0,0.0,0.0,0.0,0.0,0.0,0.0,0.0,0.0,0.0,0.0,0.0,0.0,0.0,0.0,0.0,0.0,0.0,0.0,0.0,0.0,0.0,0.0,0.0,0.0,0.0,0.0,0.0,0.0,0.0,0.0,0.0,0.0,0.0,0.0,0.0,0.0,0.0,0.0,0.0,0.0,0.0,0.0,0.0,0.0,0.0,0.0,0.0,0.0,0.0,0.0,0.0,0.0,0.0,0.0,0.0,0.0,0.0,0.0,0.0,0.0,0.0,0.0,0.0,0.0,0.0,0.0,0.0,0.0,0.0,0.0,0.0,0.0,0.0,0.0,0.0,0.0,0.0,0.0,0.0,0.0,0.0,0.0,0.0,0.0,0.0,0.0,0.0,0.0,0.0,0.0,0.0,0.0,0.0,0.0,0.0,0.0,0.0,0.0,0.0,0.0,0.0,0.0,0.0,0.0,0.0,0.0,0.0,0.0,0.0,0.0,0.0,0.0,0.0,0.0,0.0,0.0,0.0,0.0,0.0,0.0,0.0,0.0,0.0,0.0,0.0,0.0,0.0,0.0,0.0,0.0,0.0,0.0,0.0,0.0,0.0,0.0,0.0,0.0,0.0,0.0,0.0,0.0,0.0,0.0,0.0,0.0,0.0,0.0,0.0,0.0,0.0,0.0,0.0,0.0,0.0,0.0,0.0,0.0,0.0,0.0,0.0,0.0,0.0,0.0,0.0,0.0,0.0,0.0,0.0,0.0,0.0,0.0,0.0,0.0,0.0,0.0,0.0,0.0,0.0,0.0,0.0,0.0,0.0,0.0,0.0,0.0,0.0,0.0,0.0,0.0,0.0,0.0,0.0,0.0,0.0,0.0,0.0,0.0,0.0,0.0,0.0,0.0,0.0,0.0,0.0,0.0,0.0,0.0,0.0,0.0,0.0,0.0,0.0,0.0,0.0,0.0,0.0,0.0,0.0,0.0,0.0,0.0,0.0,0.0,0.0,0.0,0.0,0.0,0.0,0.0,0.0,0.0,0.0,0.0,0.0,0.0,0.0,0.0,0.0,0.0,0.0,0.0,0.0,0.0,0.0,0.0,0.0,0.0,0.0,0.0,0.0,0.0,0.0,0.0,0.0,0.0,0.0,0.0,0.0,0.0,0.0,0.0,0.0,0.0,0.0,0.0,0.0,0.0,0.0,0.0,0.0,0.0,0.0,0.0,0.0,0.0,0.0,0.0,0.0,0.0,0.0,0.0,0.0,0.0,0.0,0.0,0.0,0.0,0.0,0.0,0.0,0.0,0.0,0.0,0.0,0.0,0.0,0.0,0.0,0.0,0.0,0.0,0.0,0.0,0.0,0.0,0.0,0.0,0.0,0.0,0.0,0.0,0.0,0.0,0.0,0.0,0.0,0.0,0.0,0.0,0.0,0.0,0.0,0.0,0.0,0.0,0.0,0.0,0.0,0.0,0.0,0.0,0.0,0.0,0.0,0.0,0.0,0.0,0.0,0.0,0.0,0.0,0.0,0.0,0.0,0.0,0.0,0.0,0.0,0.0,0.0,0.0,0.0,0.0,0.0,0.0,0.0,0.0,0.0,0.0,0.0,0.0,0.0,0.0,0.0,0.0,0.0,0.0,0.0,0.0,0.0,0.0,0.0,0.0,0.0,0.0,0.0,0.0,0.0,0.0,0.0,0.0,0.0,0.0,0.0,0.0,0.0,0.0,0.0,0.0,0.0,0.0,0.0,0.0,0.0,0.0,0.0,0.0,0.0,0.0,0.0,0.0,0.0,0.0,0.0,0.0,0.0,0.0,0.0,0.0,0.0,0.0,0.0,0.0,0.0,0.0,0.0,0.0,0.0,0.0,0.0,0.0,0.0,0.0,0.0,0.0,0.0,0.0,0.0,0.0,0.0,0.0,0.0,0.0,0.0,0.0,0.0,0.0,0.0,0.0,0.0,0.0,0.0,0.0,0.0,0.0,0.0,0.0,0.0,0.0,0.0,0.0,0.0,0.0,0.0,0.0,0.0,0.0,0.0,0.0,0.0,0.0,0.0,0.0,0.0,0.0,0.0,0.0,0.0,0.0,0.0,0.0,0.0,0.0,0.0,0.0,0.0,0.0,0.0,0.0,0.0,0.0,0.0,0.0,-3.3807,0.0,0.0,0.0,0.0,0.0,0.0,0.0,0.0,0.0,0.0,0.0,0.0,0.0,0.0,0.0,0.0,0.0,0.0,0.0,0.0,0.0,0.0,0.0,0.0,0.0,0.0,0.0,0.0,0.0,0.0,0.0,0.0,0.0,0.0,0.0,0.0,0.0,0.0,0.0,0.0,0.0,0.0,0.0,0.0,0.0,0.0,0.0,0.0,0.0,0.0,0.0,0.0,0.0,0.0,0.0,0.0,0.0,0.0,0.0,0.0,0.0,0.0,0.0,0.0,0.0,0.0,0.0,0.0,0.0,0.0,0.0,0.0,0.0,0.0,0.0,0.0,0.0,0.0,0.0,0.0,0.0,0.0,0.0,0.0,0.0,0.0,0.0,0.0,0.0,0.0,0.0,0.0,0.0,0.0,0.0,0.0,0.0,0.0,0.0,0.0,0.0,0.0,0.0,0.0,0.0,0.0,0.0,0.0,0.0,0.0,-3.3807,-3.3807,-3.3807,-3.3807,-3.3807,0.0,0.0,0.0,0.0,0.0,0.0,0.0,0.0,0.0,0.0,0.0,0.0,0.0,0.0,0.0,0.0,0.0,0.0,0.0,0.0,0.0,0.0,0.0,0.0,0.0,0.0,0.0,0.0,0.0,0.0,0.0,0.0,0.0,0.0,0.0,0.0,0.0,0.0,0.0,0.0,0.0,0.0,0.0,0.0,0.0,0.0,0.0,0.0,0.0,0.0,0.0,0.0,0.0,0.0,0.0,0.0,0.0,0.0,0.0,0.0,0.0,0.0,0.0,0.0,0.0,0.0,0.0,0.0,0.0,0.0,0.0,0.0,0.0,0.0,0.0,0.0,0.0,0.0,0.0,0.0,0.0,0.0,0.0,0.0,0.0,0.0,0.0,0.0,0.0,0.0,0.0,0.0,0.0,0.0,0.0,0.0,0.0,0.0,0.0,0.0,0.0,0.0,0.0,0.0,0.0,0.0,0.0,0.0,0.0,0.0,0.0,0.0,-3.3807,-3.3807,-3.3807,0.0,0.0,0.0,0.0,0.0,0.0,0.0,0.0,0.0,0.0,0.0,0.0,0.0,0.0,0.0,0.0,0.0,0.0,0.0,0.0,0.0,0.0,0.0,0.0,0.0,0.0,0.0,0.0,0.0,0.0,0.0,0.0,0.0,0.0,0.0,0.0,0.0,0.0,0.0,0.0,0.0,0.0,0.0,0.0,0.0,0.0,0.0,0.0,0.0,0.0,0.0,0.0,0.0,0.0,0.0,0.0,0.0,0.0,0.0,0.0,0.0,0.0,0.0,0.0,0.0,0.0,0.0,0.0,0.0,0.0,0.0,0.0,0.0,0.0,0.0,0.0,0.0,0.0,0.0,0.0,0.0,0.0,0.0,0.0,0.0,0.0,0.0,0.0,0.0,0.0,0.0,0.0,0.0,0.0,0.0,0.0,0.0,0.0,0.0,0.0,0.0,0.0,0.0,0.0,0.0,0.0,0.0,0.0,0.0,0.0,-3.3807,-3.3807,-3.3807,0.0,-3.3807,0.0,0.0,0.0,0.0,0.0,0.0,0.0,0.0,0.0,0.0,0.0,0.0,0.0,0.0,0.0,0.0,0.0,0.0,0.0,0.0,0.0,0.0,0.0,0.0,0.0,0.0,0.0,0.0,0.0,0.0,0.0,0.0,0.0,0.0,0.0,0.0,0.0,0.0,0.0,0.0,0.0,0.0,0.0,0.0,0.0,0.0,0.0,0.0,0.0,0.0,0.0,0.0,0.0,0.0,0.0,0.0,0.0,0.0,0.0,0.0,0.0,0.0,0.0,0.0,0.0,0.0,0.0,0.0,0.0,0.0,0.0,0.0,0.0,0.0,0.0,0.0,0.0,0.0,0.0,0.0,0.0,0.0,0.0,0.0,0.0,0.0,0.0,0.0,0.0,0.0,0.0,0.0,0.0,0.0,0.0,0.0,0.0,0.0,0.0,0.0,0.0,0.0,0.0,0.0,0.0,0.0,0.0,0.0,0.0,0.0,-3.3807,-3.3807,-3.3807,-3.3807,0.0,0.0,0.0,0.0,0.0,0.0,0.0,0.0,0.0,0.0,0.0,0.0,0.0,0.0,0.0,0.0,0.0,0.0,0.0,0.0,0.0,0.0,0.0,0.0,0.0,0.0,0.0,0.0,0.0,0.0,0.0,0.0,0.0,0.0,0.0,0.0,0.0,0.0,0.0,0.0,0.0,0.0,0.0,0.0,0.0,0.0,0.0,0.0,0.0,0.0,0.0,0.0,0.0,0.0,0.0,0.0,0.0,0.0,0.0,0.0,0.0,0.0,0.0,0.0,0.0,0.0,0.0,0.0,0.0,0.0,0.0,0.0,0.0,0.0,0.0,0.0,0.0,0.0,0.0,0.0,0.0,0.0,0.0,0.0,0.0,0.0,0.0,0.0,0.0,0.0,0.0,0.0,0.0,0.0,0.0,0.0,0.0,0.0,0.0,0.0,0.0,0.0,0.0,0.0,0.0,0.0,0.0,0.0,0.0,0.0,-3.3807,-3.3807,-3.3807,-3.3807,-3.3807,-3.3807,0.0,0.0,0.0,0.0,0.0,0.0,0.0,0.0,0.0,0.0,0.0,0.0,0.0,0.0,0.0,0.0,0.0,0.0,0.0,0.0,0.0,0.0,0.0,0.0,0.0,0.0,0.0,0.0,0.0,0.0,0.0,0.0,0.0,0.0,0.0,0.0,0.0,0.0,0.0,0.0,0.0,0.0,0.0,0.0,0.0,0.0,0.0,0.0,0.0,0.0,0.0,0.0,0.0,0.0,0.0,0.0,0.0,0.0,0.0,0.0,0.0,0.0,0.0,0.0,0.0,0.0,0.0,0.0,0.0,0.0,0.0,0.0,0.0,0.0,0.0,0.0,0.0,0.0,0.0,0.0,0.0,0.0,0.0,0.0,0.0,0.0,0.0,0.0,0.0,0.0,0.0,0.0,0.0,0.0,0.0,0.0,0.0,0.0,0.0,0.0,0.0,0.0,0.0,0.0,0.0,0.0,0.0,0.0,-3.3807,-3.3807,-3.3807,-3.3807,-3.3807,-3.3807,0.0,0.0,0.0,0.0,0.0,0.0,0.0,0.0,0.0,0.0,0.0,0.0,0.0,0.0,0.0,0.0,0.0,0.0,0.0,0.0,0.0,0.0,0.0,0.0,0.0,0.0,0.0,0.0,0.0,0.0,0.0,0.0,0.0,0.0,0.0,0.0,0.0,0.0,0.0,0.0,0.0,0.0,0.0,0.0,0.0,0.0,0.0,0.0,0.0,0.0,0.0,0.0,0.0,0.0,0.0,0.0,0.0,0.0,0.0,0.0,0.0,0.0,0.0,0.0,0.0,0.0,0.0,0.0,0.0,0.0,0.0,0.0,0.0,0.0,0.0,0.0,0.0,0.0,0.0,0.0,0.0,0.0,0.0,0.0,0.0,0.0,0.0,0.0,0.0,0.0,0.0,0.0,0.0,0.0,0.0,0.0,0.0,0.0,0.0,0.0,0.0,0.0,0.0,0.0,0.0,0.0,0.0,0.0,0.0,-3.3807,-3.3807,-3.3807,-3.3807,-3.3807,-3.3807,0.0,0.0,0.0,0.0,0.0,0.0,0.0,0.0,0.0,0.0,0.0,0.0,0.0,0.0,0.0,0.0,0.0,0.0,0.0,0.0,0.0,0.0,0.0,0.0,0.0,0.0,0.0,0.0,0.0,0.0,0.0,0.0,0.0,0.0,0.0,0.0,0.0,0.0,0.0,0.0,0.0,0.0,0.0,0.0,0.0,0.0,0.0,0.0,0.0,0.0,0.0,0.0,0.0,0.0,0.0,0.0,0.0,0.0,0.0,0.0,0.0,0.0,0.0,0.0,0.0,0.0,0.0,0.0,0.0,0.0,0.0,0.0,0.0,0.0,0.0,0.0,0.0,0.0,0.0,0.0,0.0,0.0,0.0,0.0,0.0,0.0,0.0,0.0,0.0,0.0,0.0,0.0,0.0,0.0,0.0,0.0,0.0,0.0,0.0,0.0,0.0,0.0,0.0,0.0,0.0,0.0,0.0,0.0,0.0,-3.3807,0.0,-3.3807,-3.3807,-3.3807,-3.3807,0.0,0.0,0.0,0.0,0.0,0.0,0.0,0.0,0.0,0.0,0.0,0.0,0.0,0.0,0.0,0.0,0.0,0.0,0.0,0.0,0.0,0.0,0.0,0.0,0.0,0.0,0.0,0.0,0.0,0.0,0.0,0.0,0.0,0.0,0.0,0.0,0.0,0.0,0.0,0.0,0.0,0.0,0.0,0.0,0.0,0.0,0.0,0.0,0.0,0.0,0.0,0.0,0.0,0.0,0.0,0.0,0.0,0.0,0.0,0.0,0.0,0.0,0.0,0.0,0.0,0.0,0.0,0.0,0.0,0.0,0.0,0.0,0.0,0.0,0.0,0.0,0.0,0.0,0.0,0.0,0.0,0.0,0.0,0.0,0.0,0.0,0.0,0.0,0.0,0.0,0.0,0.0,0.0,0.0,0.0,0.0,0.0,0.0,0.0,0.0,0.0,0.0,0.0,0.0,0.0,0.0,0.0,0.0,-3.3844,-3.3825,-3.3862,-3.3935,-3.3844,-3.3862,-3.3844,0.0,0.0,0.0,0.0,0.0,0.0,0.0,0.0,0.0,0.0,0.0,0.0,0.0,0.0,0.0,0.0,0.0,0.0,0.0,0.0,0.0,0.0,0.0,0.0,0.0,0.0,0.0,0.0,0.0,0.0,0.0,0.0,0.0,0.0,0.0,0.0,0.0,0.0,0.0,0.0,0.0,0.0,0.0,0.0,0.0,0.0,0.0,0.0,0.0,0.0,0.0,0.0,0.0,0.0,0.0,0.0,0.0,0.0,0.0,0.0,0.0,0.0,0.0,0.0,0.0,0.0,0.0,0.0,0.0,0.0,0.0,0.0,0.0,0.0,0.0,0.0,0.0,0.0,0.0,0.0,0.0,0.0,0.0,0.0,0.0,0.0,0.0,0.0,0.0,0.0,0.0,0.0,0.0,0.0,0.0,0.0,0.0,0.0,0.0,0.0,0.0,0.0,0.0,0.0,0.0,0.0,0.0,0.0,0.0,-3.4582,-3.5113,-3.542,-3.5495,-3.4963,-3.4637,0.0,0.0,0.0,0.0,0.0,0.0,0.0,0.0,0.0,0.0,0.0,0.0,0.0,0.0,0.0,0.0,0.0,0.0,0.0,0.0,0.0,0.0,0.0,0.0,0.0,0.0,0.0,0.0,0.0,0.0,0.0,0.0,0.0,0.0,0.0,0.0,0.0,0.0,0.0,0.0,0.0,0.0,0.0,0.0,0.0,0.0,0.0,0.0,0.0,0.0,0.0,0.0,0.0,0.0,0.0,0.0,0.0,0.0,0.0,0.0,0.0,0.0,0.0,0.0,0.0,0.0,0.0,0.0,0.0,0.0,0.0,0.0,0.0,0.0,0.0,0.0,0.0,0.0,0.0,0.0,0.0,0.0,0.0,0.0,0.0,0.0,0.0,0.0,0.0,0.0,0.0,0.0,0.0,0.0,0.0,0.0,0.0,0.0,0.0,0.0,0.0,0.0,0.0,0.0,0.0,0.0,0.0,0.0,0.0,-3.6125,-3.6398,-3.66,-3.674,-3.6211,-3.5628,-3.4995,0.0,0.0,0.0,0.0,0.0,0.0,0.0,0.0,0.0,0.0,0.0,0.0,0.0,0.0,0.0,0.0,0.0,0.0,0.0,0.0,0.0,0.0,0.0,0.0,0.0,0.0,0.0,0.0,0.0,0.0,0.0,0.0,0.0,0.0,0.0,0.0,0.0,0.0,0.0,0.0,0.0,0.0,0.0,0.0,0.0,0.0,0.0,0.0,0.0,0.0,0.0,0.0,0.0,0.0,0.0,0.0,0.0,0.0,0.0,0.0,0.0,0.0,0.0,0.0,0.0,0.0,0.0,0.0,0.0,0.0,0.0,0.0,0.0,0.0,0.0,0.0,0.0,0.0,0.0,0.0,0.0,0.0,0.0,0.0,0.0,0.0,0.0,0.0,0.0,0.0,0.0,0.0,0.0,0.0,0.0,0.0,0.0,0.0,0.0,0.0,0.0,0.0,0.0,0.0,0.0,0.0,0.0,0.0,-3.8142,-3.7703,-3.7564,-3.7713,-3.7606,-3.6751,0.0,0.0,0.0,0.0,0.0,0.0,0.0,0.0,0.0,0.0,0.0,0.0,0.0,0.0,0.0,0.0,0.0,0.0,0.0,0.0,0.0,0.0,0.0,0.0,0.0,0.0,0.0,0.0,0.0,0.0,0.0,0.0,0.0,0.0,0.0,0.0,0.0,0.0,0.0,0.0,0.0,0.0,0.0,0.0,0.0,0.0,0.0,0.0,0.0,0.0,0.0,0.0,0.0,0.0,0.0,0.0,0.0,0.0,0.0,0.0,0.0,0.0,0.0,0.0,0.0,0.0,0.0,0.0,0.0,0.0,0.0,0.0,0.0,0.0,0.0,0.0,0.0,0.0,0.0,0.0,0.0,0.0,0.0,0.0,0.0,0.0,0.0,0.0,0.0,0.0,0.0,0.0,0.0,0.0,0.0,0.0,0.0,0.0,0.0,0.0,0.0,0.0,0.0,0.0,0.0,0.0,0.0,0.0,0.0,-3.9043,-3.9437,-3.9841,-4.0109,-3.8902,-3.7772,0.0,0.0,0.0,0.0,0.0,0.0,0.0,0.0,0.0,0.0,0.0,0.0,0.0,0.0,0.0,0.0,0.0,0.0,0.0,0.0,0.0,0.0,0.0,0.0,0.0,0.0,0.0,0.0,0.0,0.0,0.0,0.0,0.0,0.0,0.0,0.0,0.0,0.0,0.0,0.0,0.0,0.0,0.0,0.0,0.0,0.0,0.0,0.0,0.0,0.0,0.0,0.0,0.0,0.0,0.0,0.0,0.0,0.0,0.0,0.0,0.0,0.0,0.0,0.0,0.0,0.0,0.0,0.0,0.0,0.0,0.0,0.0,0.0,0.0,0.0,0.0,0.0,0.0,0.0,0.0,0.0,0.0,0.0,0.0,0.0,0.0,0.0,0.0,0.0,0.0,0.0,0.0,0.0,0.0,0.0,0.0,0.0,0.0,0.0,0.0,0.0,0.0,0.0,0.0,0.0,0.0,0.0,0.0,-3.8874,-3.9792,-4.0381,-4.0922,-4.1378,-3.9877,-3.8519,0.0,0.0,0.0,0.0,0.0,0.0,0.0,0.0,0.0,0.0,0.0,0.0,0.0,0.0,0.0,0.0,0.0,0.0,0.0,0.0,0.0,0.0,0.0,0.0,0.0,0.0,0.0,0.0,0.0,0.0,0.0,0.0,0.0,0.0,0.0,0.0,0.0,0.0,0.0,0.0,0.0,0.0,0.0,0.0,0.0,0.0,0.0,0.0,0.0,0.0,0.0,0.0,0.0,0.0,0.0,0.0,0.0,0.0,0.0,0.0,0.0,0.0,0.0,0.0,0.0,0.0,0.0,0.0,0.0,0.0,0.0,0.0,0.0,0.0,0.0,0.0,0.0,0.0,0.0,0.0,0.0,0.0,0.0,0.0,0.0,0.0,0.0,0.0,0.0,0.0,0.0,0.0,0.0,0.0,0.0,0.0,0.0,0.0,0.0,0.0,0.0,0.0,0.0,0.0,0.0,0.0,0.0,0.0,-3.9126,-4.0224,-4.0608,-4.1064,-4.1564,-4.0425,-3.907,0.0,0.0,0.0,0.0,0.0,0.0,0.0,0.0,0.0,0.0,0.0,0.0,0.0,0.0,0.0,0.0,0.0,0.0,0.0,0.0,0.0,0.0,0.0,0.0,0.0,0.0,0.0,0.0,0.0,0.0,0.0,0.0,0.0,0.0,0.0,0.0,0.0,0.0,0.0,0.0,0.0,0.0,0.0,0.0,0.0,0.0,0.0,0.0,0.0,0.0,0.0,0.0,0.0,0.0,0.0,0.0,0.0,0.0,0.0,0.0,0.0,0.0,0.0,0.0,0.0,0.0,0.0,0.0,0.0,0.0,0.0,0.0,0.0,0.0,0.0,0.0,0.0,0.0,0.0,0.0,0.0,0.0,0.0,0.0,0.0,0.0,0.0,0.0,0.0,0.0,0.0,0.0,0.0,0.0,0.0,0.0,0.0,0.0,0.0,0.0,0.0,0.0,0.0,0.0,0.0,0.0,0.0,0.0,-3.9335,-3.947,-4.0002,-4.0336,-4.0466,-3.9865,-3.9148,0.0,0.0,0.0,0.0,0.0,0.0,0.0,0.0,0.0,0.0,0.0,0.0,0.0,0.0,0.0,0.0,0.0,0.0,0.0,0.0,0.0,0.0,0.0,0.0,0.0,0.0,0.0,0.0,0.0,0.0,0.0,0.0,0.0,0.0,0.0,0.0,0.0,0.0,0.0,0.0,0.0,0.0,0.0,0.0,0.0,0.0,0.0,0.0,-3.2031,0.0,0.0,0.0,0.0,0.0,0.0,0.0,0.0,0.0,0.0,0.0,0.0,0.0,0.0,0.0,0.0,0.0,0.0,0.0,0.0,0.0,0.0,0.0,0.0,0.0,0.0,0.0,0.0,0.0,0.0,0.0,0.0,0.0,0.0,0.0,0.0,0.0,0.0,0.0,0.0,0.0,0.0,0.0,0.0,0.0,0.0,0.0,0.0,0.0,0.0,0.0,0.0,0.0,0.0,0.0,0.0,0.0,0.0,0.0,-3.9985,-4.0237,-4.0485,-4.0468,-4.0104,-3.9635,-3.9094,0.0,0.0,0.0,0.0,0.0,0.0,0.0,0.0,0.0,0.0,0.0,0.0,0.0,0.0,0.0,0.0,0.0,0.0,0.0,0.0,0.0,0.0,0.0,0.0,0.0,0.0,0.0,0.0,0.0,0.0,0.0,0.0,0.0,0.0,0.0,0.0,0.0,0.0,0.0,0.0,0.0,0.0,0.0,0.0,0.0,0.0,0.0,0.0,0.0,0.0,0.0,0.0,0.0,0.0,0.0,0.0,0.0,0.0,0.0,0.0,0.0,0.0,0.0,0.0,0.0,0.0,0.0,0.0,0.0,0.0,0.0,0.0,0.0,0.0,0.0,0.0,0.0,0.0,0.0,0.0,0.0,0.0,0.0,0.0,0.0,0.0,0.0,0.0,0.0,0.0,0.0,0.0,0.0,0.0,0.0,0.0,0.0,0.0,0.0,0.0,0.0,0.0,0.0,0.0,0.0,0.0,0.0,-4.018,-4.0815,-4.1486,-4.1306,-4.0899,-4.0299,-3.9544,-3.8928,-3.8425,0.0,0.0,0.0,0.0,0.0,0.0,0.0,0.0,0.0,0.0,0.0,0.0,0.0,0.0,0.0,0.0,0.0,0.0,0.0,0.0,0.0,0.0,0.0,0.0,0.0,0.0,0.0,0.0,0.0,0.0,0.0,0.0,0.0,0.0,0.0,0.0,0.0,0.0,-2.9991,-3.0762,0.0,0.0,0.0,0.0,0.0,0.0,0.0,0.0,-3.1877,0.0,0.0,0.0,0.0,0.0,0.0,0.0,0.0,0.0,0.0,0.0,0.0,0.0,0.0,0.0,0.0,0.0,0.0,0.0,0.0,0.0,0.0,0.0,0.0,0.0,0.0,0.0,0.0,0.0,0.0,0.0,0.0,0.0,0.0,0.0,0.0,0.0,0.0,0.0,0.0,0.0,0.0,0.0,0.0,0.0,0.0,0.0,0.0,0.0,0.0,0.0,0.0,0.0,0.0,0.0,0.0,-3.9289,-4.0551,-4.1528,-4.2136,-4.1508,-4.1136,-4.1001,-3.9723,-3.8737,-3.8052,0.0,0.0,0.0,0.0,0.0,0.0,0.0,0.0,0.0,0.0,0.0,0.0,0.0,0.0,0.0,0.0,0.0,0.0,0.0,0.0,0.0,0.0,0.0,0.0,0.0,0.0,0.0,0.0,0.0,0.0,0.0,0.0,0.0,0.0,0.0,0.0,0.0,0.0,0.0,-3.2101,-3.2415,0.0,0.0,0.0,0.0,0.0,0.0,0.0,0.0,-3.3156,0.0,0.0,0.0,0.0,0.0,0.0,0.0,0.0,0.0,0.0,0.0,0.0,0.0,0.0,0.0,0.0,0.0,0.0,0.0,0.0,0.0,0.0,0.0,0.0,0.0,0.0,0.0,0.0,0.0,0.0,0.0,0.0,0.0,0.0,0.0,0.0,0.0,0.0,0.0,0.0,0.0,0.0,0.0,0.0,0.0,0.0,0.0,0.0,0.0,0.0,0.0,0.0,0.0,0.0,0.0,-4.0314,-4.1333,-4.2197,-4.2844,-4.2523,-4.2168,-4.1762,-4.0713,-3.9664,0.0,0.0,0.0,0.0,0.0,0.0,0.0,0.0,0.0,0.0,0.0,0.0,0.0,0.0,0.0,0.0,0.0,0.0,0.0,0.0,0.0,0.0,0.0,0.0,0.0,0.0,0.0,0.0,0.0,0.0,0.0,0.0,0.0,0.0,0.0,0.0,0.0,0.0,0.0,0.0,-3.2652,-3.3024,-3.3098,0.0,0.0,0.0,0.0,0.0,0.0,-3.34,-3.3286,0.0,0.0,0.0,0.0,0.0,0.0,0.0,0.0,0.0,0.0,0.0,0.0,0.0,0.0,0.0,0.0,0.0,0.0,0.0,0.0,0.0,0.0,0.0,0.0,0.0,0.0,0.0,0.0,0.0,0.0,0.0,0.0,0.0,0.0,0.0,0.0,0.0,0.0,0.0,0.0,0.0,0.0,0.0,0.0,0.0,0.0,0.0,0.0,0.0,0.0,0.0,0.0,0.0,0.0,0.0,-4.1299,-4.2136,-4.2895,-4.3578,-4.3477,-4.3115,-4.2523,-4.1525,-4.0409,0.0,0.0,0.0,0.0,0.0,0.0,0.0,0.0,0.0,0.0,0.0,0.0,0.0,0.0,0.0,0.0,0.0,0.0,0.0,0.0,0.0,0.0,0.0,0.0,0.0,0.0,0.0,0.0,0.0,0.0,0.0,0.0,0.0,0.0,0.0,0.0,0.0,0.0,0.0,0.0,0.0,-3.3521,-3.404,-3.3867,0.0,0.0,0.0,0.0,-3.3348,-3.3349,0.0,0.0,0.0,0.0,0.0,0.0,0.0,0.0,0.0,0.0,0.0,0.0,0.0,0.0,0.0,0.0,0.0,0.0,0.0,0.0,0.0,0.0,0.0,0.0,0.0,0.0,0.0,0.0,0.0,0.0,0.0,0.0,0.0,0.0,0.0,0.0,0.0,0.0,0.0,0.0,0.0,0.0,0.0,0.0,0.0,0.0,0.0,0.0,0.0,0.0,0.0,0.0,0.0,0.0,0.0,0.0,-4.1213,-4.2591,-4.3673,-4.4367,-4.3775,-4.3341,-4.3223,-4.1279,-3.9851,0.0,0.0,0.0,0.0,0.0,0.0,0.0,0.0,0.0,0.0,0.0,0.0,0.0,0.0,0.0,0.0,0.0,0.0,0.0,0.0,0.0,0.0,0.0,0.0,0.0,0.0,0.0,0.0,0.0,0.0,0.0,0.0,0.0,0.0,0.0,0.0,0.0,0.0,0.0,0.0,0.0,-3.3795,-3.3923,-3.3893,-3.3862,0.0,0.0,-3.4558,-3.4512,-3.4481,0.0,0.0,0.0,0.0,0.0,0.0,0.0,0.0,0.0,0.0,0.0,0.0,0.0,0.0,0.0,0.0,0.0,0.0,0.0,0.0,0.0,0.0,0.0,0.0,0.0,0.0,0.0,0.0,0.0,0.0,0.0,0.0,0.0,0.0,0.0,0.0,0.0,0.0,0.0,0.0,0.0,0.0,0.0,0.0,0.0,0.0,0.0,0.0,0.0,0.0,0.0,0.0,0.0,0.0,0.0,-3.9935,-4.1779,-4.2878,-4.3792,-4.4564,-4.4276,-4.4079,-4.4062,-4.2303,-4.0798,0.0,0.0,0.0,0.0,0.0,0.0,0.0,0.0,0.0,0.0,0.0,0.0,0.0,0.0,0.0,0.0,0.0,0.0,0.0,0.0,0.0,0.0,0.0,0.0,0.0,0.0,0.0,0.0,0.0,0.0,0.0,0.0,0.0,0.0,0.0,0.0,0.0,0.0,0.0,0.0,0.0,0.0,-3.3938,-3.4152,0.0,0.0,0.0,-3.4555,-3.4071,0.0,0.0,0.0,0.0,0.0,0.0,0.0,0.0,0.0,0.0,0.0,0.0,0.0,0.0,0.0,0.0,0.0,0.0,0.0,0.0,0.0,0.0,0.0,0.0,0.0,0.0,0.0,0.0,0.0,0.0,0.0,0.0,0.0,0.0,0.0,0.0,0.0,0.0,0.0,0.0,0.0,0.0,0.0,0.0,0.0,0.0,0.0,0.0,0.0,0.0,0.0,0.0,0.0,0.0,0.0,0.0,0.0,-4.2252,-4.3234,-4.3995,-4.4581,-4.4598,-4.4598,-4.4581,-4.3284,0.0,0.0,0.0,0.0,0.0,0.0,0.0,0.0,0.0,0.0,0.0,0.0,0.0,0.0,0.0,0.0,0.0,0.0,0.0,0.0,0.0,0.0,0.0,0.0,0.0,0.0,0.0,0.0,0.0,0.0,0.0,0.0,0.0,0.0,0.0,0.0,0.0,0.0,0.0,0.0,0.0,0.0,-3.4341,-3.3909,-3.4483,-3.4883,0.0,0.0,-3.4703,-3.4099,-3.4412,-3.4309,0.0,0.0,0.0,0.0,0.0,0.0,0.0,0.0,0.0,0.0,0.0,0.0,0.0,0.0,0.0,0.0,0.0,0.0,0.0,0.0,0.0,0.0,0.0,0.0,0.0,0.0,0.0,0.0,0.0,0.0,0.0,0.0,0.0,0.0,0.0,0.0,0.0,0.0,0.0,0.0,0.0,0.0,0.0,0.0,0.0,0.0,0.0,0.0,0.0,0.0,0.0,0.0,0.0,0.0,0.0,-4.2286,-4.3741,-4.453,-4.4598,-4.4598,-4.4598,-4.4598,-4.3792,-4.2615,0.0,0.0,0.0,0.0,0.0,0.0,0.0,0.0,0.0,0.0,0.0,0.0,0.0,0.0,0.0,0.0,0.0,0.0,0.0,0.0,0.0,0.0,0.0,0.0,0.0,0.0,0.0,0.0,0.0,0.0,0.0,0.0,0.0,0.0,0.0,0.0,0.0,0.0,0.0,0.0,0.0,-3.412,-3.3774,-3.4718,-3.5429,0.0,0.0,-3.5429,-3.537,-3.54,-3.4931,-3.3493,0.0,0.0,0.0,0.0,0.0,0.0,0.0,0.0,0.0,0.0,0.0,0.0,0.0,0.0,0.0,0.0,0.0,0.0,0.0,0.0,0.0,0.0,0.0,0.0,0.0,0.0,0.0,0.0,0.0,0.0,0.0,0.0,0.0,0.0,0.0,0.0,0.0,0.0,0.0,0.0,0.0,0.0,0.0,0.0,0.0,0.0,0.0,0.0,0.0,0.0,0.0,0.0,0.0,-4.1271,-4.2286,-4.3792,-4.4598,-4.4598,-4.4598,-4.4598,-4.4598,-4.3826,-4.2699,0.0,0.0,0.0,0.0,0.0,0.0,0.0,0.0,0.0,0.0,0.0,0.0,0.0,0.0,0.0,0.0,0.0,0.0,0.0,0.0,0.0,0.0,0.0,0.0,0.0,0.0,0.0,0.0,-2.9837,-2.9608,-2.9057,0.0,0.0,0.0,0.0,0.0,0.0,0.0,0.0,0.0,0.0,-3.4076,-3.4286,-3.5001,0.0,0.0,-3.5489,-3.5439,-3.5326,-3.5228,-3.4738,-3.3533,-3.2794,0.0,0.0,0.0,0.0,0.0,0.0,0.0,0.0,0.0,0.0,0.0,0.0,0.0,0.0,0.0,0.0,0.0,0.0,0.0,0.0,0.0,0.0,0.0,0.0,0.0,0.0,0.0,0.0,0.0,0.0,0.0,0.0,0.0,0.0,0.0,0.0,0.0,0.0,0.0,0.0,0.0,0.0,0.0,0.0,0.0,0.0,0.0,0.0,0.0,0.0,0.0,0.0,-4.1559,-4.2313,-4.3792,-4.4598,-4.4598,-4.4598,-4.4598,-4.4581,-4.4045,-4.3064,0.0,0.0,0.0,0.0,0.0,0.0,0.0,0.0,0.0,0.0,0.0,0.0,0.0,0.0,0.0,0.0,0.0,0.0,0.0,0.0,0.0,0.0,0.0,0.0,0.0,0.0,0.0,0.0,-2.9936,-2.9569,-2.9064,0.0,0.0,0.0,0.0,0.0,0.0,0.0,0.0,0.0,0.0,-3.4242,-3.4506,-3.4991,-3.5294,-3.5276,-3.5195,-3.5129,-3.4997,-3.4802,-3.4287,-3.3235,0.0,0.0,0.0,0.0,0.0,0.0,0.0,0.0,0.0,0.0,0.0,0.0,0.0,0.0,0.0,0.0,0.0,0.0,0.0,0.0,0.0,0.0,0.0,0.0,0.0,0.0,0.0,-3.3474,0.0,0.0,-3.4624,0.0,0.0,0.0,0.0,0.0,0.0,0.0,0.0,0.0,0.0,0.0,0.0,0.0,0.0,0.0,0.0,0.0,0.0,0.0,0.0,0.0,0.0,-4.1576,-4.2303,-4.3819,-4.4598,-4.4598,-4.4598,-4.4598,-4.4598,-4.4581,-4.3826,-4.2226,0.0,0.0,0.0,0.0,0.0,0.0,0.0,0.0,0.0,0.0,0.0,0.0,0.0,0.0,0.0,0.0,0.0,0.0,0.0,0.0,0.0,0.0,0.0,0.0,0.0,0.0,-2.9902,-2.963,-2.9456,0.0,0.0,0.0,0.0,0.0,0.0,0.0,0.0,0.0,0.0,-3.3849,-3.4551,-3.425,-3.4605,-3.485,-3.476,-3.4563,-3.4414,-3.4428,-3.4249,-3.3704,0.0,0.0,0.0,0.0,0.0,0.0,0.0,0.0,0.0,0.0,0.0,0.0,0.0,0.0,0.0,0.0,0.0,0.0,0.0,0.0,0.0,0.0,0.0,0.0,0.0,0.0,0.0,-3.5861,-3.6446,0.0,0.0,0.0,0.0,0.0,0.0,0.0,0.0,0.0,0.0,0.0,-3.865,-3.9123,0.0,0.0,0.0,0.0,0.0,0.0,0.0,0.0,0.0,0.0,0.0,0.0,-4.196,-4.2337,-4.3792,-4.4598,-4.4598,-4.4598,-4.4598,-4.4598,-4.4035,-4.2518,-3.991,0.0,0.0,0.0,0.0,0.0,0.0,0.0,0.0,0.0,0.0,0.0,0.0,0.0,0.0,0.0,0.0,0.0,0.0,0.0,0.0,0.0,0.0,0.0,0.0,0.0,-3.0357,0.0,0.0,0.0,0.0,0.0,0.0,0.0,0.0,0.0,0.0,0.0,-3.3186,-3.3646,-3.3888,-3.4077,-3.4097,-3.4244,-3.4331,0.0,0.0,0.0,0.0,0.0,0.0,0.0,0.0,0.0,0.0,0.0,0.0,0.0,0.0,-2.9552,-2.898,-2.8765,-2.8612,-2.8424,0.0,0.0,0.0,0.0,0.0,0.0,0.0,0.0,0.0,0.0,0.0,0.0,0.0,0.0,-3.7242,0.0,-3.8207,0.0,0.0,0.0,0.0,0.0,0.0,0.0,0.0,-3.9276,-3.9377,-3.9394,-3.9876,-4.0087,0.0,-4.0358,-3.9986,0.0,0.0,0.0,0.0,0.0,0.0,0.0,0.0,-4.2142,-4.2291,-4.3496,-4.4281,-4.457,-4.4327,-4.4281,-4.457,-4.3506,-4.182,-3.9463,-3.812,-3.6558,0.0,0.0,0.0,0.0,0.0,0.0,0.0,0.0,0.0,0.0,0.0,0.0,0.0,0.0,0.0,0.0,0.0,0.0,0.0,0.0,0.0,0.0,0.0,-3.1087,0.0,0.0,0.0,0.0,0.0,0.0,0.0,0.0,0.0,-3.2044,-3.3006,-3.3728,-3.3982,-3.397,-3.3902,-3.3817,0.0,0.0,0.0,0.0,0.0,0.0,0.0,-3.2627,-3.2153,-3.1561,-3.1155,-3.119,-3.1216,-3.1203,-3.1216,0.0,0.0,-3.0155,-2.9909,-2.9764,-2.9632,-2.9582,-2.9582,-2.9595,-2.9595,-2.9559,0.0,0.0,0.0,0.0,0.0,0.0,0.0,0.0,-3.8751,-3.87,0.0,-3.8853,0.0,0.0,0.0,0.0,0.0,-3.9445,0.0,0.0,-4.0502,-4.0163,-4.018,-4.0113,-4.0155,-4.0248,-4.0839,-4.115,-4.1186,-3.9775,0.0,0.0,0.0,0.0,0.0,0.0,-4.2051,-4.2135,-4.2862,-4.3667,-4.4412,-4.368,-4.3651,-4.4367,-4.2924,-4.1697,-4.0736,-3.8476,-3.7266,-3.714,-3.456,0.0,0.0,0.0,0.0,0.0,0.0,0.0,0.0,0.0,0.0,0.0,0.0,0.0,0.0,0.0,0.0,0.0,0.0,0.0,0.0,-3.202,0.0,0.0,0.0,0.0,0.0,0.0,0.0,0.0,0.0,0.0,-3.2283,-3.321,-3.3833,-3.3685,0.0,0.0,0.0,0.0,-3.3205,-3.3264,-3.2938,-3.2966,-3.3725,-3.3275,-3.2804,-3.2594,0.0,0.0,-3.1762,-3.1884,-3.2017,-3.2005,-3.1856,-3.1538,-3.0843,-3.0649,-3.056,-3.0381,-3.0343,-3.0343,-3.0343,-3.0343,-3.0343,-4.029,0.0,0.0,0.0,0.0,-3.9165,-3.9563,-4.0273,-4.0476,-4.0747,-4.1052,-4.1255,0.0,0.0,0.0,0.0,0.0,0.0,-4.1576,-4.1965,-4.1762,-4.166,-4.1644,-4.0595,-4.094,-4.2385,-4.0962,-4.1127,-4.258,-4.1122,-4.0258,-4.0057,0.0,0.0,0.0,0.0,-4.1205,-4.2096,-4.2313,-4.2473,-4.2754,-4.252,-4.2189,-4.182,-4.137,-4.0296,-3.8455,-3.7742,-3.6784,-3.5477,-3.4759,0.0,0.0,0.0,0.0,0.0,0.0,0.0,0.0,0.0,0.0,0.0,0.0,0.0,0.0,0.0,0.0,0.0,0.0,0.0,-3.1348,-3.1324,-3.0953,0.0,0.0,0.0,0.0,0.0,0.0,0.0,0.0,0.0,-3.2378,-3.3229,-3.3704,0.0,0.0,-3.3035,-3.2711,-3.264,-3.2701,-3.2908,-3.2646,0.0,-3.2844,-3.2559,-3.2207,-3.1966,-3.2054,-3.2113,-3.2059,-3.2441,-3.2803,-3.276,-3.2718,-3.2617,-3.2386,-3.1706,-3.1213,-3.1082,-3.1082,-3.1082,-3.1082,-3.1082,-3.1095,-4.2702,-4.1805,-4.0595,-4.0265,-4.0519,-4.0527,-4.095,-4.166,-4.1965,-4.2168,-4.232,-4.2608,-4.2574,-4.2286,-4.193,0.0,0.0,0.0,-4.1463,-4.1728,-4.143,-4.1314,-4.1253,-4.041,-4.0656,-4.1886,-4.0839,-4.1013,-4.2331,-4.1244,-4.0603,-4.0427,0.0,0.0,-4.0062,-4.0301,-4.0804,-4.1576,-4.1502,-4.1674,-4.1997,-4.1981,-4.1576,-4.0758,-4.0724,-3.9787,-3.7873,-3.7554,-3.678,-3.5469,-3.5024,-3.4303,0.0,0.0,0.0,0.0,0.0,0.0,0.0,0.0,0.0,0.0,0.0,-3.0957,0.0,0.0,0.0,0.0,-3.1543,-3.1465,-3.1634,-3.1497,0.0,0.0,0.0,0.0,0.0,0.0,0.0,-2.9503,-3.0621,-3.1505,-3.1829,-3.28,-3.3371,-3.3175,-3.2972,-3.2722,-3.2395,0.0,-3.263,-3.3085,-3.2931,-3.2941,-3.3552,-3.3327,-3.3014,-3.2899,-3.3079,-3.3206,-3.3219,-3.352,-3.3721,-3.3721,-3.3721,-3.3734,-3.3734,-3.3156,-3.2541,-3.2152,-3.2064,-3.2064,-3.2064,-3.2064,-3.2064,-4.4598,-4.4333,-4.1627,-4.0865,-4.1457,-4.1457,-4.1863,-4.2523,-4.32,-4.3132,-4.2523,-4.3101,-4.2979,-4.224,-4.1508,0.0,-4.0959,-4.0351,-4.0446,-4.0959,-4.0289,-3.9986,-3.997,-3.986,-3.986,-4.0017,-4.0467,-4.0753,-4.088,-4.0498,-4.0271,-4.0139,-3.9675,-3.9424,-3.9361,-4.0072,-4.0515,-4.061,-4.0556,-4.0917,-4.1756,-4.1804,-4.1412,-4.0622,-4.0541,-3.9826,-3.8402,-3.7674,-3.7045,-3.6402,-3.5364,-3.4751,-3.463,0.0,0.0,0.0,0.0,0.0,0.0,0.0,0.0,0.0,0.0,0.0,0.0,0.0,0.0,0.0,-3.2631,0.0,-3.2302,-3.2326,0.0,0.0,0.0,-3.0152,-2.9434,-2.9368,-2.9349,-2.9295,0.0,0.0,-3.1068,-3.2084,-3.2988,-3.3341,-3.3196,-3.2881,-3.2404,-3.2503,-3.2827,-3.3573,-3.3585,-3.3936,-3.492,-3.4819,-3.4512,-3.4512,-3.468,-3.4593,-3.4625,-3.4605,-3.47,-3.4605,-3.4668,-3.4655,-3.4668,-3.4542,-3.4412,-3.337,-3.3187,-3.3162,-3.3149,-3.3074,-3.2968,-4.4598,-4.4547,-4.3836,-4.365,-4.3802,-4.3802,-4.3876,-4.4073,-4.4242,-4.4225,-4.4018,-4.3539,-4.2867,-4.2079,-4.2553,-4.2393,-4.1741,-4.2223,-4.2208,-4.1741,-4.155,-4.147,-4.1406,-4.029,-4.0354,-4.1326,-3.9771,-3.9591,-4.0663,-4.001,-3.9637,-3.9602,-3.947,-3.9346,-3.9204,-3.8781,-3.9023,-3.9932,-3.9295,-3.9299,-3.9975,-4.0041,-3.9935,-3.9702,-3.9224,-3.8546,-3.7659,-3.703,-3.6417,-3.5774,-3.5477,-3.5073,-3.4565,-3.3651,0.0,0.0,0.0,0.0,0.0,0.0,0.0,0.0,0.0,-3.1841,-3.2461,0.0,-3.3123,0.0,-3.3047,-3.3046,-3.3045,-3.2286,0.0,0.0,-3.0173,-2.9363,-2.9071,-2.9158,-2.9422,-2.9982,-3.0586,-3.1263,-3.2026,-3.2411,-3.2743,-3.3126,-3.277,-3.245,-3.2485,-3.2882,-3.3368,-3.3783,-3.418,-3.4501,-3.4823,-3.4771,-3.4718,-3.468,-3.4693,-3.468,-3.4693,-3.468,-3.468,-3.468,-3.468,-3.468,-3.4705,-3.468,-3.4618,-3.4361,-3.401,-3.3696,-3.3696,-3.3426,-3.3124,-4.4919,-4.4615,-4.4598,-4.4598,-4.4598,-4.4598,-4.4598,-4.4598,-4.4598,-4.4598,-4.4542,-4.368,-4.2816,-4.2029,-4.2093,-4.1674,-4.0894,-4.1362,-4.1295,-4.0842,-4.0842,-4.0842,-4.0826,-3.996,-4.0009,-4.0792,-3.9485,-3.9289,-4.0065,-3.9646,-3.9388,-3.9388,-3.9388,-3.9209,-3.8826,-3.8356,-3.8315,-3.8684,-3.8491,-3.8721,-3.9358,-3.9388,-3.926,-3.8975,-3.8586,-3.7958,-3.703,-3.6671,-3.6178,-3.5549,-3.5489,-3.5325,-3.4936,-3.4023,-3.3185,0.0,0.0,0.0,0.0,0.0,0.0,0.0,0.0,0.0,0.0,0.0,-3.3286,-3.274,-3.2315,-3.2141,-3.2424,-3.1713,-3.1179,-3.1021,-3.0233,-2.9707,-2.9679,-2.9745,-3.0073,-3.0695,-3.1213,-3.1713,-3.2277,-3.2622,-3.2857,-3.3086,-3.3052,-3.3038,-3.3131,-3.3429,-3.384,-3.45,-3.4843,-3.5144,-3.5403,-3.5441,-3.5454,-3.5454,-3.5454,-3.5454,-3.5454,-3.5454,-3.5454,-3.5441,-3.5454,-3.5441,-3.5454,-3.5454,-3.5454,-3.5378,-3.5014,-3.4487,-3.401,-3.3658,-3.3395,-4.5449,-4.4886,-4.4902,-4.4902,-4.4886,-4.4902,-4.4767,-4.4598,-4.4598,-4.4468,-4.4207,-4.335,-4.2489,-4.1642,-4.0979,-4.0205,-3.9409,-3.9517,-3.9517,-3.9388,-3.9388,-3.9388,-3.9388,-3.9388,-3.9388,-3.9388,-3.9388,-3.9388,-3.9388,-3.9388,-3.9388,-3.9388,-3.9388,-3.908,-3.8422,-3.8377,-3.8063,-3.7434,-3.8063,-3.8691,-3.9275,-3.92,-3.8886,-3.8302,-3.8217,-3.7629,-3.6585,-3.6402,-3.6103,-3.5534,-3.5489,-3.5489,-3.5474,-3.4307,-3.3619,0.0,-3.2437,0.0,0.0,0.0,0.0,0.0,0.0,0.0,0.0,-3.3554,-3.3253,-3.2219,-3.1336,-3.1014,-3.1492,-3.1123,-3.087,-3.0928,-3.0622,-3.0483,-3.0572,-3.067,-3.0922,-3.1424,-3.1926,-3.2215,-3.2353,-3.278,-3.3124,-3.3149,-3.3526,-3.3828,-3.3985,-3.4073,-3.4487,-3.5382,-3.5558,-3.5793,-3.6169,-3.6355,-3.6342,-3.638,-3.6329,-3.6417,-3.6355,-3.6367,-3.638,-3.638,-3.6329,-3.6367,-3.6417,-3.638,-3.638,-3.6317,-3.5893,-3.5303,-3.4449,-3.4085,-3.3847,-4.6498,-4.638,-4.6409,-4.6409,-4.6363,-4.6409,-4.5715,-4.4598,-4.4598,-4.3798,-4.2442,-4.156,-4.0706,-3.997,-4.0466,-4.0239,-3.946,-4.015,-4.008,-3.9388,-3.9388,-3.9388,-3.9388,-3.9388,-3.9388,-3.9388,-3.9388,-3.9388,-3.9388,-3.9388,-3.9388,-3.9388,-3.9388,-3.908,-3.8422,0.0,0.0,0.0,-3.8048,-3.8452,-3.8556,-3.8063,-3.7719,-3.7584,-3.712,0.0,-3.6492,-3.5968,-3.5639,-3.5504,-3.5489,0.0,0.0,0.0,0.0,0.0,0.0,0.0,0.0,0.0,0.0,0.0,-3.2301,-3.262,-3.306,-3.2803,-3.2541,-3.2275,-3.2071,-3.2091,-3.2321,-3.1631,-3.1135,-3.1143,-3.0791,-3.0586,-3.062,-3.0984,-3.1461,-3.1989,-3.2152,-3.239,-3.283,-3.3061,-3.3124,-3.3149,-3.3558,-3.406,-3.45,-3.4856,-3.5257,-3.5495,-3.5906,-3.6254,-3.6392,-3.6417,-3.6417,-3.6417,-3.6417,-3.6417,-3.6417,-3.6417,-3.6417,-3.6417,-3.6417,-3.6417,-3.6417,-3.6417,-3.6417,-3.6417,-3.6329,-3.6006,-3.532,-3.4831,-3.4537,-4.7124,-4.6786,-4.6786,-4.6786,0.0,-4.6786,-4.6363,-4.5635,-4.4855,-4.3542,-4.1965,-4.108,-4.0466,-4.006,-4.0045,-3.9829,-3.9424,-3.9864,-3.9844,-3.9424,-3.9388,-3.9388,-3.9388,-3.9388,-3.9388,-3.9388,-3.9388,-3.9388,-3.9388,-3.9388,-3.9388,-3.9388,-3.9388,-3.9245,-3.8901,-3.8886,-3.8571,-3.7898,-3.8227,-3.8556,-3.8856,-3.8242,-3.7749,-3.7385,-3.7105,0.0,0.0,0.0,0.0,0.0,0.0,0.0,0.0,-3.5026,0.0,-3.4488,-3.3844,-3.3649,-3.3948,-3.4009,-3.3674,-3.2949,-3.2263,-3.206,-3.2577,-3.2085,-3.1742,-3.1742,-3.1341,-3.1095,-3.1169,-3.1018,-3.0907,-3.0894,-3.0963,-3.1085,-3.1373,-3.1637,-3.2014,-3.2516,-3.2641,-3.2767,-3.3086,-3.3124,-3.3124,-3.3149,-3.3558,-3.4098,-3.465,-3.5144,-3.5558,-3.5893,-3.6144,-3.6405,-3.6417,-3.6417,-3.6417,-3.6417,-3.6417,-3.6417,-3.6417,-3.6417,-3.6417,-3.6417,-3.6417,-3.6417,-3.6417,-3.6417,-3.6417,-3.6417,-3.6417,-3.6342,-3.5981,-3.5516,-3.4994,-4.775,-4.7192,-4.7175,-4.7175,-4.7192,-4.7192,-4.6941,-4.6438,0.0,0.0,0.0,-4.1286,-4.082,-4.0751,-4.0085,-3.9709,-3.9553,-3.9553,-3.9529,-3.9388,-3.9388,-3.9388,-3.9388,-3.9388,-3.9388,-3.9388,-3.9388,-3.9388,-3.9388,-3.9388,-3.9388,-3.9388,-3.9388,-3.9388,-3.9388,-3.9388,-3.914,-3.8586,-3.8452,-3.8661,-3.92,-3.8452,-3.7808,-3.727,-3.7135,-3.6836,-3.6342,-3.6791,-3.7075,-3.706,-3.6596,-3.6312,-3.6267,-3.5265,-3.4588,-3.4416,-3.4065,-3.402,-3.4386,-3.4399,-3.4138,-3.3525,-3.1938,-3.1169,-3.1636,-3.1244,-3.0932,-3.0919,-3.033,-2.9942,-2.9942,-3.0432,-3.0746,-3.0758,-3.121,-3.1712,-3.2139,-3.2315,-3.2541,-3.3023,-3.3056,-3.3124,-3.3124,-3.3124,-3.3124,-3.3187,-3.3558,-3.4161,-3.4731,-3.5378,-3.5868,-3.6279,-3.6392,-3.6417,-3.6417,-3.6417,-3.6417,-3.6417,-3.6417,-3.6417,-3.6417,-3.6493,-3.6543,-3.6606,-3.6619,-3.6744,-3.6719,-3.6782,-3.6707,-3.6694,-3.6694,-3.6694,-3.6669,-3.632,-3.5796,-4.8781,-4.8697,-4.8697,-4.8697,-4.8697,-4.868,-4.7463,-4.5383,-4.4538,-4.4002,-4.3705,-4.2006,-4.1295,-4.131,-4.1175,-4.0801,-4.0277,-4.0277,-3.9963,-3.9403,-3.9388,-3.9388,-3.9388,-3.9388,-3.9388,-3.9388,-3.9388,-3.9388,-3.9388,-3.9388,-3.9388,-3.9388,-3.9388,-3.9388,-3.9388,-3.9388,-3.9343,-3.926,-3.8691,-3.8437,-3.8512,-3.7375,-3.675,-3.6596,-3.6088,-3.5744,-3.5654,-3.5774,-3.5774,-3.5774,-3.5699,-3.5639,-3.5639,-3.5459,-3.4952,-3.4215,-3.4783,-3.4896,-3.4134,-3.4066,-3.3364,-3.1729,-3.0608,-3.0037,-3.0113,-3.0037,-2.9998,-3.0036,-3.0284,-3.0507,-3.0532,-3.0972,-3.1273,-3.1311,-3.1775,-3.2139,-3.2252,-3.2641,-3.2955,-3.3111,-3.3124,-3.3149,-3.3174,-3.3174,-3.3212,-3.3224,-3.3646,-3.4261,-3.5094,-3.5893,-3.6279,-3.6392,-3.6417,-3.6417,-3.6417,-3.6417,-3.6417,-3.6417,-3.6417,-3.643,-3.648,-3.6744,-3.7008,-3.7073,-3.7349,-3.7626,-3.7688,-3.7789,-3.7676,-3.7638,-3.7626,-3.7663,-3.7638,-3.7501,-3.7188,-4.9018,-4.9018,-4.9018,-4.9018,-4.897,-4.8433,-4.7292,-4.5677,-4.4843,-4.3778,-4.2602,-4.1753,-4.1422,-4.1422,-4.1422,-4.122,-4.0935,-4.0935,-4.0771,-4.0472,-4.0127,-3.9948,-3.9903,-3.9553,-3.9388,-3.9388,-3.9388,-3.9388,-3.9388,-3.9388,-3.9388,-3.9388,-3.9388,-3.9388,-3.9388,-3.9388,-3.9388,-3.9409,-3.911,-3.8945,-3.8931,-3.8018,-3.7509,-3.7509,-3.6881,-3.6537,-3.6552,-3.6537,-3.6503,-3.6537,-3.6222,-3.6028,-3.6028,-3.5699,-3.5052,-3.4109,-3.4428,-3.4245,-3.3325,-3.2784,-3.2105,-3.1267,-3.0599,-3.0231,-3.0244,-3.0244,-3.0244,-3.0256,-3.0721,-3.1035,-3.1047,-3.1524,-3.1838,-3.1838,-3.234,-3.2667,-3.2717,-3.2893,-3.3124,-3.3149,-3.3345,-3.352,-3.352,-3.3784,-3.3822,-3.3658,-3.3997,-3.4562,-3.5006,-3.583,-3.6405,-3.6417,-3.6417,-3.6417,-3.6417,-3.6417,-3.6417,-3.6417,-3.6417,-3.6543,-3.6732,-3.692,-3.6998,-3.7475,-3.7638,-3.7688,-3.7927,-3.8002,-3.8002,-3.8002,-3.8002,-3.8002,-3.7953,-3.7431,-3.6824,-4.9018,-4.9018,-4.9018,-4.8861,-4.8593,-4.7456,-4.6539,-4.5798,-4.484,-4.3465,-4.197,-4.1833,-4.1818,-4.1818,-4.1818,-4.1743,-4.1624,-4.1632,-4.1557,-4.1362,-4.0861,-4.0621,-4.0561,-3.9948,-3.9597,-3.9619,-3.9463,-3.9388,-3.9388,-3.9388,-3.9388,-3.9388,-3.9388,-3.9388,-3.9388,-3.9388,-3.9388,-3.9388,-3.9388,-3.9388,-3.9358,-3.8751,-3.8377,-3.8347,-3.7734,-3.7404,-3.7404,-3.7285,-3.7195,-3.718,-3.6611,-3.6267,-3.6252,-3.5561,-3.4725,-3.3822,-3.3705,-3.3346,-3.2549,-3.1797,-3.1318,-3.1236,-3.0968,-3.0796,-3.0796,-3.0922,-3.0869,-3.0871,-3.126,-3.1574,-3.165,-3.2089,-3.2403,-3.2428,-3.2792,-3.3074,-3.3124,-3.3124,-3.3144,-3.3269,-3.3633,-3.3922,-3.4123,-3.4449,-3.4449,-3.4048,-3.4387,-3.4668,-3.4839,-3.5579,-3.6144,-3.6392,-3.6417,-3.6417,-3.6417,-3.6417,-3.6417,-3.6417,-3.6417,-3.6568,-3.6845,-3.6759,-3.7048,-3.7801,-3.7952,-3.8078,-3.8341,-3.8429,-3.8467,-3.8504,-3.853,-3.8342,-3.7902,-3.7154,-3.6101,-4.9018,-4.9018,-4.9018,-4.8513,-4.7556,-4.585,-4.5042,-4.4812,-4.3873,-4.3364,-4.305,-4.311,-4.308,-4.311,-4.3105,-4.2776,-4.2336,-4.2306,-4.2006,-4.1482,-4.1324,-4.1294,-4.1205,-4.0591,-4.0307,-4.0217,-3.9723,-3.9418,-3.9388,-3.9388,-3.9388,-3.9388,-3.9388,-3.9388,-3.9388,-3.9388,-3.9388,-3.9388,-3.9388,-3.9388,-3.9343,-3.8736,-3.8377,-3.8377,-3.7764,-3.7404,-3.7434,-3.6866,-3.6567,-3.6522,-3.5998,-3.5624,-3.5526,-3.4702,-3.3754,-3.2847,-3.2727,-3.2504,-3.212,-3.1972,-3.1733,-3.143,-3.137,-3.1323,-3.1348,-3.1763,-3.1851,-3.1562,-3.1825,-3.2114,-3.2164,-3.2641,-3.293,-3.2918,-3.3061,-3.3124,-3.3124,-3.3124,-3.3269,-3.3771,-3.3909,-3.4085,-3.4575,-3.4693,-3.455,-3.4148,-3.45,-3.4781,-3.4831,-3.5366,-3.5931,-3.6292,-3.6417,-3.6417,-3.6417,-3.6417,-3.6417,-3.6417,-3.6417,-3.6531,-3.6757,-3.7287,-3.7939,-3.8216,-3.873,-3.9157,-3.9346,-3.9534,-3.9459,-3.9295,-3.9231,-3.9073,-3.7956,-3.7386,-3.6649,-4.939,-4.9018,-4.9018,-4.8161,-4.6678,-4.5358,-4.4434,-4.3888,-4.3472,-4.3305,-4.3305,-4.3305,-4.3305,-4.3305,-4.3305,-4.314,-4.294,-4.2925,-4.2581,-4.1991,-4.1617,-4.1422,-4.1324,-4.0711,-4.0412,-4.0397,-4.0127,-3.9813,-3.9448,-3.9388,-3.9388,-3.9388,-3.9388,-3.9388,-3.9388,-3.9388,-3.9388,-3.9388,-3.9388,-3.9388,-3.9358,-3.9119,-3.899,-3.8931,-3.8332,-3.7988,-3.7928,-3.7375,-3.703,-3.7015,-3.6761,-3.6342,-3.5765,-3.5354,-3.4375,-3.2853,-3.2196,-3.1811,-3.1637,-3.1662,-3.1552,-3.1414,-3.1687,-3.1876,-3.1901,-3.2403,-3.2616,-3.2478,-3.2591,-3.2729,-3.2742,-3.293,-3.3124,-3.3124,-3.3124,-3.3124,-3.3124,-3.3413,-3.3671,-3.3909,-3.4474,-3.4881,-3.5107,-3.5157,-3.5069,-3.4868,-3.5044,-3.5119,-3.5182,-3.568,-3.6069,-3.6342,-3.6417,-3.6417,-3.6417,-3.6417,-3.6417,-3.6417,-3.6417,-3.6505,-3.7174,-3.7274,-3.7764,-3.8718,-3.9082,-3.9383,-3.9584,-3.9685,-3.9697,-3.9697,-3.9645,-3.9245,-3.7796,-3.7518,-3.6619,-4.9982,-4.926,-4.8565,-4.7456,-4.6119,-4.4893,-4.395,-4.3369,-4.3305,-4.3305,-4.3305,-4.3305,-4.3305,-4.3305,-4.3305,-4.3305,-4.3275,-4.311,-4.2821,-4.2366,-4.1886,-4.1654,-4.1617,-4.119,-4.0935,-4.0861,-4.0561,-4.0053,-3.9448,-3.9388,-3.9388,-3.9388,-3.9388,-3.9388,-3.9388,-3.9388,-3.9388,-3.9388,-3.9388,-3.9388,-3.9388,-3.9388,-3.9388,-3.9343,-3.8931,-3.8676,-3.8661,-3.8048,-3.7521,-3.7262,-3.7114,-3.6541,-3.5544,-3.5201,-3.4279,-3.2594,-3.182,-3.1461,-3.1599,-3.1612,-3.1687,-3.1863,-3.224,-3.2453,-3.2528,-3.2842,-3.3111,-3.3099,-3.3124,-3.3111,-3.3124,-3.3124,-3.3124,-3.3124,-3.3124,-3.3119,-3.3319,-3.3684,-3.401,-3.4361,-3.4981,-3.5583,-3.5696,-3.5768,-3.5717,-3.5483,-3.5458,-3.5495,-3.552,-3.5855,-3.6144,-3.6367,-3.6417,-3.6417,-3.6417,-3.6417,-3.6417,-3.6417,-3.6417,-3.6669,-3.745,-3.7247,-3.7425,-3.8354,-3.868,-3.9107,-3.9559,-3.9685,-3.9697,-3.9697,-3.9645,-3.9193,-3.7796,-3.7358,-3.6271,-5.0727,-4.9727,-4.7365,-4.6346,-4.6032,-4.419,-4.3369,-4.3305,-4.3305,-4.3305,-4.3305,-4.3305,-4.3305,-4.3305,-4.3305,-4.3305,-4.3215,-4.2716,-4.2455,-4.2336,-4.2291,-4.2336,-4.2351,-4.2321,-4.2276,-4.2051,-4.107,-4.0187,-3.9478,-3.9418,-3.9388,-3.9388,-3.9388,-3.9388,-3.9388,-3.9388,-3.9388,-3.9388,-3.9388,-3.9388,-3.9388,-3.9388,-3.9388,-3.9286,-3.9328,-3.9196,-3.9188,-3.8656,-3.7843,-3.6843,-3.6317,-3.5514,-3.4485,-3.3532,-3.2593,-3.1734,-3.1477,-3.165,-3.2102,-3.2177,-3.2378,-3.2855,-3.296,-3.3018,-3.2998,-3.3074,-3.3111,-3.3124,-3.3124,-3.3124,-3.3124,-3.3124,-3.3149,-3.3187,-3.3162,-3.3345,-3.3809,-3.3972,-3.4412,-3.5094,-3.5458,-3.5805,-3.6279,-3.6367,-3.6056,-3.5755,-3.5533,-3.5545,-3.5596,-3.5608,-3.5893,-3.6292,-3.643,-3.6417,-3.643,-3.6543,-3.6518,-3.6568,-3.6669,-3.6631,-3.6669,-3.6883,-3.75,-3.809,-3.8668,-3.9157,-3.9534,-3.9697,-3.9697,-3.9697,-3.9697,-3.9077,-3.7796,-3.6379,-3.5453,-5.0824,-4.9111,-4.754,-4.6298,-4.519,-4.3873,-4.3305,-4.3305,-4.3305,-4.3305,-4.3305,-4.3305,-4.3305,-4.3305,-4.3305,-4.3305,-4.3245,-4.2656,-4.2186,-4.1826,-4.1767,-4.1767,-4.1811,-4.2186,-4.2396,-4.2321,-4.1916,-4.11,-4.0142,-4.0053,-3.9828,-3.9433,-3.9388,-3.9388,-3.9388,-3.9388,-3.9388,-3.9388,-3.9388,-3.9388,-3.9388,-3.9388,-3.9104,-3.842,-3.8383,-3.8397,-3.8397,-3.7494,-3.6821,-3.6438,-3.6214,-3.5629,-3.4593,-3.3567,-3.2848,-3.255,-3.2466,-3.2596,-3.2729,-3.2754,-3.2842,-3.3086,-3.3124,-3.3124,-3.3124,-3.3124,-3.3124,-3.3124,-3.3124,-3.3124,-3.3124,-3.3124,-3.3232,-3.3533,-3.3608,-3.3822,-3.4349,-3.4738,-3.5082,-3.5458,-3.583,-3.6169,-3.6329,-3.6417,-3.6329,-3.6119,-3.6056,-3.6044,-3.6069,-3.6069,-3.6132,-3.6405,-3.6694,-3.6933,-3.6885,-3.6945,-3.6971,-3.7023,-3.7149,-3.7613,-3.7863,-3.7876,-3.8354,-3.8718,-3.9132,-3.927,-3.9634,-3.9697,-3.9697,-3.9697,-3.9697,-3.9129,-3.7808,-3.6595,-3.5727,-5.056,-4.892,-4.7209,-4.5856,-4.4715,-4.3732,-4.3305,-4.3305,-4.3305,-4.3305,-4.3305,-4.3305,-4.3305,-4.3305,-4.3305,-4.3305,-4.32,-4.2447,-4.1841,-4.1422,-4.116,-4.107,-4.122,-4.1991,-4.2396,-4.2396,-4.2396,-4.1811,-4.0831,-4.0711,-4.0367,-3.9783,-3.9738,-3.9582,-3.9433,-3.9388,-3.9388,-3.9388,-3.9388,-3.925,-3.898,-3.8855,-3.8383,-3.7434,-3.6996,-3.6996,-3.7214,-3.6565,-3.6,-3.5774,-3.5694,-3.5238,-3.422,-3.3513,-3.3124,-3.3124,-3.3111,-3.3124,-3.3124,-3.3124,-3.3111,-3.3124,-3.3124,-3.3124,-3.3124,-3.3124,-3.3124,-3.3136,-3.3312,-3.3332,-3.3382,-3.3508,-3.3684,-3.3909,-3.4048,-3.4387,-3.4881,-3.5257,-3.5545,-3.583,-3.6119,-3.6367,-3.6417,-3.6417,-3.6405,-3.6417,-3.6417,-3.6417,-3.6417,-3.6417,-3.6505,-3.6656,-3.6971,-3.7224,-3.7462,-3.7638,-3.7575,-3.7638,-3.7663,-3.8241,-3.858,-3.868,-3.8894,-3.9295,-3.9496,-3.9546,-3.9609,-3.9672,-3.9645,-3.9581,-3.9581,-3.9181,-3.8072,-3.7026,-3.5661,-4.9813,-4.9202,-4.6213,-4.4967,-4.4656,-4.3723,-4.3305,-4.3305,-4.3305,-4.3305,-4.3305,-4.3305,-4.3305,-4.3305,-4.3305,-4.3305,-4.308,-4.2132,-4.1602,-4.1482,-4.0846,-4.0591,-4.0741,-4.1871,-4.2455,-4.25,-4.244,-4.2096,-4.1467,-4.1407,-4.1055,-4.0516,-4.0337,-4.0023,-3.9433,-3.9433,-3.9388,-3.9265,-3.9228,-3.8782,-3.7956,-3.7791,-3.7305,-3.6251,-3.5359,-3.5292,-3.6093,-3.6053,-3.5547,-3.4774,-3.4718,-3.4191,-3.3398,-3.3111,-3.3124,-3.3124,-3.3124,-3.3124,-3.3124,-3.3124,-3.3124,-3.3124,-3.3124,-3.3124,-3.3124,-3.3124,-3.3149,-3.3287,-3.3558,-3.3859,-3.396,-3.4349,-3.4487,-3.4098,-3.4462,-3.4906,-3.5357,-3.552,-3.5708,-3.6182,-3.6405,-3.6417,-3.6417,-3.6417,-3.6417,-3.6417,-3.6417,-3.6417,-3.6443,-3.648,-3.6694,-3.7046,-3.7374,-3.7713,-3.809,-3.8417,-3.8316,-3.8241,-3.8228,-3.8467,-3.8605,-3.873,-3.8931,-3.927,-3.9383,-3.9446,-3.8963,-3.8973,-3.8804,-3.8804,-3.9025,-3.8465,-3.7037,-3.5551,-3.4626,-4.9512,-4.8304,-4.688,-4.554,-4.4422,-4.3603,-4.3305,-4.3305,-4.3305,-4.3305,-4.3305,-4.3305,-4.3305,-4.3305,-4.3305,-4.3305,-4.3215,-4.2462,-4.2096,-4.1976,-4.1407,-4.1265,-4.1737,-4.2186,-4.2611,-4.2955,-4.3015,-4.2686,-4.2201,-4.2096,-4.1752,-4.113,-4.0621,-4.0307,-4.0083,-3.9642,-3.9104,-3.8345,-3.8308,-3.7776,-3.6813,-3.6682,-3.6172,-3.5251,-3.4856,-3.454,-3.4095,-3.4053,-3.3898,-3.3628,-3.3598,-3.3441,-3.3154,-3.3124,-3.3124,-3.3124,-3.3124,-3.3124,-3.3124,-3.3124,-3.3124,-3.3124,-3.3124,-3.3124,-3.3124,-3.3136,-3.3312,-3.3571,-3.3822,-3.4022,-3.4462,-3.4919,-3.5132,-3.5006,-3.5144,-3.5458,-3.5943,-3.6081,-3.6182,-3.6355,-3.6417,-3.6417,-3.6417,-3.6417,-3.6417,-3.6417,-3.6417,-3.6417,-3.6468,-3.6744,-3.6935,-3.7174,-3.7713,-3.8278,-3.863,-3.8931,-3.8994,-3.8906,-3.8868,-3.8818,-3.8881,-3.8931,-3.912,-3.922,-3.932,-3.9203,-3.8666,-3.8243,-3.8137,-3.7382,-3.6942,-3.5999,-3.4836,-3.4013,-3.3417,-4.8788,-4.7716,-4.6708,-4.5546,-4.4302,-4.3813,-4.3499,-4.3319,-4.3305,-4.3305,-4.3305,-4.3305,-4.3305,-4.3305,-4.3305,-4.3305,-4.3245,-4.2895,-4.2716,-4.2506,-4.1459,-4.1294,-4.1647,-4.1662,-4.2147,-4.2836,-4.297,-4.2895,-4.2731,-4.2686,-4.2387,-4.1796,-4.1362,-4.0995,-4.0741,-4.0091,-3.9225,-3.8312,-3.7958,-3.7112,-3.5948,-3.5628,-3.5156,-3.4262,-3.4121,-3.3755,-3.3167,-3.3124,-3.3124,-3.3124,-3.3124,-3.3124,-3.3124,-3.3124,-3.3124,-3.3124,-3.3124,-3.3124,-3.3124,-3.3124,-3.3124,-3.3124,-3.3124,-3.3237,-3.3307,-3.3426,-3.3633,-3.4085,-3.4424,-3.4605,-3.4981,-3.5516,-3.5771,-3.583,-3.5843,-3.6006,-3.6355,-3.6417,-3.6405,-3.6417,-3.6417,-3.6417,-3.6417,-3.6417,-3.6417,-3.6417,-3.6417,-3.6556,-3.6681,-3.7008,-3.7262,-3.7663,-3.8278,-3.8768,-3.9132,-3.9396,-3.9622,-3.9584,-3.9521,-3.9446,-3.9433,-3.9421,-3.9521,-3.9496,-3.9559,-3.9495,-3.9077,-3.8072,-3.7571,-3.6379,-3.5245,-3.4792,-3.4236,-3.3631,-3.2975,-4.7775,-4.7546,-4.6044,-4.5106,-4.4541,-4.4347,-4.3917,-4.3424,-4.3305,-4.3305,-4.3305,-4.3305,-4.3305,-4.3305,-4.3305,-4.3305,-4.329,-4.326,-4.3185,-4.2751,-4.1654,-4.0831,-4.0801,-4.092,-4.1564,-4.2351,-4.2545,-4.2791,-4.317,-4.3225,-4.3015,-4.2485,-4.2276,-4.2066,-4.1452,-4.0771,-3.9852,-3.8673,-3.8097,-3.6816,-3.4878,-3.4673,-3.423,-3.3253,-3.3197,-3.3197,-3.3124,-3.3124,-3.3124,-3.3124,-3.3124,-3.3124,-3.3124,-3.3124,-3.3124,-3.3124,-3.3124,-3.3124,-3.3124,-3.3124,-3.3174,-3.3206,-3.3275,-3.3345,-3.3834,-3.396,-3.4173,-3.4668,-3.5094,-3.5433,-3.5583,-3.5994,-3.6317,-3.6392,-3.6317,-3.6355,-3.6405,-3.6417,-3.6417,-3.6417,-3.6417,-3.6417,-3.6417,-3.6417,-3.6417,-3.643,-3.6468,-3.6757,-3.701,-3.7362,-3.7888,-3.8366,-3.8806,-3.912,-3.9433,-3.9496,-3.9697,-3.9697,-3.9697,-3.9697,-3.9697,-3.9697,-3.9697,-3.9697,-3.9413,-3.9413,-3.8699,-3.7305,-3.6259,-3.5167,-3.4515,-3.4292,-3.3631,-3.2871,-3.2426,-4.7422,-4.7304,-4.6434,-4.5948,-4.5648,-4.4766,-4.4242,-4.3947,-4.3499,-4.3334,-4.3305,-4.3305,-4.3305,-4.3305,-4.3305,-4.3305,-4.3305,-4.3305,-4.3305,-4.314,-4.2387,-4.1602,-4.1339,-4.1647,-4.2006,-4.2381,-4.2731,-4.311,-4.329,-4.3305,-4.3185,-4.306,-4.2635,-4.2351,-4.2051,-4.1459,-4.01,-3.8549,-3.8153,-3.6714,-3.4581,-3.4168,-3.3792,-3.3222,-3.3162,-3.3162,-3.3136,-3.3124,-3.3124,-3.3124,-3.3124,-3.3124,-3.3124,-3.3124,-3.3136,-3.3174,-3.3149,-3.3149,-3.3162,-3.3174,-3.3282,-3.3633,-3.3684,-3.3922,-3.4449,-3.4455,-3.4731,-3.5169,-3.5458,-3.5683,-3.6056,-3.6317,-3.6405,-3.6417,-3.6417,-3.6417,-3.6417,-3.6417,-3.6417,-3.6417,-3.6417,-3.6417,-3.6417,-3.6417,-3.643,-3.6493,-3.6732,-3.7048,-3.74,-3.7927,-3.8517,-3.8743,-3.9132,-3.9421,-3.9634,-3.9659,-3.9697,-3.9697,-3.9697,-3.9697,-3.9697,-3.9697,-3.9697,-3.9697,-3.8687,-3.8465,-3.6757,-3.5057,-3.4348,-3.4024,-3.2985,-3.2379,-3.1998,-3.1392,-3.1498,-4.7309,-4.7264,-4.689,-4.6576,-4.6204,-4.5442,-4.4855,-4.4317,-4.3928,-4.3529,-4.3364,-4.3305,-4.3305,-4.3305,-4.3305,-4.3305,-4.3305,-4.3305,-4.3305,-4.3185,-4.2626,-4.1856,-4.1362,-4.1677,-4.1991,-4.2066,-4.2626,-4.3045,-4.3245,-4.3305,-4.3305,-4.323,-4.2955,-4.2791,-4.2746,-4.2094,-4.0689,-3.8838,-3.8186,-3.6793,-3.4483,-3.4248,-3.411,-3.3822,-3.3771,-3.3759,-3.3771,-3.3771,-3.3596,-3.3219,-3.3124,-3.3124,-3.3124,-3.3124,-3.3224,-3.337,-3.342,-3.352,-3.3734,-3.3771,-3.3909,-3.4161,-3.4236,-3.448,-3.4881,-3.5031,-3.5257,-3.5805,-3.5868,-3.6044,-3.6317,-3.6417,-3.6417,-3.6417,-3.6417,-3.6417,-3.6417,-3.6417,-3.6417,-3.6417,-3.6417,-3.6417,-3.6417,-3.6417,-3.6543,-3.6732,-3.6948,-3.7412,-3.7914,-3.8517,-3.8994,-3.9207,-3.9346,-3.9559,-3.9672,-3.9685,-3.9697,-3.9697,-3.9697,-3.9697,-3.9697,-3.9697,-3.9697,-3.9413,-3.8243,-3.7186,-3.5988,-3.467,-3.3575,-3.2861,-3.1546,-3.0995,-3.1064,-3.0898,-3.0898,-4.7309,-4.7309,-4.7309,-4.6965,-4.6444,-4.6279,-4.5544,-4.4571,-4.4302,-4.3858,-4.3394,-4.3305,-4.3305,-4.3305,-4.3305,-4.3305,-4.3305,-4.3305,-4.3305,-4.314,-4.2731,-4.2006,-4.1115,-4.1512,-4.1737,-4.1826,-4.2231,-4.2791,-4.3185,-4.3305,-4.3305,-4.329,-4.326,-4.3275,-4.3016,-4.2544,-4.112,-3.9354,-3.836,-3.6974,-3.5187,-3.4801,-3.4655,-3.455,-3.4525,-3.4537,-3.453,-3.4587,-3.4248,-3.3307,-3.33,-3.34,-3.3375,-3.3338,-3.3495,-3.3872,-3.3997,-3.4173,-3.4562,-3.4562,-3.47,-3.4718,-3.4756,-3.5006,-3.5433,-3.5596,-3.5805,-3.6267,-3.6405,-3.6367,-3.6392,-3.6417,-3.6417,-3.6417,-3.6417,-3.6417,-3.6417,-3.6417,-3.6417,-3.6417,-3.6417,-3.6417,-3.6417,-3.6493,-3.6681,-3.7021,-3.7337,-3.7952,-3.8404,-3.8868,-3.927,-3.9534,-3.9609,-3.9659,-3.9697,-3.9697,-3.9697,-3.9697,-3.9697,-3.9697,-3.9697,-3.9697,-3.9697,-3.9245,-3.8295,-3.769,-3.7133,-3.5661,-3.3901,-3.3021,-3.253,-3.1825,-3.1218,-3.1005,-3.0898,-4.7309,-4.7309,-4.7309,-4.7219,-4.701,-4.6503,-4.5858,-4.5035,-4.4526,-4.3988,-4.3409,-4.3305,-4.3305,-4.3305,-4.3305,-4.3305,-4.3305,-4.3305,-4.3305,-4.3275,-4.3185,-4.2701,-4.2058,-4.2141,-4.2156,-4.2306,-4.2806,-4.314,-4.329,-4.3305,-4.3305,-4.3305,-4.3305,-4.3305,-4.3165,-4.2401,-4.1151,-3.9751,-3.8658,-3.7224,-3.5758,-3.532,-3.5144,-3.4889,-3.4813,-3.4718,-3.4693,-3.468,-3.4555,-3.4424,-3.4374,-3.4361,-3.4261,-3.4274,-3.4361,-3.4487,-3.455,-3.4613,-3.4726,-3.4806,-3.4926,-3.527,-3.5345,-3.5617,-3.6119,-3.6157,-3.6267,-3.6417,-3.6417,-3.6417,-3.6417,-3.6417,-3.6417,-3.6417,-3.6417,-3.6417,-3.6417,-3.6417,-3.6417,-3.6417,-3.6443,-3.6417,-3.6468,-3.6883,-3.7109,-3.7348,-3.7876,-3.8554,-3.8919,-3.9245,-3.9459,-3.9697,-3.9697,-3.9697,-3.9697,-3.9697,-3.9697,-3.9697,-3.9697,-3.9697,-3.9697,-3.9697,-3.9697,-3.9193,-3.8413,-3.7914,-3.7465,-3.6314,-3.4459,-3.4069,-3.3462,-3.2587,-3.1767,-3.1392,-3.0898,-4.7309,-4.7309,-4.7309,-4.7309,-4.7249,-4.6935,-4.6217,-4.5364,-4.4945,-4.4227,-4.3439,-4.3305,-4.3305,-4.3305,-4.3305,-4.3305,-4.3305,-4.3305,-4.3305,-4.3305,-4.3275,-4.3135,-4.291,-4.2776,-4.2716,-4.259,-4.3015,-4.3275,-4.3305,-4.3305,-4.3305,-4.3305,-4.3305,-4.3305,-4.329,-4.2603,-4.1545,-4.0131,-3.9258,-3.7994,-3.6282,-3.5918,-3.5855,-3.5554,-3.5491,-3.5491,-3.5516,-3.5516,-3.5504,-3.5491,-3.5479,-3.5215,-3.4801,-3.4693,-3.4839,-3.5031,-3.5069,-3.5265,-3.5403,-3.5504,-3.5629,-3.5881,-3.5931,-3.6081,-3.6342,-3.6417,-3.6417,-3.6417,-3.6417,-3.6417,-3.6417,-3.6417,-3.6417,-3.6417,-3.6417,-3.6417,-3.6417,-3.6417,-3.6417,-3.648,-3.6656,-3.6782,-3.6971,-3.7274,-3.7726,-3.804,-3.8265,-3.8894,-3.9233,-3.9521,-3.9559,-3.9697,-3.9697,-3.9697,-3.9697,-3.9697,-3.9697,-3.9697,-3.9697,-3.9697,-3.9697,-3.9697,-3.9697,-3.9141,-3.8635,-3.7861,-3.7305,-3.6097,-3.5167,-3.4013,-3.3293,-3.2804,-3.2207,-3.1392,-3.1005,-4.7309,-4.7309,-4.7309,-4.7309,-4.7309,-4.7279,-4.6606,-4.5559,-4.5334,-4.4586,-4.3589,-4.3364,-4.3305,-4.3305,-4.3305,-4.3305,-4.3305,-4.3305,-4.3305,-4.3305,-4.3305,-4.326,-4.32,-4.314,-4.303,-4.2611,-4.3075,-4.329,-4.3305,-4.3305,-4.3305,-4.3305,-4.3305,-4.3115,-4.3021,-4.2684,-4.1435,-3.9623,-3.8961,-3.8153,-3.6658,-3.6342,-3.6304,-3.6267,-3.6241,-3.6241,-3.6229,-3.6267,-3.6342,-3.6417,-3.6417,-3.5855,-3.5265,-3.5002,-3.5127,-3.5596,-3.5667,-3.583,-3.6128,-3.6292,-3.6317,-3.6417,-3.6392,-3.6392,-3.6405,-3.6417,-3.6417,-3.6417,-3.6417,-3.6417,-3.6417,-3.6417,-3.6417,-3.6417,-3.6417,-3.6443,-3.6518,-3.6531,-3.6593,-3.6644,-3.6895,-3.7036,-3.74,-3.7801,-3.8316,-3.8743,-3.8957,-3.9158,-3.9484,-3.9697,-3.9697,-3.9697,-3.9697,-3.9697,-3.9697,-3.9697,-3.9697,-3.9697,-3.9697,-3.9697,-3.9697,-3.9697,-3.9645,-3.9465,-3.8908,-3.8295,-3.7914,-3.7477,-3.6217,-3.4337,-3.3564,-3.3687,-3.2711,-3.1392,-3.1005,-4.7309,-4.7309,-4.7309,-4.7309,-4.7309,-4.7309,-4.6845,-4.6127,-4.5499,-4.487,-4.4107,-4.3544,-4.3305,-4.3305,-4.3305,-4.3305,-4.3305,-4.3305,-4.3305,-4.3305,-4.3305,-4.3305,-4.3305,-4.329,-4.3185,-4.3185,-4.3275,-4.329,-4.3305,-4.3305,-4.321,-4.325,-4.321,-4.2845,-4.1809,-4.1,-4.0145,-3.8783,-3.7952,-3.7116,-3.6593,-3.6417,-3.6417,-3.6417,-3.6417,-3.6417,-3.6417,-3.6417,-3.6417,-3.6417,-3.6417,-3.6292,-3.6078,-3.6015,-3.6044,-3.6107,-3.6157,-3.6267,-3.6392,-3.6417,-3.6417,-3.6417,-3.6417,-3.6417,-3.6417,-3.6417,-3.6417,-3.6417,-3.6417,-3.6417,-3.6417,-3.6417,-3.6417,-3.6417,-3.6493,-3.6571,-3.6885,-3.7023,-3.7086,-3.7199,-3.7287,-3.7437,-3.7889,-3.8304,-3.8743,-3.9082,-3.9233,-3.9346,-3.9572,-3.9697,-3.9697,-3.9697,-3.9697,-3.9697,-3.9697,-3.9697,-3.9697,-3.9697,-3.9697,-3.9697,-3.9697,-3.9697,-3.9633,-3.9465,-3.9465,-3.9245,-3.8921,-3.8647,-3.782,-3.6271,-3.5563,-3.4736,-3.3155,-3.1614,-3.1005,-4.7309,-4.7309,-4.7309,-4.7309,-4.7309,-4.7309,-4.6726,-4.5828,-4.5424,-4.4721,-4.3943,-4.3439,-4.3305,-4.3305,-4.3305,-4.3305,-4.3305,-4.3305,-4.3305,-4.3305,-4.3305,-4.3305,-4.3305,-4.3305,-4.3305,-4.329,-4.329,-4.3305,-4.3305,-4.3305,-4.2981,-4.2467,-4.2412,-4.1864,-4.0916,-4.0246,-3.9183,-3.8166,-3.7507,-3.6943,-3.6452,-3.6417,-3.6417,-3.6417,-3.6417,-3.6417,-3.6417,-3.6417,-3.6417,-3.6417,-3.6417,-3.6417,-3.6417,-3.6417,-3.6417,-3.6417,-3.6417,-3.6417,-3.6417,-3.6417,-3.6417,-3.6417,-3.6417,-3.6417,-3.6417,-3.6417,-3.6417,-3.6417,-3.6417,-3.6417,-3.6417,-3.643,-3.6417,-3.6455,-3.6644,-3.6897,-3.7174,-3.7437,-3.7688,-3.7927,-3.8128,-3.8291,-3.8429,-3.8831,-3.9182,-3.9408,-3.9546,-3.9622,-3.9697,-3.9697,-3.9697,-3.9697,-3.9697,-3.9697,-3.9697,-3.9697,-3.9697,-3.9697,-3.9697,-3.9697,-3.9697,-3.9697,-3.9697,-3.9645,-3.9697,-3.9697,-3.9581,-3.9193,-3.8699,-3.7979,-3.6337,-3.4681,-3.3145,-3.194,-3.1286,-4.7309,-4.7309,-4.7309,-4.7309,-4.7309,-4.7309,-4.6651,-4.5633,-4.5364,-4.4661,-4.3574,-4.3364,-4.3305,-4.3305,-4.3305,-4.3305,-4.3305,-4.3305,-4.3305,-4.3305,-4.3305,-4.3305,-4.3305,-4.3305,-4.3305,-4.3305,-4.3305,-4.3305,-4.321,-4.2955,-4.2371,-4.185,-4.1504,-4.0689,-3.9711,-3.9404,-3.8783,-3.8121,-3.771,-3.7243,-3.6628,-3.6417,-3.6417,-3.6417,-3.6417,-3.6417,-3.6417,-3.6417,-3.6417,-3.6417,-3.6417,-3.6417,-3.6417,-3.6417,-3.6417,-3.6417,-3.6417,-3.6417,-3.6417,-3.6417,-3.6417,-3.6417,-3.6417,-3.6417,-3.6417,-3.6417,-3.6417,-3.6417,-3.6417,-3.6417,-3.643,-3.6531,-3.6593,-3.6732,-3.7036,-3.7425,-3.7688,-3.8002,-3.8429,-3.8693,-3.8994,-3.9032,-3.9069,-3.9145,-3.9459,-3.9509,-3.9634,-3.9647,-3.9697,-3.9697,-3.9697,-3.9697,-3.9697,-3.9697,-3.9697,-3.9697,-3.9697,-3.9697,-3.9697,-3.9697,-3.9697,-3.9697,-3.9697,-3.9697,-3.9697,-3.9697,-3.9697,-3.953,-3.8804,-3.7767,-3.6162,-3.4626,-3.3201,-3.1998,-3.1112,-4.7309,-4.7309,-4.7309,-4.7309,-4.7309,-4.7309,-4.689,-4.6112,-4.5514,-4.49,-4.3947,-4.3559,-4.3305,-4.3305,-4.3305,-4.3305,-4.3305,-4.3305,-4.3305,-4.3305,-4.3305,-4.3305,-4.3305,-4.3305,-4.3305,-4.3305,-4.3305,-4.3305,-4.3115,-4.2371,-4.1767,-4.1378,-4.0433,-3.9492,-3.8424,-3.8347,-3.7723,-3.6837,-3.6675,-3.6581,-3.6452,-3.6417,-3.6417,-3.6417,-3.6417,-3.6417,-3.6417,-3.6417,-3.6417,-3.6417,-3.6417,-3.6417,-3.6417,-3.6417,-3.6417,-3.6417,-3.6417,-3.6417,-3.6417,-3.6417,-3.6417,-3.6417,-3.6417,-3.6417,-3.6417,-3.6417,-3.6417,-3.6417,-3.6443,-3.6493,-3.6606,-3.6883,-3.7059,-3.7274,-3.7588,-3.8103,-3.8442,-3.8542,-3.8981,-3.9182,-3.9346,-3.9459,-3.9521,-3.9597,-3.9685,-3.9697,-3.9697,-3.9697,-3.9697,-3.9697,-3.9697,-3.9697,-3.9697,-3.9697,-3.9697,-3.9697,-3.9697,-3.9697,-3.9697,-3.9697,-3.9697,-3.9697,-3.9697,-3.9697,-3.9645,-3.9413,-3.9245,-3.8921,-3.8582,-3.737,-3.5606,-3.4403,-3.336,-3.2207,-3.0947,-4.7309,-4.7309,-4.7309,-4.7309,-4.7309,-4.7309,-4.6696,-4.5813,-4.5424,-4.4706,-4.3813,-4.3454,-4.3305,-4.3305,-4.3305,-4.3305,-4.3305,-4.3305,-4.3305,-4.3305,-4.3305,-4.3305,-4.3305,-4.3305,-4.3305,-4.3305,-4.3305,-4.3305,-4.2941,-4.2193,-4.1378,-4.0518,-3.9478,-3.8302,-3.7381,-3.715,-3.6896,-3.6546,-3.6417,-3.6417,-3.6417,-3.6417,-3.6417,-3.6417,-3.6417,-3.6417,-3.6417,-3.6417,-3.6417,-3.6417,-3.6417,-3.6417,-3.6417,-3.6417,-3.6417,-3.6417,-3.6417,-3.6417,-3.6417,-3.6417,-3.6417,-3.6417,-3.6417,-3.6417,-3.6417,-3.6417,-3.6417,-3.6417,-3.6707,-3.6845,-3.6958,-3.7337,-3.755,-3.7814,-3.8165,-3.8467,-3.8957,-3.922,-3.9433,-3.9597,-3.9697,-3.9697,-3.9697,-3.9697,-3.9697,-3.9697,-3.9697,-3.9697,-3.9697,-3.9697,-3.9697,-3.9697,-3.9697,-3.9697,-3.9697,-3.9697,-3.9697,-3.9697,-3.9697,-3.9697,-3.9697,-3.9697,-3.9697,-3.9297,-3.8856,-3.8687,-3.8622,-3.8137,-3.7636,-3.6379,-3.5057,-3.38,-3.2597,-3.1883,-3.0898,-4.7309,-4.7279,-4.713,-4.7055,-4.704,-4.689,-4.6127,-4.5125,-4.5035,-4.4392,-4.3544,-4.3305,-4.3305,-4.3305,-4.3305,-4.3305,-4.3305,-4.3305,-4.3305,-4.3305,-4.3305,-4.3305,-4.3305,-4.3305,-4.3305,-4.3305,-4.3305,-4.3305,-4.2941,-4.2152,-4.1042,-3.9885,-3.8859,-3.7632,-3.6769,-3.6499,-3.6452,-3.6465,-3.6417,-3.6417,-3.6417,-3.6417,-3.6417,-3.6417,-3.6417,-3.6417,-3.6417,-3.6417,-3.6417,-3.6417,-3.6417,-3.6417,-3.6417,-3.6417,-3.6417,-3.6417,-3.6417,-3.6417,-3.6417,-3.6417,-3.6417,-3.6417,-3.6417,-3.6417,-3.6417,-3.6417,-3.6543,-3.6656,-3.6933,-3.7174,-3.7462,-3.7889,-3.8153,-3.8417,-3.873,-3.8919,-3.9107,-3.9383,-3.9572,-3.9634,-3.9697,-3.9697,-3.9697,-3.9697,-3.9697,-3.9697,-3.9697,-3.9697,-3.9697,-3.9697,-3.9697,-3.9697,-3.9697,-3.9697,-3.9697,-3.9697,-3.9697,-3.9697,-3.9697,-3.9697,-3.9697,-3.9697,-3.9697,-3.9077,-3.8243,-3.8019,-3.8019,-3.7305,-3.6487,-3.5167,-3.3845,-3.2758,-3.172,-3.117,-3.0898,-4.7309,-4.7249,-4.6636,-4.6354,-4.6381,-4.5708,-4.5065,-4.4481,-4.4436,-4.4032,-4.3349,-4.3305,-4.3305,-4.3305,-4.3305,-4.3305,-4.3305,-4.3305,-4.3305,-4.3305,-4.3305,-4.3305,-4.3305,-4.3305,-4.3305,-4.3305,-4.3305,-4.3305,-4.3036,-4.2152,-4.1,-3.9885,-3.868,-3.7553,-3.6769,-3.6417,-3.6417,-3.6417,-3.6417,-3.6417,-3.6417,-3.6417,-3.6417,-3.6417,-3.6417,-3.6417,-3.6417,-3.6417,-3.6417,-3.6417,-3.6417,-3.6417,-3.6417,-3.6417,-3.6417,-3.6417,-3.6417,-3.6417,-3.6417,-3.6417,-3.6417,-3.6417,-3.6417,-3.6455,-3.6556,-3.6468,-3.6644,-3.7121,-3.7423,-3.7588,-3.7977,-3.8404,-3.8755,-3.8919,-3.9157,-3.932,-3.9433,-3.9509,-3.9659,-3.9685,-3.9697,-3.9697,-3.9697,-3.9697,-3.9697,-3.9697,-3.9697,-3.9697,-3.9697,-3.9697,-3.9697,-3.9697,-3.9697,-3.9697,-3.9697,-3.9697,-3.9697,-3.9697,-3.9697,-3.9697,-3.9697,-3.9697,-3.9193,-3.8635,-3.7743,-3.7583,-3.7026,-3.5661,-3.4515,-3.3733,-3.2747,-3.193,-3.145,-3.1064,-3.0898,-4.7309,-4.7204,-4.6142,-4.5933,-4.6219,-4.5589,-4.4915,-4.4392,-4.4317,-4.3943,-4.3305,-4.3305,-4.3305,-4.3305,-4.3305,-4.3305,-4.3305,-4.3305,-4.3305,-4.3305,-4.3305,-4.3305,-4.3305,-4.3305,-4.3305,-4.3305,-4.3305,-4.3305,-4.317,-4.2111,-4.1,-3.9885,-3.8635,-3.7553,-3.6769,-3.6417,-3.6417,-3.6417,-3.6417,-3.6417,-3.6417,-3.6417,-3.6417,-3.6417,-3.6417,-3.6417,-3.6417,-3.6417,-3.6417,-3.6417,-3.6417,-3.6417,-3.6417,-3.6417,-3.6417,-3.6417,-3.6417,-3.6417,-3.6417,-3.6417,-3.6417,-3.6417,-3.643,-3.6543,-3.6759,-3.6908,-3.7197,-3.7563,-3.8026,-3.8241,-3.8517,-3.9019,-3.9383,-3.9433,-3.9521,-3.9647,-3.9697,-3.9697,-3.9697,-3.9697,-3.9697,-3.9697,-3.9697,-3.9697,-3.9697,-3.9697,-3.9697,-3.9697,-3.9697,-3.9697,-3.9697,-3.9697,-3.9697,-3.9697,-3.9697,-3.9697,-3.9697,-3.9697,-3.9697,-3.9697,-3.9581,-3.8518,-3.8019,-3.7571,-3.6757,-3.5715,-3.4626,-3.3473,-3.2815,-3.2701,-3.2207,-3.1441,-3.1112,-3.0947,-3.0898,-4.7309,-4.7174,-4.6067,-4.5753,-4.5903,-4.5095,-4.4451,-4.4077,-4.4003,-4.3753,-4.3305,-4.3305,-4.3305,-4.3305,-4.3305,-4.3305,-4.3305,-4.3305,-4.3305,-4.3305,-4.3305,-4.3305,-4.3305,-4.3305,-4.3305,-4.3305,-4.325,-4.325,-4.2644,-4.1932,-4.0689,-3.9434,-3.8514,-3.7507,-3.6675,-3.6417,-3.6417,-3.6417,-3.6417,-3.6417,-3.6417,-3.6417,-3.6417,-3.6417,-3.6417,-3.6417,-3.6417,-3.6417,-3.6417,-3.6417,-3.6417,-3.6417,-3.6417,-3.6417,-3.6417,-3.6417,-3.6417,-3.6417,-3.6417,-3.6417,-3.6417,-3.6417,-3.6656,-3.6822,-3.7086,-3.7337,-3.7688,-3.8191,-3.863,-3.8931,-3.9032,-3.9446,-3.9597,-3.9597,-3.9597,-3.9697,-3.9697,-3.9697,-3.9697,-3.9697,-3.9697,-3.9697,-3.9697,-3.9697,-3.9697,-3.9697,-3.9697,-3.9697,-3.9697,-3.9697,-3.9697,-3.9697,-3.9697,-3.9697,-3.9697,-3.9697,-3.9697,-3.9697,-3.9697,-3.9697,-3.931,-3.8084,-3.7358,-3.7358,-3.6097,-3.3856,-3.2871,-3.2483,-3.2322,-3.2207,-3.1662,-3.1112,-3.1054,-3.0898,-3.0898,-4.7294,-4.7219,-4.6531,-4.5888,-4.5274,-4.3932,-4.3424,-4.3514,-4.3424,-4.3364,-4.3305,-4.3305,-4.3305,-4.3305,-4.3305,-4.3305,-4.3305,-4.3305,-4.3305,-4.3305,-4.3305,-4.3305,-4.3305,-4.3305,-4.3305,-4.3305,-4.325,-4.2805,-4.1809,-4.142,-4.0204,-3.8814,-3.7971,-3.7368,-3.6499,-3.6417,-3.6417,-3.6417,-3.6417,-3.6417,-3.6417,-3.6417,-3.6417,-3.6417,-3.6417,-3.6417,-3.6417,-3.6417,-3.6417,-3.6417,-3.6417,-3.6417,-3.6417,-3.6417,-3.6417,-3.6417,-3.6417,-3.6417,-3.6443,-3.643,-3.6493,-3.6619,-3.6897,-3.7274,-3.7374,-3.7701,-3.8228,-3.8768,-3.8969,-3.9195,-3.9446,-3.9672,-3.9685,-3.9697,-3.9697,-3.9697,-3.9697,-3.9697,-3.9697,-3.9697,-3.9697,-3.9697,-3.9697,-3.9697,-3.9697,-3.9697,-3.9697,-3.9697,-3.9697,-3.9697,-3.9697,-3.9697,-3.9697,-3.9697,-3.9697,-3.9697,-3.9697,-3.9697,-3.9478,-3.9193,-3.8582,-3.7358,-3.6972,-3.7026,-3.5167,-3.2644,-3.215,-3.194,-3.1777,-3.1604,-3.1334,-3.0947,-3.0898,-3.0898,-3.0898,-4.7055,-4.6548,-4.5918,-4.5514,-4.5185,-4.4377,-4.3947,-4.3858,-4.3514,-4.3305,-4.3305,-4.3305,-4.3305,-4.3305,-4.3305,-4.3305,-4.3305,-4.3305,-4.3305,-4.3305,-4.3305,-4.3305,-4.3305,-4.3305,-4.3305,-4.3305,-4.321,-4.2725,-4.1643,-4.1,-3.9727,-3.8334,-3.7368,-3.679,-3.6499,-3.6417,-3.6417,-3.6417,-3.6417,-3.6417,-3.6417,-3.6417,-3.6417,-3.6417,-3.6417,-3.6417,-3.6417,-3.6417,-3.6417,-3.6417,-3.6417,-3.6417,-3.6417,-3.6417,-3.6417,-3.6417,-3.643,-3.6606,-3.6807,-3.6958,-3.6971,-3.7098,-3.74,-3.7877,-3.8241,-3.8429,-3.8881,-3.9233,-3.9333,-3.9509,-3.9659,-3.9685,-3.9697,-3.9697,-3.9697,-3.9697,-3.9697,-3.9697,-3.9697,-3.9697,-3.9697,-3.9697,-3.9697,-3.9697,-3.9697,-3.9697,-3.9697,-3.9697,-3.9697,-3.9697,-3.9697,-3.9697,-3.9697,-3.9697,-3.9697,-3.9697,-3.9697,-3.9697,-3.8973,-3.8084,-3.7305,-3.6595,-3.5497,-3.5002,-3.3247,-3.1594,-3.1546,-3.145,-3.117,-3.0947,-3.0898,-3.0898,-3.0898,-3.0898,-3.0898,-4.6935,-4.6292,-4.5858,-4.5499,-4.5214,-4.4601,-4.4317,-4.4197,-4.3589,-4.3305,-4.3305,-4.3305,-4.3305,-4.3305,-4.3305,-4.3305,-4.3305,-4.3305,-4.3305,-4.3305,-4.3305,-4.3305,-4.3305,-4.3305,-4.3305,-4.3305,-4.313,-4.2603,-4.0958,-4.0232,-3.9006,-3.7632,-3.6828,-3.6698,-3.6593,-3.6593,-3.6417,-3.6417,-3.6417,-3.6417,-3.6417,-3.6417,-3.6417,-3.6417,-3.6417,-3.6417,-3.6417,-3.6417,-3.6417,-3.6417,-3.6417,-3.6417,-3.6417,-3.6417,-3.6417,-3.6417,-3.6656,-3.6897,-3.7312,-3.7764,-3.7826,-3.7864,-3.814,-3.8454,-3.8856,-3.9045,-3.927,-3.9559,-3.9685,-3.9697,-3.9697,-3.9697,-3.9697,-3.9697,-3.9697,-3.9697,-3.9697,-3.9697,-3.9697,-3.9697,-3.9697,-3.9697,-3.9697,-3.9697,-3.9697,-3.9697,-3.9697,-3.9697,-3.9697,-3.9697,-3.9697,-3.9697,-3.9697,-3.9697,-3.9697,-3.9697,-3.9697,-3.9697,-3.8856,-3.7861,-3.6972,-3.6379,-3.467,-3.3031,-3.2092,-3.1325,-3.1112,-3.0898,-3.0898,-3.0898,-3.0898,-3.0898,-3.0898,-3.0898,-3.0898,-4.6905,-4.6337,-4.6249,-4.5843,-4.5214,-4.4556,-4.4302,-4.4212,-4.3574,-4.3305,-4.3305,-4.3305,-4.3305,-4.3305,-4.3305,-4.3364,-4.3439,-4.3424,-4.3529,-4.3484,-4.3574,-4.3484,-4.3394,-4.3334,-4.3305,-4.3305,-4.3076,-4.2222,-4.0202,-3.9404,-3.8247,-3.7181,-3.6887,-3.6897,-3.6998,-3.6958,-3.6757,-3.6795,-3.6795,-3.6807,-3.6832,-3.6606,-3.6606,-3.6568,-3.648,-3.643,-3.6417,-3.6417,-3.6417,-3.6417,-3.6417,-3.6417,-3.6417,-3.643,-3.6443,-3.6631,-3.7059,-3.745,-3.7977,-3.8454,-3.8705,-3.8693,-3.8831,-3.8969,-3.9095,-3.9333,-3.9546,-3.9647,-3.9697,-3.9697,-3.9697,-3.9697,-3.9697,-3.9697,-3.9697,-3.9697,-3.9697,-3.9697,-3.9697,-3.9697,-3.9697,-3.9697,-3.9697,-3.9697,-3.9697,-3.9697,-3.9697,-3.9697,-3.9697,-3.9697,-3.9697,-3.9697,-3.9697,-3.9697,-3.9697,-3.9697,-3.9697,-3.9697,-3.9141,-3.819,-3.7263,-3.5836,-3.408,-3.2597,-3.1662,-3.1112,-3.0947,-3.0898,-3.0898,-3.0898,-3.0898,-3.0898,-3.0898,-3.0898,-3.0898,-4.6636,-4.5618,-4.5589,-4.52,-4.4616,-4.4392,-4.4062,-4.3574,-4.3349,-4.3305,-4.3305,-4.3305,-4.3319,-4.3305,-4.3305,-4.3589,-4.3883,-4.4107,-4.4407,-4.4392,-4.4182,-4.4077,-4.3898,-4.3633,-4.3409,-4.3364,-4.307,-4.2357,-4.0152,-3.9023,-3.8376,-3.7633,-3.7362,-3.7575,-3.7626,-3.76,-3.755,-3.7487,-3.7462,-3.7374,-3.7287,-3.7098,-3.7023,-3.6945,-3.6694,-3.6619,-3.6568,-3.6543,-3.6543,-3.6493,-3.6455,-3.643,-3.6417,-3.6769,-3.7084,-3.75,-3.7751,-3.8002,-3.8567,-3.8831,-3.907,-3.932,-3.9408,-3.9446,-3.9509,-3.9572,-3.9697,-3.9697,-3.9697,-3.9697,-3.9697,-3.9697,-3.9697,-3.9697,-3.9697,-3.9697,-3.9697,-3.9697,-3.9697,-3.9697,-3.9697,-3.9697,-3.9697,-3.9697,-3.9697,-3.9697,-3.9697,-3.9697,-3.9697,-3.9697,-3.9697,-3.9697,-3.9697,-3.9697,-3.9697,-3.9697,-3.9697,-3.9633,-3.8973,-3.7979,-3.6325,-3.4847,-3.3314,-3.216,-3.1334,-3.1005,-3.0947,-3.0898,-3.0898,-3.0898,-3.0898,-3.0898,-3.0898,-3.0898,-3.0898,-4.6277,-4.5334,-4.5005,-4.4526,-4.3962,-4.3888,-4.3633,-4.3334,-4.3305,-4.3305,-4.3305,-4.3305,-4.3439,-4.3693,-4.3753,-4.4092,-4.4676,-4.4721,-4.4885,-4.493,-4.49,-4.4781,-4.4511,-4.4317,-4.4257,-4.4092,-4.3834,-4.3365,-4.1026,-3.9256,-3.8405,-3.7889,-3.8002,-3.8165,-3.8253,-3.8341,-3.8492,-3.8404,-3.8291,-3.8078,-3.7889,-3.7713,-3.7575,-3.7437,-3.7111,-3.7059,-3.7008,-3.7008,-3.7033,-3.6998,-3.701,-3.7071,-3.7048,-3.7387,-3.7776,-3.8178,-3.8354,-3.8655,-3.9069,-3.9207,-3.9421,-3.9584,-3.9697,-3.9672,-3.9659,-3.9672,-3.9697,-3.9697,-3.9697,-3.9697,-3.9697,-3.9697,-3.9697,-3.9697,-3.9697,-3.9697,-3.9697,-3.9697,-3.9697,-3.9697,-3.9697,-3.9697,-3.9697,-3.9697,-3.9697,-3.9697,-3.9697,-3.9697,-3.9697,-3.9697,-3.9697,-3.9697,-3.9697,-3.9697,-3.9697,-3.9697,-3.9697,-3.9362,-3.8465,-3.7317,-3.5563,-3.408,-3.2815,-3.1883,-3.1064,-3.0898,-3.0908,-3.0898,-3.0898,-3.0918,-3.0947,-3.0947,-3.0928,-3.0898,-3.0898,-4.5888,-4.514,-4.4511,-4.3873,-4.3349,-4.3334,-4.3319,-4.3305,-4.3305,-4.3305,-4.3305,-4.3305,-4.3673,-4.4077,-4.4182,-4.4661,-4.517,-4.5394,-4.5529,-4.5439,-4.5439,-4.5394,-4.5364,-4.5274,-4.493,-4.5125,-4.4712,-4.3544,-4.261,-4.0636,-3.873,-3.8165,-3.8253,-3.8517,-3.8932,-3.8931,-3.9069,-3.9207,-3.8793,-3.8417,-3.8291,-3.8165,-3.8078,-3.8065,-3.7965,-3.7902,-3.7914,-3.7952,-3.8002,-3.7977,-3.7952,-3.7902,-3.8027,-3.8052,-3.8417,-3.873,-3.8919,-3.9145,-3.9421,-3.9546,-3.9597,-3.9672,-3.9697,-3.9697,-3.9697,-3.9697,-3.9697,-3.9697,-3.9697,-3.9697,-3.9697,-3.9697,-3.9697,-3.9697,-3.9697,-3.9697,-3.9697,-3.9697,-3.9697,-3.9697,-3.9697,-3.9697,-3.9697,-3.9697,-3.9697,-3.9697,-3.9697,-3.9697,-3.9697,-3.9697,-3.9697,-3.9697,-3.9697,-3.9697,-3.9697,-3.9697,-3.9697,-3.9193,-3.836,-3.7037,-3.5617,-3.4024,-3.2426,-3.1644,-3.0976,-3.0937,-3.0928,-3.0986,-3.1045,-3.1074,-3.1084,-3.1025,-3.1006,-3.1055,-3.0957,-4.5618,-4.4511,-4.3798,-4.3424,-4.3305,-4.3305,-4.3305,-4.3305,-4.3305,-4.3305,-4.3305,-4.3349,-4.3693,-4.4332,-4.4481,-4.5035,-4.5888,-4.6097,-4.6396,-4.6396,-4.6292,-4.6067,-4.5963,-4.5708,-4.5412,-4.4968,-4.4307,-4.3201,-4.1745,-4.0187,-3.9346,-3.9246,-3.9182,-3.927,-3.9383,-3.9408,-3.9521,-3.9659,-3.9408,-3.9094,-3.9094,-3.8831,-3.8718,-3.853,-3.8404,-3.8178,-3.8128,-3.809,-3.804,-3.799,-3.799,-3.8216,-3.8668,-3.8655,-3.8944,-3.9358,-3.9433,-3.9546,-3.9609,-3.9697,-3.9697,-3.9697,-3.9697,-3.9697,-3.9697,-3.9697,-3.9697,-3.9697,-3.9697,-3.9697,-3.9697,-3.9697,-3.9697,-3.9697,-3.9697,-3.9697,-3.9697,-3.9697,-3.9697,-3.9697,-3.9697,-3.9697,-3.9697,-3.9697,-3.9697,-3.9697,-3.9697,-3.9697,-3.9697,-3.9697,-3.9697,-3.9697,-3.9697,-3.9697,-3.9697,-3.9697,-3.9697,-3.9581,-3.8908,-3.7423,-3.5617,-3.3529,-3.1672,-3.1453,-3.1064,-3.0996,-3.1035,-3.123,-3.1279,-3.1191,-3.1182,-3.1123,-3.1396,-3.1583,-3.1279,-4.5005,-4.4257,-4.3559,-4.3305,-4.3305,-4.3305,-4.3305,-4.3349,-4.3589,-4.3559,-4.3379,-4.3618,-4.4122,-4.4781,-4.505,-4.5618,-4.6606,-4.6756,-4.6905,-4.7025,-4.698,-4.683,-4.6531,-4.6249,-4.5794,-4.5257,-4.4026,-4.2697,-4.1001,-4.0627,-4.0297,-3.9814,-3.9697,-3.9697,-3.9697,-3.9697,-3.9697,-3.9697,-3.9697,-3.9697,-3.9697,-3.9396,-3.9233,-3.9082,-3.8956,-3.8718,-3.8755,-3.8755,-3.8768,-3.8768,-3.8831,-3.8906,-3.9182,-3.922,-3.9371,-3.9572,-3.9659,-3.9697,-3.9697,-3.9697,-3.9697,-3.9697,-3.9697,-3.9697,-3.9697,-3.9697,-3.9697,-3.9697,-3.9697,-3.9697,-3.9697,-3.9697,-3.9697,-3.9697,-3.9697,-3.9697,-3.9697,-3.9697,-3.9697,-3.9697,-3.9697,-3.9697,-3.9697,-3.9697,-3.9697,-3.9697,-3.9697,-3.9697,-3.9697,-3.9697,-3.9697,-3.9697,-3.9697,-3.9697,-3.9697,-3.9697,-3.9697,-3.953,-3.9349,-3.7037,-3.4847,-3.2597,-3.0976,-3.0996,-3.1025,-3.1006,-3.1094,-3.125,-3.1211,-3.1064,-3.1123,-3.1211,-3.1553,-3.1867,-3.1455,-4.4287,-4.4067,-4.3529,-4.3305,-4.3319,-4.3409,-4.3379,-4.3409,-4.3962,-4.3947,-4.3618,-4.4182,-4.4781,-4.5349,-4.6007,-4.6681,-4.7085,-4.71,-4.7264,-4.7294,-4.7264,-4.7145,-4.716,-4.7131,-4.6168,-4.4917,-4.3612,-4.2355,-4.1015,-4.0754,-4.0325,-3.9826,-3.9697,-3.9697,-3.9697,-3.9697,-3.9697,-3.9697,-3.9697,-3.9697,-3.9697,-3.9697,-3.9647,-3.9659,-3.9697,-3.9697,-3.9685,-3.9672,-3.9672,-3.9622,-3.9509,-3.9521,-3.9546,-3.9559,-3.9597,-3.9697,-3.9697,-3.9697,-3.9697,-3.9697,-3.9697,-3.9697,-3.9697,-3.9697,-3.9697,-3.9697,-3.9697,-3.9697,-3.9697,-3.9697,-3.9697,-3.9697,-3.9697,-3.9697,-3.9697,-3.9697,-3.9697,-3.9697,-3.9697,-3.9697,-3.9697,-3.9697,-3.9697,-3.9697,-3.9697,-3.9697,-3.9697,-3.9697,-3.9697,-3.9697,-3.9697,-3.9697,-3.9697,-3.9697,-3.9697,-3.9697,-3.9697,-3.9581,-3.9025,-3.6487,-3.4292,-3.2815,-3.1614,-3.0918,-3.0947,-3.1035,-3.1035,-3.1123,-3.1035,-3.1025,-3.1182,-3.1357,-3.1553,-3.1709,-3.1435,-4.3962,-4.3469,-4.3334,-4.3305,-4.3364,-4.3898,-4.3798,-4.3439,-4.4062,-4.4227,-4.4291,-4.4781,-4.5229,-4.5334,-4.6007,-4.6623,-4.7219,-4.7309,-4.7309,-4.7309,-4.7309,-4.7309,-4.7121,-4.6682,-4.5734,-4.4256,-4.2689,-4.1319,-4.0605,-4.0275,-4.0032,-3.9697,-3.9697,-3.9697,-3.9697,-3.9697,-3.9697,-3.9697,-3.9697,-3.9697,-3.9697,-3.9697,-3.9697,-3.9697,-3.9697,-3.9697,-3.9697,-3.9697,-3.9697,-3.9697,-3.9697,-3.9697,-3.9697,-3.9697,-3.9697,-3.9697,-3.9697,-3.9697,-3.9697,-3.9697,-3.9697,-3.9697,-3.9697,-3.9697,-3.9697,-3.9697,-3.9697,-3.9697,-3.9697,-3.9697,-3.9697,-3.9697,-3.9697,-3.9697,-3.9697,-3.9697,-3.9697,-3.9697,-3.9697,-3.9697,-3.9697,-3.9697,-3.9697,-3.9697,-3.9697,-3.9697,-3.9697,-3.9697,-3.9697,-3.9697,-3.9697,-3.9697,-3.9697,-3.9697,-3.9697,-3.9697,-3.9697,-3.9581,-3.8921,-3.6715,-3.4958,-3.3733,-3.2644,-3.1286,-3.1055,-3.1201,-3.1182,-3.1025,-3.1172,-3.1221,-3.1367,-3.1523,-3.165,-3.1621,-3.1367]},{"header":{"parameterUnit":"m.s-1","parameterCategory":1,"la1":31.0,"la2":29.5877,"lo1":-88.7671,"lo2":-86.6584,"dy":0.0162,"dx":0.0185,"nx":115,"ny":88,"refTime":"2024-04-09T06:00:00:Z","depth":0,"parameterNumber":3,"parameterNumberName":"V-component_of_WINDS"},"data":[0.0,0.0,0.0,0.0,0.0,0.0,0.0,0.0,0.0,0.0,0.0,0.0,0.0,0.0,0.0,0.0,0.0,0.0,0.0,0.0,0.0,0.0,0.0,0.0,0.0,0.0,0.0,0.0,0.0,0.0,0.0,0.0,0.0,0.0,0.0,0.0,0.0,0.0,0.0,0.0,0.0,0.0,0.0,0.0,0.0,0.0,0.0,0.0,0.0,0.0,0.0,0.0,0.0,0.0,0.0,0.0,0.0,0.0,0.0,0.0,0.0,0.0,0.0,0.0,0.0,0.0,0.0,0.0,0.0,0.0,0.0,0.0,0.0,0.0,0.0,0.0,0.0,0.0,0.0,0.0,0.0,0.0,0.0,0.0,0.0,0.0,0.0,0.0,0.0,0.0,0.0,0.0,0.0,0.0,0.0,0.0,0.0,0.0,0.0,0.0,0.0,0.0,0.0,0.0,0.0,0.0,0.0,0.0,0.0,0.0,0.0,0.0,0.0,0.0,0.0,0.0,0.0,0.0,0.0,0.0,0.0,0.0,0.0,0.0,0.0,0.0,0.0,0.0,0.0,0.0,0.0,0.0,0.0,0.0,0.0,0.0,0.0,0.0,0.0,0.0,0.0,0.0,0.0,0.0,0.0,0.0,0.0,0.0,0.0,0.0,0.0,0.0,0.0,0.0,0.0,0.0,0.0,0.0,0.0,0.0,0.0,0.0,0.0,0.0,0.0,0.0,0.0,0.0,0.0,0.0,0.0,0.0,0.0,0.0,0.0,0.0,0.0,0.0,0.0,0.0,0.0,0.0,0.0,0.0,0.0,0.0,0.0,0.0,0.0,0.0,0.0,0.0,0.0,0.0,0.0,0.0,0.0,0.0,0.0,0.0,0.0,0.0,0.0,0.0,0.0,0.0,0.0,0.0,0.0,0.0,0.0,0.0,0.0,0.0,0.0,0.0,0.0,0.0,0.0,0.0,0.0,0.0,0.0,0.0,0.0,0.0,0.0,0.0,0.0,0.0,0.0,0.0,0.0,0.0,0.0,0.0,0.0,0.0,0.0,0.0,0.0,0.0,0.0,0.0,0.0,0.0,0.0,0.0,0.0,0.0,0.0,0.0,0.0,0.0,0.0,0.0,0.0,0.0,0.0,0.0,0.0,0.0,0.0,0.0,0.0,0.0,0.0,0.0,0.0,0.0,0.0,0.0,0.0,0.0,0.0,0.0,0.0,0.0,0.0,0.0,0.0,0.0,0.0,0.0,0.0,0.0,0.0,0.0,0.0,0.0,0.0,0.0,0.0,0.0,0.0,0.0,0.0,0.0,0.0,0.0,0.0,0.0,0.0,0.0,0.0,0.0,0.0,0.0,0.0,0.0,0.0,0.0,0.0,0.0,0.0,0.0,0.0,0.0,0.0,0.0,0.0,0.0,0.0,0.0,0.0,0.0,0.0,0.0,0.0,0.0,0.0,0.0,0.0,0.0,0.0,0.0,0.0,0.0,0.0,0.0,0.0,0.0,0.0,0.0,0.0,0.0,0.0,0.0,0.0,0.0,0.0,0.0,0.0,0.0,0.0,0.0,0.0,0.0,0.0,0.0,0.0,0.0,0.0,0.0,0.0,0.0,0.0,0.0,0.0,0.0,0.0,0.0,0.0,0.0,0.0,0.0,0.0,0.0,0.0,0.0,0.0,0.0,0.0,0.0,0.0,0.0,0.0,0.0,0.0,0.0,0.0,0.0,0.0,0.0,0.0,0.0,0.0,0.0,0.0,0.0,0.0,0.0,0.0,0.0,0.0,0.0,0.0,0.0,0.0,0.0,0.0,0.0,0.0,0.0,0.0,0.0,0.0,0.0,0.0,0.0,0.0,0.0,0.0,0.0,0.0,0.0,0.0,0.0,0.0,0.0,0.0,0.0,0.0,0.0,0.0,0.0,0.0,0.0,0.0,0.0,0.0,0.0,0.0,0.0,0.0,0.0,0.0,0.0,0.0,0.0,0.0,0.0,0.0,0.0,0.0,0.0,0.0,0.0,0.0,0.0,0.0,0.0,0.0,0.0,0.0,0.0,0.0,0.0,0.0,0.0,0.0,0.0,0.0,0.0,0.0,0.0,0.0,0.0,0.0,0.0,0.0,0.0,0.0,0.0,0.0,0.0,0.0,0.0,0.0,0.0,0.0,0.0,0.0,0.0,0.0,0.0,0.0,0.0,0.0,0.0,0.0,0.0,0.0,0.0,0.0,0.0,0.0,0.0,0.0,0.0,0.0,0.0,0.0,0.0,0.0,0.0,0.0,0.0,0.0,0.0,0.0,0.0,0.0,0.0,0.0,0.0,0.0,0.0,0.0,0.0,0.0,0.0,0.0,0.0,0.0,0.0,0.0,0.0,0.0,0.0,0.0,0.0,0.0,0.0,0.0,0.0,0.0,0.0,0.0,0.0,0.0,0.0,0.0,0.0,0.0,0.0,0.0,0.0,0.0,0.0,0.0,0.0,0.0,0.0,0.0,0.0,0.0,0.0,0.0,0.0,0.0,0.0,0.0,0.0,0.0,0.0,0.0,0.0,0.0,0.0,0.0,0.0,0.0,0.0,0.0,0.0,0.0,0.0,0.0,0.0,0.0,0.0,0.0,0.0,0.0,0.0,0.0,0.0,0.0,0.0,0.0,0.0,0.0,0.0,0.0,0.0,0.0,0.0,0.0,0.0,0.0,0.0,0.0,0.0,0.0,0.0,0.0,0.0,0.0,0.0,0.0,0.0,0.0,0.0,0.0,0.0,0.0,0.0,0.0,0.0,0.0,0.0,0.0,0.0,0.0,0.0,0.0,0.0,0.0,0.0,0.0,0.0,0.0,0.0,0.0,0.0,0.0,0.0,0.0,0.0,0.0,0.0,0.0,0.0,0.0,0.0,0.0,0.0,0.0,0.0,0.0,0.0,0.0,0.0,0.0,0.0,0.0,0.0,0.0,0.0,0.0,0.0,0.0,0.0,0.0,0.0,0.0,0.0,0.0,0.0,0.0,0.0,0.0,0.0,0.0,0.0,0.0,0.0,0.0,0.0,0.0,0.0,0.0,0.0,0.0,0.0,0.0,0.0,0.0,0.0,0.0,0.0,0.0,0.0,0.0,0.0,0.0,0.0,0.0,0.0,0.0,0.0,0.0,0.0,0.0,0.0,0.0,0.0,0.0,0.0,0.0,0.0,0.0,0.0,0.0,0.0,0.0,0.0,0.0,0.0,0.0,0.0,0.0,0.0,0.0,0.0,0.0,0.0,0.0,0.0,0.0,0.0,0.0,0.0,0.0,0.0,0.0,0.0,0.0,0.0,0.0,0.0,0.0,0.0,0.0,0.0,0.0,0.0,0.0,0.0,0.0,0.0,0.0,0.0,0.0,0.0,0.0,0.0,0.0,0.0,0.0,0.0,0.0,0.0,0.0,0.0,0.0,0.0,0.0,0.0,0.0,0.0,0.0,0.0,0.0,0.0,0.0,0.0,0.0,0.0,0.0,0.0,0.0,0.0,0.0,0.0,0.0,0.0,0.0,0.0,0.0,0.0,0.0,0.0,0.0,0.0,0.0,0.0,0.0,0.0,0.0,0.0,0.0,0.0,0.0,0.0,0.0,0.0,0.0,0.0,0.0,0.0,0.0,0.0,0.0,0.0,0.0,0.0,0.0,0.0,0.0,0.0,0.0,0.0,0.0,0.0,0.0,0.0,0.0,0.0,0.0,0.0,0.0,0.0,0.0,0.0,0.0,0.0,0.0,0.0,0.0,0.0,0.0,0.0,0.0,0.0,0.0,0.0,0.0,0.0,0.0,0.0,0.0,0.0,0.0,0.0,0.0,0.0,0.0,0.0,0.0,0.0,0.0,0.0,0.0,0.0,0.0,0.0,0.0,0.0,0.0,0.0,0.0,0.0,0.0,0.0,0.0,0.0,0.0,0.0,0.0,0.0,0.0,0.0,0.0,0.0,0.0,0.0,0.0,0.0,0.0,0.0,0.0,0.0,0.0,0.0,0.0,0.0,0.0,0.0,0.0,0.0,0.0,0.0,0.0,0.0,0.0,0.0,0.0,0.0,0.0,0.0,0.0,0.0,0.0,0.0,0.0,0.0,0.0,0.0,0.0,0.0,0.0,0.0,0.0,0.0,0.0,0.0,0.0,0.0,0.0,0.0,0.0,0.0,0.0,0.0,0.0,0.0,0.0,0.0,0.0,0.0,0.0,0.0,0.0,0.0,0.0,0.0,0.0,0.0,0.0,0.0,0.0,0.0,0.0,0.0,1.2305,0.0,0.0,0.0,0.0,0.0,0.0,0.0,0.0,0.0,0.0,0.0,0.0,0.0,0.0,0.0,0.0,0.0,0.0,0.0,0.0,0.0,0.0,0.0,0.0,0.0,0.0,0.0,0.0,0.0,0.0,0.0,0.0,0.0,0.0,0.0,0.0,0.0,0.0,0.0,0.0,0.0,0.0,0.0,0.0,0.0,0.0,0.0,0.0,0.0,0.0,0.0,0.0,0.0,0.0,0.0,0.0,0.0,0.0,0.0,0.0,0.0,0.0,0.0,0.0,0.0,0.0,0.0,0.0,0.0,0.0,0.0,0.0,0.0,0.0,0.0,0.0,0.0,0.0,0.0,0.0,0.0,0.0,0.0,0.0,0.0,0.0,0.0,0.0,0.0,0.0,0.0,0.0,0.0,0.0,0.0,0.0,0.0,0.0,0.0,0.0,0.0,0.0,0.0,0.0,0.0,0.0,0.0,0.0,0.0,0.0,1.2305,1.2305,1.2305,1.2305,1.2305,0.0,0.0,0.0,0.0,0.0,0.0,0.0,0.0,0.0,0.0,0.0,0.0,0.0,0.0,0.0,0.0,0.0,0.0,0.0,0.0,0.0,0.0,0.0,0.0,0.0,0.0,0.0,0.0,0.0,0.0,0.0,0.0,0.0,0.0,0.0,0.0,0.0,0.0,0.0,0.0,0.0,0.0,0.0,0.0,0.0,0.0,0.0,0.0,0.0,0.0,0.0,0.0,0.0,0.0,0.0,0.0,0.0,0.0,0.0,0.0,0.0,0.0,0.0,0.0,0.0,0.0,0.0,0.0,0.0,0.0,0.0,0.0,0.0,0.0,0.0,0.0,0.0,0.0,0.0,0.0,0.0,0.0,0.0,0.0,0.0,0.0,0.0,0.0,0.0,0.0,0.0,0.0,0.0,0.0,0.0,0.0,0.0,0.0,0.0,0.0,0.0,0.0,0.0,0.0,0.0,0.0,0.0,0.0,0.0,0.0,0.0,0.0,1.2305,1.2305,1.2305,0.0,0.0,0.0,0.0,0.0,0.0,0.0,0.0,0.0,0.0,0.0,0.0,0.0,0.0,0.0,0.0,0.0,0.0,0.0,0.0,0.0,0.0,0.0,0.0,0.0,0.0,0.0,0.0,0.0,0.0,0.0,0.0,0.0,0.0,0.0,0.0,0.0,0.0,0.0,0.0,0.0,0.0,0.0,0.0,0.0,0.0,0.0,0.0,0.0,0.0,0.0,0.0,0.0,0.0,0.0,0.0,0.0,0.0,0.0,0.0,0.0,0.0,0.0,0.0,0.0,0.0,0.0,0.0,0.0,0.0,0.0,0.0,0.0,0.0,0.0,0.0,0.0,0.0,0.0,0.0,0.0,0.0,0.0,0.0,0.0,0.0,0.0,0.0,0.0,0.0,0.0,0.0,0.0,0.0,0.0,0.0,0.0,0.0,0.0,0.0,0.0,0.0,0.0,0.0,0.0,0.0,0.0,0.0,0.0,0.0,1.2305,1.2305,1.2305,0.0,1.2305,0.0,0.0,0.0,0.0,0.0,0.0,0.0,0.0,0.0,0.0,0.0,0.0,0.0,0.0,0.0,0.0,0.0,0.0,0.0,0.0,0.0,0.0,0.0,0.0,0.0,0.0,0.0,0.0,0.0,0.0,0.0,0.0,0.0,0.0,0.0,0.0,0.0,0.0,0.0,0.0,0.0,0.0,0.0,0.0,0.0,0.0,0.0,0.0,0.0,0.0,0.0,0.0,0.0,0.0,0.0,0.0,0.0,0.0,0.0,0.0,0.0,0.0,0.0,0.0,0.0,0.0,0.0,0.0,0.0,0.0,0.0,0.0,0.0,0.0,0.0,0.0,0.0,0.0,0.0,0.0,0.0,0.0,0.0,0.0,0.0,0.0,0.0,0.0,0.0,0.0,0.0,0.0,0.0,0.0,0.0,0.0,0.0,0.0,0.0,0.0,0.0,0.0,0.0,0.0,0.0,0.0,0.0,0.0,0.0,0.0,1.2305,1.2305,1.2305,1.2305,0.0,0.0,0.0,0.0,0.0,0.0,0.0,0.0,0.0,0.0,0.0,0.0,0.0,0.0,0.0,0.0,0.0,0.0,0.0,0.0,0.0,0.0,0.0,0.0,0.0,0.0,0.0,0.0,0.0,0.0,0.0,0.0,0.0,0.0,0.0,0.0,0.0,0.0,0.0,0.0,0.0,0.0,0.0,0.0,0.0,0.0,0.0,0.0,0.0,0.0,0.0,0.0,0.0,0.0,0.0,0.0,0.0,0.0,0.0,0.0,0.0,0.0,0.0,0.0,0.0,0.0,0.0,0.0,0.0,0.0,0.0,0.0,0.0,0.0,0.0,0.0,0.0,0.0,0.0,0.0,0.0,0.0,0.0,0.0,0.0,0.0,0.0,0.0,0.0,0.0,0.0,0.0,0.0,0.0,0.0,0.0,0.0,0.0,0.0,0.0,0.0,0.0,0.0,0.0,0.0,0.0,0.0,0.0,0.0,0.0,1.2305,1.2305,1.2305,1.2305,1.2305,1.2305,0.0,0.0,0.0,0.0,0.0,0.0,0.0,0.0,0.0,0.0,0.0,0.0,0.0,0.0,0.0,0.0,0.0,0.0,0.0,0.0,0.0,0.0,0.0,0.0,0.0,0.0,0.0,0.0,0.0,0.0,0.0,0.0,0.0,0.0,0.0,0.0,0.0,0.0,0.0,0.0,0.0,0.0,0.0,0.0,0.0,0.0,0.0,0.0,0.0,0.0,0.0,0.0,0.0,0.0,0.0,0.0,0.0,0.0,0.0,0.0,0.0,0.0,0.0,0.0,0.0,0.0,0.0,0.0,0.0,0.0,0.0,0.0,0.0,0.0,0.0,0.0,0.0,0.0,0.0,0.0,0.0,0.0,0.0,0.0,0.0,0.0,0.0,0.0,0.0,0.0,0.0,0.0,0.0,0.0,0.0,0.0,0.0,0.0,0.0,0.0,0.0,0.0,0.0,0.0,0.0,0.0,0.0,0.0,1.2305,1.2305,1.2305,1.2305,1.2305,1.2305,0.0,0.0,0.0,0.0,0.0,0.0,0.0,0.0,0.0,0.0,0.0,0.0,0.0,0.0,0.0,0.0,0.0,0.0,0.0,0.0,0.0,0.0,0.0,0.0,0.0,0.0,0.0,0.0,0.0,0.0,0.0,0.0,0.0,0.0,0.0,0.0,0.0,0.0,0.0,0.0,0.0,0.0,0.0,0.0,0.0,0.0,0.0,0.0,0.0,0.0,0.0,0.0,0.0,0.0,0.0,0.0,0.0,0.0,0.0,0.0,0.0,0.0,0.0,0.0,0.0,0.0,0.0,0.0,0.0,0.0,0.0,0.0,0.0,0.0,0.0,0.0,0.0,0.0,0.0,0.0,0.0,0.0,0.0,0.0,0.0,0.0,0.0,0.0,0.0,0.0,0.0,0.0,0.0,0.0,0.0,0.0,0.0,0.0,0.0,0.0,0.0,0.0,0.0,0.0,0.0,0.0,0.0,0.0,0.0,1.2305,1.2305,1.2305,1.2305,1.2305,1.2305,0.0,0.0,0.0,0.0,0.0,0.0,0.0,0.0,0.0,0.0,0.0,0.0,0.0,0.0,0.0,0.0,0.0,0.0,0.0,0.0,0.0,0.0,0.0,0.0,0.0,0.0,0.0,0.0,0.0,0.0,0.0,0.0,0.0,0.0,0.0,0.0,0.0,0.0,0.0,0.0,0.0,0.0,0.0,0.0,0.0,0.0,0.0,0.0,0.0,0.0,0.0,0.0,0.0,0.0,0.0,0.0,0.0,0.0,0.0,0.0,0.0,0.0,0.0,0.0,0.0,0.0,0.0,0.0,0.0,0.0,0.0,0.0,0.0,0.0,0.0,0.0,0.0,0.0,0.0,0.0,0.0,0.0,0.0,0.0,0.0,0.0,0.0,0.0,0.0,0.0,0.0,0.0,0.0,0.0,0.0,0.0,0.0,0.0,0.0,0.0,0.0,0.0,0.0,0.0,0.0,0.0,0.0,0.0,0.0,1.2305,0.0,1.2305,1.2305,1.2305,1.2305,0.0,0.0,0.0,0.0,0.0,0.0,0.0,0.0,0.0,0.0,0.0,0.0,0.0,0.0,0.0,0.0,0.0,0.0,0.0,0.0,0.0,0.0,0.0,0.0,0.0,0.0,0.0,0.0,0.0,0.0,0.0,0.0,0.0,0.0,0.0,0.0,0.0,0.0,0.0,0.0,0.0,0.0,0.0,0.0,0.0,0.0,0.0,0.0,0.0,0.0,0.0,0.0,0.0,0.0,0.0,0.0,0.0,0.0,0.0,0.0,0.0,0.0,0.0,0.0,0.0,0.0,0.0,0.0,0.0,0.0,0.0,0.0,0.0,0.0,0.0,0.0,0.0,0.0,0.0,0.0,0.0,0.0,0.0,0.0,0.0,0.0,0.0,0.0,0.0,0.0,0.0,0.0,0.0,0.0,0.0,0.0,0.0,0.0,0.0,0.0,0.0,0.0,0.0,0.0,0.0,0.0,0.0,0.0,1.2318,1.2311,1.2325,1.2351,1.2318,1.2325,1.2318,0.0,0.0,0.0,0.0,0.0,0.0,0.0,0.0,0.0,0.0,0.0,0.0,0.0,0.0,0.0,0.0,0.0,0.0,0.0,0.0,0.0,0.0,0.0,0.0,0.0,0.0,0.0,0.0,0.0,0.0,0.0,0.0,0.0,0.0,0.0,0.0,0.0,0.0,0.0,0.0,0.0,0.0,0.0,0.0,0.0,0.0,0.0,0.0,0.0,0.0,0.0,0.0,0.0,0.0,0.0,0.0,0.0,0.0,0.0,0.0,0.0,0.0,0.0,0.0,0.0,0.0,0.0,0.0,0.0,0.0,0.0,0.0,0.0,0.0,0.0,0.0,0.0,0.0,0.0,0.0,0.0,0.0,0.0,0.0,0.0,0.0,0.0,0.0,0.0,0.0,0.0,0.0,0.0,0.0,0.0,0.0,0.0,0.0,0.0,0.0,0.0,0.0,0.0,0.0,0.0,0.0,0.0,0.0,0.0,1.2801,1.2997,1.3067,1.2919,1.2726,1.265,0.0,0.0,0.0,0.0,0.0,0.0,0.0,0.0,0.0,0.0,0.0,0.0,0.0,0.0,0.0,0.0,0.0,0.0,0.0,0.0,0.0,0.0,0.0,0.0,0.0,0.0,0.0,0.0,0.0,0.0,0.0,0.0,0.0,0.0,0.0,0.0,0.0,0.0,0.0,0.0,0.0,0.0,0.0,0.0,0.0,0.0,0.0,0.0,0.0,0.0,0.0,0.0,0.0,0.0,0.0,0.0,0.0,0.0,0.0,0.0,0.0,0.0,0.0,0.0,0.0,0.0,0.0,0.0,0.0,0.0,0.0,0.0,0.0,0.0,0.0,0.0,0.0,0.0,0.0,0.0,0.0,0.0,0.0,0.0,0.0,0.0,0.0,0.0,0.0,0.0,0.0,0.0,0.0,0.0,0.0,0.0,0.0,0.0,0.0,0.0,0.0,0.0,0.0,0.0,0.0,0.0,0.0,0.0,0.0,1.3912,1.3744,1.3593,1.3327,1.318,1.3012,1.2867,0.0,0.0,0.0,0.0,0.0,0.0,0.0,0.0,0.0,0.0,0.0,0.0,0.0,0.0,0.0,0.0,0.0,0.0,0.0,0.0,0.0,0.0,0.0,0.0,0.0,0.0,0.0,0.0,0.0,0.0,0.0,0.0,0.0,0.0,0.0,0.0,0.0,0.0,0.0,0.0,0.0,0.0,0.0,0.0,0.0,0.0,0.0,0.0,0.0,0.0,0.0,0.0,0.0,0.0,0.0,0.0,0.0,0.0,0.0,0.0,0.0,0.0,0.0,0.0,0.0,0.0,0.0,0.0,0.0,0.0,0.0,0.0,0.0,0.0,0.0,0.0,0.0,0.0,0.0,0.0,0.0,0.0,0.0,0.0,0.0,0.0,0.0,0.0,0.0,0.0,0.0,0.0,0.0,0.0,0.0,0.0,0.0,0.0,0.0,0.0,0.0,0.0,0.0,0.0,0.0,0.0,0.0,0.0,1.5604,1.4757,1.4138,1.368,1.3687,1.3467,0.0,0.0,0.0,0.0,0.0,0.0,0.0,0.0,0.0,0.0,0.0,0.0,0.0,0.0,0.0,0.0,0.0,0.0,0.0,0.0,0.0,0.0,0.0,0.0,0.0,0.0,0.0,0.0,0.0,0.0,0.0,0.0,0.0,0.0,0.0,0.0,0.0,0.0,0.0,0.0,0.0,0.0,0.0,0.0,0.0,0.0,0.0,0.0,0.0,0.0,0.0,0.0,0.0,0.0,0.0,0.0,0.0,0.0,0.0,0.0,0.0,0.0,0.0,0.0,0.0,0.0,0.0,0.0,0.0,0.0,0.0,0.0,0.0,0.0,0.0,0.0,0.0,0.0,0.0,0.0,0.0,0.0,0.0,0.0,0.0,0.0,0.0,0.0,0.0,0.0,0.0,0.0,0.0,0.0,0.0,0.0,0.0,0.0,0.0,0.0,0.0,0.0,0.0,0.0,0.0,0.0,0.0,0.0,0.0,1.7896,1.7973,1.6911,1.4747,1.4352,1.4028,0.0,0.0,0.0,0.0,0.0,0.0,0.0,0.0,0.0,0.0,0.0,0.0,0.0,0.0,0.0,0.0,0.0,0.0,0.0,0.0,0.0,0.0,0.0,0.0,0.0,0.0,0.0,0.0,0.0,0.0,0.0,0.0,0.0,0.0,0.0,0.0,0.0,0.0,0.0,0.0,0.0,0.0,0.0,0.0,0.0,0.0,0.0,0.0,0.0,0.0,0.0,0.0,0.0,0.0,0.0,0.0,0.0,0.0,0.0,0.0,0.0,0.0,0.0,0.0,0.0,0.0,0.0,0.0,0.0,0.0,0.0,0.0,0.0,0.0,0.0,0.0,0.0,0.0,0.0,0.0,0.0,0.0,0.0,0.0,0.0,0.0,0.0,0.0,0.0,0.0,0.0,0.0,0.0,0.0,0.0,0.0,0.0,0.0,0.0,0.0,0.0,0.0,0.0,0.0,0.0,0.0,0.0,0.0,1.9118,1.9194,1.9859,1.9137,1.6928,1.6213,1.5612,0.0,0.0,0.0,0.0,0.0,0.0,0.0,0.0,0.0,0.0,0.0,0.0,0.0,0.0,0.0,0.0,0.0,0.0,0.0,0.0,0.0,0.0,0.0,0.0,0.0,0.0,0.0,0.0,0.0,0.0,0.0,0.0,0.0,0.0,0.0,0.0,0.0,0.0,0.0,0.0,0.0,0.0,0.0,0.0,0.0,0.0,0.0,0.0,0.0,0.0,0.0,0.0,0.0,0.0,0.0,0.0,0.0,0.0,0.0,0.0,0.0,0.0,0.0,0.0,0.0,0.0,0.0,0.0,0.0,0.0,0.0,0.0,0.0,0.0,0.0,0.0,0.0,0.0,0.0,0.0,0.0,0.0,0.0,0.0,0.0,0.0,0.0,0.0,0.0,0.0,0.0,0.0,0.0,0.0,0.0,0.0,0.0,0.0,0.0,0.0,0.0,0.0,0.0,0.0,0.0,0.0,0.0,0.0,2.0476,2.0,2.0971,2.098,1.9881,1.8583,1.76,0.0,0.0,0.0,0.0,0.0,0.0,0.0,0.0,0.0,0.0,0.0,0.0,0.0,0.0,0.0,0.0,0.0,0.0,0.0,0.0,0.0,0.0,0.0,0.0,0.0,0.0,0.0,0.0,0.0,0.0,0.0,0.0,0.0,0.0,0.0,0.0,0.0,0.0,0.0,0.0,0.0,0.0,0.0,0.0,0.0,0.0,0.0,0.0,0.0,0.0,0.0,0.0,0.0,0.0,0.0,0.0,0.0,0.0,0.0,0.0,0.0,0.0,0.0,0.0,0.0,0.0,0.0,0.0,0.0,0.0,0.0,0.0,0.0,0.0,0.0,0.0,0.0,0.0,0.0,0.0,0.0,0.0,0.0,0.0,0.0,0.0,0.0,0.0,0.0,0.0,0.0,0.0,0.0,0.0,0.0,0.0,0.0,0.0,0.0,0.0,0.0,0.0,0.0,0.0,0.0,0.0,0.0,0.0,2.1413,2.1654,2.2345,2.2589,2.2315,1.9713,1.7996,0.0,0.0,0.0,0.0,0.0,0.0,0.0,0.0,0.0,0.0,0.0,0.0,0.0,0.0,0.0,0.0,0.0,0.0,0.0,0.0,0.0,0.0,0.0,0.0,0.0,0.0,0.0,0.0,0.0,0.0,0.0,0.0,0.0,0.0,0.0,0.0,0.0,0.0,0.0,0.0,0.0,0.0,0.0,0.0,0.0,0.0,0.0,0.0,2.2015,0.0,0.0,0.0,0.0,0.0,0.0,0.0,0.0,0.0,0.0,0.0,0.0,0.0,0.0,0.0,0.0,0.0,0.0,0.0,0.0,0.0,0.0,0.0,0.0,0.0,0.0,0.0,0.0,0.0,0.0,0.0,0.0,0.0,0.0,0.0,0.0,0.0,0.0,0.0,0.0,0.0,0.0,0.0,0.0,0.0,0.0,0.0,0.0,0.0,0.0,0.0,0.0,0.0,0.0,0.0,0.0,0.0,0.0,0.0,2.2336,2.2765,2.3198,2.3305,2.3038,2.1185,1.9812,0.0,0.0,0.0,0.0,0.0,0.0,0.0,0.0,0.0,0.0,0.0,0.0,0.0,0.0,0.0,0.0,0.0,0.0,0.0,0.0,0.0,0.0,0.0,0.0,0.0,0.0,0.0,0.0,0.0,0.0,0.0,0.0,0.0,0.0,0.0,0.0,0.0,0.0,0.0,0.0,0.0,0.0,0.0,0.0,0.0,0.0,0.0,0.0,0.0,0.0,0.0,0.0,0.0,0.0,0.0,0.0,0.0,0.0,0.0,0.0,0.0,0.0,0.0,0.0,0.0,0.0,0.0,0.0,0.0,0.0,0.0,0.0,0.0,0.0,0.0,0.0,0.0,0.0,0.0,0.0,0.0,0.0,0.0,0.0,0.0,0.0,0.0,0.0,0.0,0.0,0.0,0.0,0.0,0.0,0.0,0.0,0.0,0.0,0.0,0.0,0.0,0.0,0.0,0.0,0.0,0.0,0.0,2.2387,2.3092,2.3532,2.3728,2.3613,2.3208,2.2601,2.1745,2.0755,0.0,0.0,0.0,0.0,0.0,0.0,0.0,0.0,0.0,0.0,0.0,0.0,0.0,0.0,0.0,0.0,0.0,0.0,0.0,0.0,0.0,0.0,0.0,0.0,0.0,0.0,0.0,0.0,0.0,0.0,0.0,0.0,0.0,0.0,0.0,0.0,0.0,0.0,1.8604,1.9977,0.0,0.0,0.0,0.0,0.0,0.0,0.0,0.0,2.3642,0.0,0.0,0.0,0.0,0.0,0.0,0.0,0.0,0.0,0.0,0.0,0.0,0.0,0.0,0.0,0.0,0.0,0.0,0.0,0.0,0.0,0.0,0.0,0.0,0.0,0.0,0.0,0.0,0.0,0.0,0.0,0.0,0.0,0.0,0.0,0.0,0.0,0.0,0.0,0.0,0.0,0.0,0.0,0.0,0.0,0.0,0.0,0.0,0.0,0.0,0.0,0.0,0.0,0.0,0.0,0.0,2.2059,2.2884,2.3615,2.4205,2.3965,2.375,2.3672,2.2877,2.2084,2.131,0.0,0.0,0.0,0.0,0.0,0.0,0.0,0.0,0.0,0.0,0.0,0.0,0.0,0.0,0.0,0.0,0.0,0.0,0.0,0.0,0.0,0.0,0.0,0.0,0.0,0.0,0.0,0.0,0.0,0.0,0.0,0.0,0.0,0.0,0.0,0.0,0.0,0.0,0.0,2.1704,2.2592,0.0,0.0,0.0,0.0,0.0,0.0,0.0,0.0,2.5384,0.0,0.0,0.0,0.0,0.0,0.0,0.0,0.0,0.0,0.0,0.0,0.0,0.0,0.0,0.0,0.0,0.0,0.0,0.0,0.0,0.0,0.0,0.0,0.0,0.0,0.0,0.0,0.0,0.0,0.0,0.0,0.0,0.0,0.0,0.0,0.0,0.0,0.0,0.0,0.0,0.0,0.0,0.0,0.0,0.0,0.0,0.0,0.0,0.0,0.0,0.0,0.0,0.0,0.0,0.0,2.2867,2.3564,2.4178,2.4736,2.4551,2.4346,2.4111,2.3506,2.2785,0.0,0.0,0.0,0.0,0.0,0.0,0.0,0.0,0.0,0.0,0.0,0.0,0.0,0.0,0.0,0.0,0.0,0.0,0.0,0.0,0.0,0.0,0.0,0.0,0.0,0.0,0.0,0.0,0.0,0.0,0.0,0.0,0.0,0.0,0.0,0.0,0.0,0.0,0.0,0.0,2.2969,2.3994,2.5397,0.0,0.0,0.0,0.0,0.0,0.0,2.6627,2.6299,0.0,0.0,0.0,0.0,0.0,0.0,0.0,0.0,0.0,0.0,0.0,0.0,0.0,0.0,0.0,0.0,0.0,0.0,0.0,0.0,0.0,0.0,0.0,0.0,0.0,0.0,0.0,0.0,0.0,0.0,0.0,0.0,0.0,0.0,0.0,0.0,0.0,0.0,0.0,0.0,0.0,0.0,0.0,0.0,0.0,0.0,0.0,0.0,0.0,0.0,0.0,0.0,0.0,0.0,0.0,2.3545,2.4205,2.4766,2.5223,2.5165,2.4893,2.4551,2.3975,2.3213,0.0,0.0,0.0,0.0,0.0,0.0,0.0,0.0,0.0,0.0,0.0,0.0,0.0,0.0,0.0,0.0,0.0,0.0,0.0,0.0,0.0,0.0,0.0,0.0,0.0,0.0,0.0,0.0,0.0,0.0,0.0,0.0,0.0,0.0,0.0,0.0,0.0,0.0,0.0,0.0,0.0,2.526,2.7077,2.6698,0.0,0.0,0.0,0.0,2.7065,2.7126,0.0,0.0,0.0,0.0,0.0,0.0,0.0,0.0,0.0,0.0,0.0,0.0,0.0,0.0,0.0,0.0,0.0,0.0,0.0,0.0,0.0,0.0,0.0,0.0,0.0,0.0,0.0,0.0,0.0,0.0,0.0,0.0,0.0,0.0,0.0,0.0,0.0,0.0,0.0,0.0,0.0,0.0,0.0,0.0,0.0,0.0,0.0,0.0,0.0,0.0,0.0,0.0,0.0,0.0,0.0,0.0,2.3734,2.459,2.5215,2.5615,2.5273,2.5086,2.5018,2.3893,2.3008,0.0,0.0,0.0,0.0,0.0,0.0,0.0,0.0,0.0,0.0,0.0,0.0,0.0,0.0,0.0,0.0,0.0,0.0,0.0,0.0,0.0,0.0,0.0,0.0,0.0,0.0,0.0,0.0,0.0,0.0,0.0,0.0,0.0,0.0,0.0,0.0,0.0,0.0,0.0,0.0,0.0,2.5932,2.7287,2.7385,2.7299,0.0,0.0,2.8424,2.845,2.8487,0.0,0.0,0.0,0.0,0.0,0.0,0.0,0.0,0.0,0.0,0.0,0.0,0.0,0.0,0.0,0.0,0.0,0.0,0.0,0.0,0.0,0.0,0.0,0.0,0.0,0.0,0.0,0.0,0.0,0.0,0.0,0.0,0.0,0.0,0.0,0.0,0.0,0.0,0.0,0.0,0.0,0.0,0.0,0.0,0.0,0.0,0.0,0.0,0.0,0.0,0.0,0.0,0.0,0.0,0.0,2.3057,2.4121,2.4756,2.5283,2.5664,2.5499,2.5449,2.5439,2.4424,2.3555,0.0,0.0,0.0,0.0,0.0,0.0,0.0,0.0,0.0,0.0,0.0,0.0,0.0,0.0,0.0,0.0,0.0,0.0,0.0,0.0,0.0,0.0,0.0,0.0,0.0,0.0,0.0,0.0,0.0,0.0,0.0,0.0,0.0,0.0,0.0,0.0,0.0,0.0,0.0,0.0,0.0,0.0,2.736,2.7903,0.0,0.0,0.0,2.8612,2.84,0.0,0.0,0.0,0.0,0.0,0.0,0.0,0.0,0.0,0.0,0.0,0.0,0.0,0.0,0.0,0.0,0.0,0.0,0.0,0.0,0.0,0.0,0.0,0.0,0.0,0.0,0.0,0.0,0.0,0.0,0.0,0.0,0.0,0.0,0.0,0.0,0.0,0.0,0.0,0.0,0.0,0.0,0.0,0.0,0.0,0.0,0.0,0.0,0.0,0.0,0.0,0.0,0.0,0.0,0.0,0.0,0.0,2.4394,2.4961,2.54,2.5674,2.5684,2.5684,2.5674,2.499,0.0,0.0,0.0,0.0,0.0,0.0,0.0,0.0,0.0,0.0,0.0,0.0,0.0,0.0,0.0,0.0,0.0,0.0,0.0,0.0,0.0,0.0,0.0,0.0,0.0,0.0,0.0,0.0,0.0,0.0,0.0,0.0,0.0,0.0,0.0,0.0,0.0,0.0,0.0,0.0,0.0,0.0,2.7012,2.7521,2.8362,2.9012,0.0,0.0,2.8862,2.8549,2.8875,2.8725,0.0,0.0,0.0,0.0,0.0,0.0,0.0,0.0,0.0,0.0,0.0,0.0,0.0,0.0,0.0,0.0,0.0,0.0,0.0,0.0,0.0,0.0,0.0,0.0,0.0,0.0,0.0,0.0,0.0,0.0,0.0,0.0,0.0,0.0,0.0,0.0,0.0,0.0,0.0,0.0,0.0,0.0,0.0,0.0,0.0,0.0,0.0,0.0,0.0,0.0,0.0,0.0,0.0,0.0,0.0,2.4414,2.5254,2.5645,2.5684,2.5684,2.5684,2.5684,2.5283,2.4666,0.0,0.0,0.0,0.0,0.0,0.0,0.0,0.0,0.0,0.0,0.0,0.0,0.0,0.0,0.0,0.0,0.0,0.0,0.0,0.0,0.0,0.0,0.0,0.0,0.0,0.0,0.0,0.0,0.0,0.0,0.0,0.0,0.0,0.0,0.0,0.0,0.0,0.0,0.0,0.0,0.0,2.7384,2.7717,2.8875,2.9729,0.0,0.0,2.9729,2.9679,2.9704,2.9441,2.848,0.0,0.0,0.0,0.0,0.0,0.0,0.0,0.0,0.0,0.0,0.0,0.0,0.0,0.0,0.0,0.0,0.0,0.0,0.0,0.0,0.0,0.0,0.0,0.0,0.0,0.0,0.0,0.0,0.0,0.0,0.0,0.0,0.0,0.0,0.0,0.0,0.0,0.0,0.0,0.0,0.0,0.0,0.0,0.0,0.0,0.0,0.0,0.0,0.0,0.0,0.0,0.0,0.0,2.3828,2.4414,2.5283,2.5684,2.5684,2.5684,2.5684,2.5684,2.5303,2.4715,0.0,0.0,0.0,0.0,0.0,0.0,0.0,0.0,0.0,0.0,0.0,0.0,0.0,0.0,0.0,0.0,0.0,0.0,0.0,0.0,0.0,0.0,0.0,0.0,0.0,0.0,0.0,0.0,2.3259,2.3551,2.3426,0.0,0.0,0.0,0.0,0.0,0.0,0.0,0.0,0.0,0.0,2.7656,2.8263,2.9175,0.0,0.0,2.9779,2.9869,2.9972,3.0088,2.9998,2.9538,2.9399,0.0,0.0,0.0,0.0,0.0,0.0,0.0,0.0,0.0,0.0,0.0,0.0,0.0,0.0,0.0,0.0,0.0,0.0,0.0,0.0,0.0,0.0,0.0,0.0,0.0,0.0,0.0,0.0,0.0,0.0,0.0,0.0,0.0,0.0,0.0,0.0,0.0,0.0,0.0,0.0,0.0,0.0,0.0,0.0,0.0,0.0,0.0,0.0,0.0,0.0,0.0,0.0,2.3994,2.4368,2.5283,2.5684,2.5684,2.5684,2.5684,2.5674,2.543,2.4863,0.0,0.0,0.0,0.0,0.0,0.0,0.0,0.0,0.0,0.0,0.0,0.0,0.0,0.0,0.0,0.0,0.0,0.0,0.0,0.0,0.0,0.0,0.0,0.0,0.0,0.0,0.0,0.0,2.4296,2.4375,2.4065,0.0,0.0,0.0,0.0,0.0,0.0,0.0,0.0,0.0,0.0,2.8102,2.8762,2.9491,3.0011,3.0062,3.0126,3.0203,3.0356,3.052,3.0602,3.0454,0.0,0.0,0.0,0.0,0.0,0.0,0.0,0.0,0.0,0.0,0.0,0.0,0.0,0.0,0.0,0.0,0.0,0.0,0.0,0.0,0.0,0.0,0.0,0.0,0.0,0.0,0.0,1.9326,0.0,0.0,1.999,0.0,0.0,0.0,0.0,0.0,0.0,0.0,0.0,0.0,0.0,0.0,0.0,0.0,0.0,0.0,0.0,0.0,0.0,0.0,0.0,0.0,0.0,2.4004,2.4424,2.5235,2.5684,2.5684,2.5684,2.5684,2.5684,2.5674,2.5303,2.4441,0.0,0.0,0.0,0.0,0.0,0.0,0.0,0.0,0.0,0.0,0.0,0.0,0.0,0.0,0.0,0.0,0.0,0.0,0.0,0.0,0.0,0.0,0.0,0.0,0.0,0.0,2.4214,2.4698,2.4936,0.0,0.0,0.0,0.0,0.0,0.0,0.0,0.0,0.0,0.0,2.7965,2.88,2.9188,2.9884,3.0495,3.0686,3.0849,3.0986,3.0999,3.111,3.1156,0.0,0.0,0.0,0.0,0.0,0.0,0.0,0.0,0.0,0.0,0.0,0.0,0.0,0.0,0.0,0.0,0.0,0.0,0.0,0.0,0.0,0.0,0.0,0.0,0.0,0.0,0.0,2.0186,2.0778,0.0,0.0,0.0,0.0,0.0,0.0,0.0,0.0,0.0,0.0,0.0,2.2314,2.2588,0.0,0.0,0.0,0.0,0.0,0.0,0.0,0.0,0.0,0.0,0.0,0.0,2.447,2.4443,2.5283,2.5684,2.5684,2.5684,2.5684,2.5684,2.6524,2.6827,2.6541,0.0,0.0,0.0,0.0,0.0,0.0,0.0,0.0,0.0,0.0,0.0,0.0,0.0,0.0,0.0,0.0,0.0,0.0,0.0,0.0,0.0,0.0,0.0,0.0,0.0,2.4583,0.0,0.0,0.0,0.0,0.0,0.0,0.0,0.0,0.0,0.0,0.0,2.7601,2.842,2.9071,2.9688,3.0433,3.0766,3.1253,0.0,0.0,0.0,0.0,0.0,0.0,0.0,0.0,0.0,0.0,0.0,0.0,0.0,0.0,3.1622,3.0605,3.0512,3.0683,3.0883,0.0,0.0,0.0,0.0,0.0,0.0,0.0,0.0,0.0,0.0,0.0,0.0,0.0,0.0,2.1393,0.0,2.1948,0.0,0.0,0.0,0.0,0.0,0.0,0.0,0.0,2.2676,2.2734,2.2744,2.2964,2.3144,0.0,2.3301,2.3086,0.0,0.0,0.0,0.0,0.0,0.0,0.0,0.0,2.47,2.4601,2.5749,2.6149,2.5732,2.611,2.6149,2.5732,2.6791,2.7549,2.8019,2.7379,2.6439,0.0,0.0,0.0,0.0,0.0,0.0,0.0,0.0,0.0,0.0,0.0,0.0,0.0,0.0,0.0,0.0,0.0,0.0,0.0,0.0,0.0,0.0,0.0,2.597,0.0,0.0,0.0,0.0,0.0,0.0,0.0,0.0,0.0,2.6592,2.7695,2.8807,2.941,3.0253,3.0998,3.1466,0.0,0.0,0.0,0.0,0.0,0.0,0.0,3.4009,3.4404,3.4367,3.4525,3.5253,3.5361,3.5346,3.5361,0.0,0.0,3.327,3.3071,3.3202,3.3346,3.3363,3.3363,3.3378,3.3378,3.341,0.0,0.0,0.0,0.0,0.0,0.0,0.0,0.0,2.2373,2.2344,0.0,2.2432,0.0,0.0,0.0,0.0,0.0,2.2773,0.0,0.0,2.3325,2.313,2.314,2.3218,2.3184,2.3179,2.3757,2.3998,2.3898,2.3138,0.0,0.0,0.0,0.0,0.0,0.0,2.4894,2.4943,2.6718,2.7088,2.5965,2.703,2.7078,2.6004,2.6692,2.7664,2.879,2.7954,2.7325,2.7233,2.5631,0.0,0.0,0.0,0.0,0.0,0.0,0.0,0.0,0.0,0.0,0.0,0.0,0.0,0.0,0.0,0.0,0.0,0.0,0.0,0.0,2.7047,0.0,0.0,0.0,0.0,0.0,0.0,0.0,0.0,0.0,0.0,2.8001,2.8869,2.967,2.9868,0.0,0.0,0.0,0.0,3.3938,3.4072,3.4333,3.4739,3.5229,3.5761,3.6114,3.6278,0.0,0.0,3.7189,3.7084,3.6995,3.698,3.7134,3.6763,3.5247,3.4949,3.4923,3.5027,3.506,3.506,3.506,3.506,3.506,2.3262,0.0,0.0,0.0,0.0,2.2555,2.2842,2.3252,2.3369,2.3525,2.3701,2.3818,0.0,0.0,0.0,0.0,0.0,0.0,2.4004,2.4228,2.4111,2.4053,2.4043,2.4513,2.466,2.4594,2.6033,2.6645,2.6543,2.6832,2.6082,2.4307,0.0,0.0,0.0,0.0,2.6631,2.6433,2.8006,2.8716,2.8366,2.868,2.9131,2.9624,2.9851,3.0159,3.0657,3.0359,2.9588,2.8346,2.7648,0.0,0.0,0.0,0.0,0.0,0.0,0.0,0.0,0.0,0.0,0.0,0.0,0.0,0.0,0.0,0.0,0.0,0.0,0.0,2.648,2.705,2.7385,0.0,0.0,0.0,0.0,0.0,0.0,0.0,0.0,0.0,3.1336,3.1122,3.1156,0.0,0.0,3.3035,3.3874,3.432,3.5068,3.6548,3.6336,0.0,3.7206,3.6963,3.6726,3.6936,3.753,3.8018,3.8038,3.8406,3.8662,3.8698,3.8734,3.8615,3.8171,3.7287,3.6707,3.6716,3.6716,3.6716,3.6716,3.6716,3.673,2.4592,2.4075,2.3437,2.3306,2.3452,2.3398,2.3643,2.4053,2.4228,2.4346,2.4434,2.46,2.458,2.4414,2.4945,0.0,0.0,0.0,2.5972,2.6138,2.5951,2.5879,2.5903,2.6243,2.6402,2.6364,2.7611,2.8187,2.8085,2.8746,2.8299,2.6822,0.0,0.0,2.6454,2.7569,2.8044,2.7846,2.9331,2.9863,2.9407,2.9396,3.0,3.1134,3.1178,3.1366,3.1709,3.1512,3.0794,2.9499,2.8872,2.8027,0.0,0.0,0.0,0.0,0.0,0.0,0.0,0.0,0.0,0.0,0.0,2.4078,0.0,0.0,0.0,0.0,2.6002,2.6402,2.7018,2.7683,0.0,0.0,0.0,0.0,0.0,0.0,0.0,3.1158,3.2198,3.3055,3.3394,3.3378,3.3444,3.3612,3.4219,3.4861,3.543,0.0,3.6639,3.806,3.7883,3.7978,3.9024,3.8934,3.8739,3.8862,3.9247,3.9574,3.9589,3.9948,4.0187,4.0187,4.0187,4.0202,4.0202,3.9514,3.8781,3.8317,3.8212,3.8212,3.8212,3.8212,3.8212,2.5684,2.5596,2.4033,2.3594,2.3935,2.3935,2.417,2.4551,2.4941,2.4902,2.4551,2.5073,2.5127,2.4881,2.5937,0.0,2.8813,2.8319,2.832,2.8813,2.8407,2.8194,2.8182,2.8236,2.8236,2.8216,2.8798,2.9069,2.9025,2.9491,2.9799,3.0042,2.9291,2.8841,2.8795,2.9114,2.9234,2.9235,3.0561,3.0763,2.9715,2.9681,3.0226,3.1311,3.132,3.1537,3.2081,3.1612,3.1085,3.0545,2.9412,2.8774,2.8674,0.0,0.0,0.0,0.0,0.0,0.0,0.0,0.0,0.0,0.0,0.0,0.0,0.0,0.0,0.0,2.726,0.0,2.7649,2.8662,0.0,0.0,0.0,3.1566,3.2263,3.2402,3.2524,3.2678,0.0,0.0,3.4656,3.5633,3.6158,3.5833,3.6787,3.7329,3.6787,3.7556,3.8436,3.8877,3.915,3.9647,4.0527,4.0948,4.113,4.113,4.1422,4.1317,4.1265,4.1332,4.1354,4.1332,4.1407,4.1392,4.1407,4.1257,4.101,3.9768,3.9463,3.9433,3.9418,3.9328,3.929,2.5684,2.5654,2.5245,2.5138,2.5226,2.5226,2.5332,2.5382,2.5479,2.5469,2.5478,2.655,2.7441,2.8182,2.7568,2.7993,2.9228,2.8212,2.8269,2.9228,2.9161,2.9105,2.9128,2.9609,2.9589,2.9207,3.0656,3.1141,3.0711,3.1683,3.2241,3.2284,3.2105,3.0948,2.9009,2.9893,3.0283,3.0091,3.1327,3.2037,3.2227,3.2208,3.2339,3.2655,3.219,3.1846,3.1599,3.1072,3.0557,3.0018,2.9703,2.9364,2.8875,2.805,0.0,0.0,0.0,0.0,0.0,0.0,0.0,0.0,0.0,2.6131,2.67,0.0,2.8041,0.0,2.81,2.8162,2.8223,2.9263,0.0,0.0,3.1519,3.2327,3.2643,3.3321,3.392,3.4339,3.5185,3.6123,3.7168,3.7532,3.7916,3.836,3.7531,3.7084,3.7701,3.8415,3.9156,3.9906,4.0465,4.0935,4.1226,4.1346,4.1467,4.1422,4.1437,4.1422,4.1437,4.1422,4.1422,4.1422,4.1422,4.1422,4.1452,4.1422,4.1347,4.095,4.0531,4.0157,4.0157,3.9747,3.9388,2.5869,2.5693,2.5684,2.5684,2.5684,2.5684,2.5684,2.5684,2.5684,2.5684,2.5781,2.703,2.8272,2.9361,2.9269,2.9863,3.0956,3.0328,3.0418,3.1057,3.1057,3.1057,3.1045,3.1431,3.1399,3.1089,3.2118,3.2388,3.2084,3.2754,3.3124,3.3124,3.3124,3.2178,3.0471,3.106,3.1235,3.084,3.1729,3.2491,3.3099,3.3124,3.2943,3.2704,3.2378,3.1851,3.1072,3.0771,3.0357,2.9829,2.9779,2.9641,2.9315,2.8549,2.7846,0.0,0.0,0.0,0.0,0.0,0.0,0.0,0.0,0.0,0.0,0.0,2.8871,2.8902,2.9289,2.9711,3.0038,3.0759,3.1521,3.2193,3.3066,3.38,3.4369,3.4904,3.5446,3.6019,3.6707,3.7461,3.8212,3.8534,3.8898,3.9343,3.8784,3.8513,3.905,3.9488,4.0062,4.1115,4.1617,4.1976,4.2192,4.2237,4.2252,4.2252,4.2252,4.2252,4.2252,4.2252,4.2252,4.2237,4.2252,4.2237,4.2252,4.2252,4.2252,4.2162,4.1728,4.11,4.0531,4.0113,3.9798,2.624,2.5849,2.5859,2.5859,2.5849,2.5859,2.5781,2.5684,2.5684,2.5868,2.6235,2.7484,2.8727,2.9909,3.081,3.1909,3.3068,3.2939,3.2939,3.3124,3.3124,3.3124,3.3124,3.3124,3.3124,3.3124,3.3124,3.3124,3.3124,3.3124,3.3124,3.3124,3.3124,3.2792,3.224,3.2202,3.1938,3.1411,3.1938,3.2466,3.2955,3.2893,3.2629,3.2139,3.1997,3.1574,3.0631,3.0545,3.0294,2.9817,2.9779,2.9779,2.9767,2.8787,2.821,0.0,2.7278,0.0,0.0,0.0,0.0,0.0,0.0,0.0,0.0,2.9426,2.9941,2.9914,3.0726,3.1491,3.2117,3.2583,3.325,3.4124,3.4765,3.5455,3.6354,3.6552,3.6851,3.7449,3.8048,3.8392,3.8556,3.9065,3.9388,3.9418,3.9866,4.0225,4.0502,4.0606,4.11,4.2261,4.247,4.2656,4.3105,4.323,4.3215,4.326,4.32,4.3305,4.323,4.3245,4.326,4.326,4.32,4.3245,4.3305,4.326,4.326,4.3185,4.2776,4.2073,4.1055,4.0621,4.0337,2.6846,2.6777,2.6727,2.6727,2.6768,2.6727,2.6327,2.5684,2.5684,2.6839,2.8762,2.9988,3.1235,3.2295,3.1545,3.1865,3.3038,3.2008,3.2096,3.3124,3.3124,3.3124,3.3124,3.3124,3.3124,3.3124,3.3124,3.3124,3.3124,3.3124,3.3124,3.3124,3.3124,3.2792,3.224,0.0,0.0,0.0,3.1926,3.2265,3.2353,3.1938,3.165,3.1537,3.1148,0.0,3.062,3.0181,2.9905,2.9792,2.9779,0.0,0.0,0.0,0.0,0.0,0.0,0.0,0.0,0.0,0.0,0.0,3.0055,3.0286,3.0096,3.1402,3.2258,3.2275,3.2423,3.2514,3.2533,3.3259,3.383,3.4061,3.5343,3.629,3.6492,3.6926,3.7494,3.8123,3.8317,3.8601,3.9125,3.9313,3.9388,3.9418,3.9993,4.0591,4.1115,4.1632,4.2111,4.2396,4.2791,4.311,4.3275,4.3305,4.3305,4.3305,4.3305,4.3305,4.3305,4.3305,4.3305,4.3305,4.3305,4.3305,4.3305,4.3305,4.3305,4.3305,4.32,4.291,4.2186,4.1602,4.116,2.7207,2.7012,2.7012,2.7012,0.0,2.7012,2.6768,2.6348,2.6752,2.7873,2.9453,3.0676,3.1545,3.2152,3.214,3.2469,3.3081,3.2426,3.2481,3.3081,3.3124,3.3124,3.3124,3.3124,3.3124,3.3124,3.3124,3.3124,3.3124,3.3124,3.3124,3.3124,3.3124,3.293,3.2641,3.2629,3.2365,3.18,3.2077,3.2353,3.2604,3.2089,3.1675,3.1439,3.1135,0.0,0.0,0.0,0.0,0.0,0.0,0.0,0.0,2.939,0.0,2.8875,2.8398,2.8235,2.8486,2.8474,2.9079,3.0391,3.1705,3.227,3.1804,3.2793,3.3449,3.3449,3.3905,3.4158,3.409,3.4753,3.5242,3.5305,3.6253,3.7045,3.7389,3.7704,3.8153,3.8751,3.8901,3.905,3.9343,3.9388,3.9388,3.9418,3.9993,4.0636,4.1294,4.1976,4.247,4.2776,4.3075,4.329,4.3305,4.3305,4.3305,4.3305,4.3305,4.3305,4.3305,4.3305,4.3305,4.3305,4.3305,4.3305,4.3305,4.3305,4.3305,4.3305,4.3305,4.3215,4.288,4.2327,4.1796,2.7568,2.7246,2.7236,2.7236,2.7246,2.7246,2.7444,2.7834,0.0,0.0,0.0,3.1182,3.1821,3.191,3.2897,3.3319,3.3262,3.3262,3.3169,3.3124,3.3124,3.3124,3.3124,3.3124,3.3124,3.3124,3.3124,3.3124,3.3124,3.3124,3.3124,3.3124,3.3124,3.3124,3.3124,3.3124,3.2842,3.2378,3.2265,3.2441,3.2893,3.2265,3.1725,3.1273,3.116,3.0909,3.0495,3.0871,3.111,3.1097,3.0708,3.047,3.0432,2.9591,2.9152,2.9264,2.8711,2.8673,2.9239,2.9314,3.0004,3.1606,3.329,3.409,3.363,3.4022,3.4279,3.4264,3.5123,3.5684,3.5684,3.6267,3.6641,3.6656,3.7195,3.7793,3.8302,3.8512,3.8781,3.9269,3.9394,3.9388,3.9388,3.9388,3.9388,3.9463,3.9993,4.0711,4.1482,4.2162,4.2746,4.314,4.3275,4.3305,4.3305,4.3305,4.3305,4.3305,4.3305,4.3305,4.3305,4.3394,4.3454,4.3529,4.3544,4.3693,4.3663,4.3738,4.3648,4.3633,4.3633,4.3633,4.3604,4.3284,4.2755,2.8164,2.8115,2.8115,2.8115,2.8115,2.8105,2.9157,3.0828,3.061,3.0596,3.0816,3.3189,3.4192,3.4205,3.4397,3.4236,3.3796,3.3796,3.3533,3.3136,3.3124,3.3124,3.3124,3.3124,3.3124,3.3124,3.3124,3.3124,3.3124,3.3124,3.3124,3.3124,3.3124,3.3124,3.3124,3.3124,3.3086,3.2943,3.2466,3.2252,3.2315,3.1361,3.0768,3.0708,3.0281,2.9993,2.9917,3.0018,3.0018,3.0018,2.9955,2.9905,2.9905,2.9754,3.005,3.074,3.0037,2.9936,3.0802,3.0876,3.1662,3.3435,3.4673,3.5246,3.518,3.5246,3.5279,3.5323,3.5932,3.6357,3.6387,3.6911,3.727,3.7315,3.7868,3.8302,3.8437,3.8901,3.9275,3.9373,3.9388,3.9418,3.9448,3.9448,3.9493,3.9508,4.0098,4.0831,4.1916,4.2776,4.314,4.3275,4.3305,4.3305,4.3305,4.3305,4.3305,4.3305,4.3305,4.3319,4.3379,4.3693,4.4007,4.4182,4.4511,4.484,4.4915,4.5035,4.49,4.4855,4.484,4.4885,4.4855,4.4792,4.4417,2.8301,2.8301,2.8301,2.8301,2.8344,2.9102,3.0346,3.1984,3.2581,3.284,3.3061,3.4189,3.468,3.468,3.468,3.4587,3.4349,3.4349,3.4211,3.396,3.3671,3.352,3.3483,3.3262,3.3124,3.3124,3.3124,3.3124,3.3124,3.3124,3.3124,3.3124,3.3124,3.3124,3.3124,3.3124,3.3124,3.3068,3.2817,3.2679,3.2667,3.1901,3.1474,3.1474,3.0947,3.0658,3.067,3.0658,3.0698,3.0658,3.0394,3.0231,3.0231,2.9955,3.0203,3.1119,3.0796,3.097,3.1901,3.2429,3.3101,3.3973,3.5278,3.6028,3.6043,3.6043,3.6043,3.6058,3.6611,3.6985,3.7,3.7569,3.7943,3.7943,3.8542,3.8931,3.899,3.92,3.9388,3.9418,3.9738,3.9948,3.9948,4.0262,4.0307,4.0113,4.0516,4.119,4.1811,4.2701,4.329,4.3305,4.3305,4.3305,4.3305,4.3305,4.3305,4.3305,4.3305,4.3454,4.3678,4.3902,4.4092,4.4661,4.4855,4.4915,4.52,4.5289,4.5289,4.5289,4.5289,4.5289,4.5331,4.5712,4.5576,2.8301,2.8301,2.8301,2.8495,2.891,3.0525,3.1836,3.2894,3.4252,3.4962,3.5061,3.5102,3.509,3.509,3.509,3.5027,3.4926,3.4856,3.4793,3.463,3.4286,3.4085,3.4035,3.352,3.33,3.3244,3.3187,3.3124,3.3124,3.3124,3.3124,3.3124,3.3124,3.3124,3.3124,3.3124,3.3124,3.3124,3.3124,3.3124,3.3099,3.2516,3.2202,3.2177,3.1662,3.1386,3.1386,3.1286,3.121,3.1198,3.0721,3.0432,3.0419,3.0238,3.052,3.1402,3.1499,3.1992,3.305,3.3801,3.4403,3.4767,3.594,3.6701,3.6701,3.6851,3.687,3.6791,3.7255,3.7629,3.7719,3.8242,3.8616,3.8646,3.908,3.9328,3.9388,3.9388,3.9499,3.9649,4.0083,4.0427,4.0666,4.1055,4.1055,4.0576,4.098,4.1407,4.1519,4.2402,4.3075,4.3275,4.3305,4.3305,4.3305,4.3305,4.3305,4.3305,4.3305,4.3484,4.3813,4.3808,4.4152,4.505,4.5229,4.5379,4.5693,4.5798,4.5843,4.5888,4.5918,4.5897,4.6286,4.6814,4.6942,2.8301,2.8301,2.8301,2.9006,3.0369,3.2855,3.4019,3.4385,3.5607,3.6225,3.6204,3.6254,3.6229,3.6254,3.6169,3.5893,3.5445,3.542,3.5169,3.4731,3.4675,3.465,3.4575,3.406,3.3822,3.3746,3.3332,3.3149,3.3124,3.3124,3.3124,3.3124,3.3124,3.3124,3.3124,3.3124,3.3124,3.3124,3.3124,3.3124,3.3086,3.2503,3.2202,3.2202,3.1687,3.1386,3.1411,3.0934,3.0683,3.0645,3.0206,2.9892,3.0008,3.0634,3.1476,3.242,3.2514,3.3149,3.4595,3.4891,3.5554,3.6881,3.7137,3.733,3.736,3.7853,3.7958,3.7614,3.7928,3.8272,3.8332,3.8901,3.9245,3.923,3.9313,3.9388,3.9388,3.9388,3.9649,4.0247,4.0412,4.0621,4.1205,4.1437,4.1175,4.0696,4.1115,4.1542,4.1602,4.2147,4.2821,4.3155,4.3305,4.3305,4.3305,4.3305,4.3305,4.3305,4.3305,4.3439,4.3708,4.4436,4.5214,4.5544,4.6157,4.6666,4.689,4.7115,4.7025,4.683,4.6961,4.7295,4.8147,4.8393,4.8195,2.8516,2.8301,2.8301,2.9513,3.1633,3.3563,3.4872,3.5619,3.6156,3.6417,3.6417,3.6417,3.6417,3.6417,3.6417,3.6279,3.6031,3.6019,3.573,3.5157,3.4843,3.468,3.4675,3.4161,3.3909,3.3897,3.3671,3.3407,3.3174,3.3124,3.3124,3.3124,3.3124,3.3124,3.3124,3.3124,3.3124,3.3124,3.3124,3.3124,3.3099,3.2898,3.2717,3.2667,3.2164,3.1876,3.1825,3.1361,3.1072,3.106,3.0846,3.1039,3.1643,3.2043,3.2979,3.4469,3.5136,3.572,3.6394,3.6423,3.6699,3.7355,3.7764,3.7988,3.8018,3.8616,3.8871,3.8706,3.8841,3.9005,3.902,3.9245,3.9388,3.9388,3.9388,3.9388,3.9388,3.9732,4.0127,4.0412,4.1085,4.1662,4.1931,4.1991,4.1886,4.1647,4.1856,4.1946,4.2021,4.2521,4.2985,4.3215,4.3305,4.3305,4.3305,4.3305,4.3305,4.3305,4.3305,4.3409,4.4302,4.4421,4.5005,4.6142,4.6576,4.6935,4.7174,4.7294,4.7309,4.7309,4.7352,4.7609,4.8594,4.8784,4.8927,2.8857,2.8584,2.9109,3.0525,3.2443,3.4215,3.5511,3.631,3.6417,3.6417,3.6417,3.6417,3.6417,3.6417,3.6417,3.6417,3.6392,3.6254,3.5931,3.547,3.5069,3.4951,3.4843,3.4562,3.4349,3.4286,3.4035,3.3608,3.3174,3.3124,3.3124,3.3124,3.3124,3.3124,3.3124,3.3124,3.3124,3.3124,3.3124,3.3124,3.3124,3.3124,3.3124,3.3086,3.2667,3.2453,3.2441,3.1926,3.1763,3.2036,3.1909,3.2329,3.3364,3.3698,3.458,3.6199,3.701,3.7494,3.7659,3.7674,3.7764,3.7973,3.8422,3.8676,3.8766,3.914,3.9373,3.9358,3.9388,3.9373,3.9388,3.9388,3.9388,3.9388,3.9388,3.9469,3.9709,4.0142,4.0531,4.095,4.1782,4.25,4.2635,4.2626,4.2566,4.2381,4.2351,4.2396,4.2425,4.2731,4.3075,4.3245,4.3305,4.3305,4.3305,4.3305,4.3305,4.3305,4.3305,4.3604,4.4631,4.4291,4.4601,4.5708,4.6097,4.6606,4.7145,4.7294,4.7309,4.7309,4.7352,4.7651,4.8594,4.8907,4.9694,2.9287,2.9218,3.1202,3.2151,3.2532,3.515,3.631,3.6417,3.6417,3.6417,3.6417,3.6417,3.6417,3.6417,3.6417,3.6417,3.6342,3.5843,3.5545,3.5445,3.5408,3.5445,3.5458,3.5433,3.5395,3.5207,3.4462,3.3721,3.3199,3.3149,3.3124,3.3124,3.3124,3.3124,3.3124,3.3124,3.3124,3.3124,3.3124,3.3124,3.3124,3.3124,3.3124,3.3185,3.3074,3.3109,3.3028,3.2508,3.2679,3.3686,3.3278,3.3482,3.4485,3.5413,3.6357,3.7238,3.743,3.7719,3.8257,3.8347,3.8586,3.9155,3.9194,3.9349,3.9239,3.9328,3.9373,3.9388,3.9388,3.9388,3.9388,3.9388,3.9418,3.9463,3.9433,3.9738,4.0292,4.0487,4.101,4.1916,4.2351,4.2671,4.314,4.3245,4.297,4.2611,4.244,4.2455,4.2515,4.253,4.2776,4.3155,4.3319,4.3305,4.3319,4.3454,4.3424,4.3484,4.3604,4.3559,4.3604,4.3858,4.4691,4.5394,4.6082,4.6666,4.7115,4.7309,4.7309,4.7309,4.7309,4.7722,4.8594,4.9615,5.0281,3.0087,3.0391,3.2066,3.3101,3.3822,3.5607,3.6417,3.6417,3.6417,3.6417,3.6417,3.6417,3.6417,3.6417,3.6417,3.6417,3.6367,3.5793,3.532,3.5019,3.4969,3.4969,3.5006,3.532,3.5495,3.5433,3.5094,3.4487,3.3684,3.3608,3.342,3.3162,3.3124,3.3124,3.3124,3.3124,3.3124,3.3124,3.3124,3.3124,3.3124,3.3124,3.3398,3.4066,3.4108,3.4121,3.4121,3.4508,3.4942,3.5342,3.5124,3.5551,3.6613,3.7609,3.829,3.862,3.8691,3.876,3.9005,3.9035,3.914,3.9343,3.9388,3.9388,3.9388,3.9388,3.9388,3.9388,3.9388,3.9388,3.9388,3.9388,3.9604,3.9963,4.0053,4.0307,4.0935,4.1399,4.1901,4.2351,4.2701,4.3105,4.32,4.3305,4.32,4.3045,4.297,4.2955,4.2985,4.2985,4.306,4.329,4.3633,4.3917,4.3958,4.3932,4.3962,4.4122,4.4272,4.4825,4.5024,4.5039,4.5708,4.6142,4.6636,4.68,4.7234,4.7309,4.7309,4.7309,4.7309,4.7679,4.861,4.9456,5.0087,3.0831,3.1391,3.2826,3.3777,3.4544,3.581,3.6417,3.6417,3.6417,3.6417,3.6417,3.6417,3.6417,3.6417,3.6417,3.6417,3.6329,3.5617,3.5031,3.468,3.4537,3.4462,3.4587,3.5157,3.5495,3.5495,3.5495,3.5006,3.4261,3.4161,3.3872,3.3382,3.3345,3.3287,3.3162,3.3124,3.3124,3.3124,3.3124,3.3227,3.3513,3.3628,3.4108,3.5061,3.5494,3.5494,3.5238,3.5854,3.6395,3.6643,3.6721,3.7214,3.8256,3.898,3.9388,3.9388,3.9373,3.9388,3.9388,3.9388,3.9373,3.9388,3.9388,3.9388,3.9388,3.9388,3.9388,3.9403,3.9612,3.9723,3.9783,3.9933,4.0142,4.0412,4.0576,4.098,4.1662,4.2111,4.2455,4.2701,4.3045,4.3245,4.3305,4.3305,4.329,4.3305,4.3305,4.3305,4.3305,4.3305,4.3409,4.3589,4.3962,4.4362,4.4646,4.4855,4.4781,4.4855,4.4885,4.5574,4.5978,4.6097,4.6352,4.683,4.707,4.713,4.7204,4.7279,4.7352,4.7381,4.7381,4.7636,4.8403,4.9135,5.011,3.1734,3.2105,3.3653,3.4504,3.4811,3.5883,3.6417,3.6417,3.6417,3.6417,3.6417,3.6417,3.6417,3.6417,3.6417,3.6417,3.6229,3.5353,3.4831,3.4731,3.4274,3.406,3.4186,3.5056,3.5545,3.5583,3.5533,3.5245,3.4718,3.4668,3.4449,3.3997,3.3847,3.3583,3.3162,3.3162,3.3124,3.324,3.3283,3.3713,3.4553,3.4705,3.517,3.6172,3.7098,3.719,3.633,3.6369,3.6891,3.7701,3.7805,3.8308,3.9104,3.9373,3.9388,3.9388,3.9388,3.9388,3.9388,3.9388,3.9388,3.9388,3.9388,3.9388,3.9388,3.9388,3.9418,3.9582,3.9993,4.0352,4.0472,4.0935,4.11,4.0636,4.107,4.1692,4.2231,4.2425,4.265,4.312,4.329,4.3305,4.3305,4.3305,4.3305,4.3305,4.3305,4.3305,4.3334,4.3379,4.3633,4.4052,4.4541,4.4945,4.5394,4.5783,4.5663,4.5574,4.5559,4.5843,4.6007,4.6157,4.6396,4.68,4.6935,4.701,4.7689,4.7807,4.7919,4.7919,4.7764,4.8141,4.915,5.0188,5.0855,3.4508,3.5095,3.5247,3.574,3.6294,3.6426,3.6417,3.6417,3.6417,3.6417,3.6417,3.6417,3.6417,3.6417,3.6417,3.6417,3.6342,3.5629,3.5245,3.5144,3.4668,3.4625,3.4944,3.532,3.5755,3.6044,3.6094,3.5818,3.5332,3.5245,3.4956,3.4512,3.4085,3.3822,3.3633,3.3338,3.3398,3.415,3.4191,3.4692,3.5628,3.5734,3.6251,3.7228,3.7625,3.7942,3.8368,3.8405,3.8568,3.8855,3.8907,3.9068,3.9337,3.9388,3.9388,3.9388,3.9388,3.9388,3.9388,3.9388,3.9388,3.9388,3.9388,3.9388,3.9388,3.9403,3.9612,4.0008,4.0307,4.0546,4.107,4.1707,4.1961,4.1811,4.1976,4.2351,4.2836,4.3,4.312,4.323,4.3305,4.3305,4.3305,4.3305,4.3305,4.3305,4.3305,4.3305,4.3364,4.3693,4.4018,4.4302,4.4945,4.5618,4.6037,4.6396,4.6471,4.6367,4.6322,4.6262,4.6337,4.6396,4.6621,4.6741,4.686,4.7137,4.7855,4.8293,4.8377,4.8938,4.9247,4.9891,5.0687,5.1266,5.1704,3.6184,3.6697,3.6657,3.68,3.7174,3.6845,3.6581,3.643,3.6417,3.6417,3.6417,3.6417,3.6417,3.6417,3.6417,3.6417,3.6367,3.5994,3.5843,3.5667,3.4788,3.465,3.4868,3.4881,3.5366,3.5943,3.6056,3.5994,3.5855,3.5818,3.5567,3.4994,3.463,3.4399,3.4186,3.3715,3.3947,3.48,3.4782,3.5373,3.6501,3.6813,3.7291,3.8219,3.8397,3.8745,3.9352,3.9388,3.9388,3.9388,3.9388,3.9388,3.9388,3.9388,3.9388,3.9388,3.9388,3.9388,3.9388,3.9388,3.9388,3.9388,3.9388,3.9523,3.9694,3.9747,4.0083,4.0621,4.1025,4.1332,4.1782,4.2327,4.2725,4.2701,4.2716,4.291,4.323,4.3305,4.329,4.3305,4.3305,4.3305,4.3305,4.3305,4.3305,4.3305,4.3305,4.3469,4.3618,4.4007,4.4407,4.4885,4.5618,4.6202,4.6636,4.695,4.7219,4.7174,4.71,4.701,4.6995,4.698,4.71,4.707,4.7145,4.7173,4.7722,4.8403,4.8743,4.9615,5.0451,5.0741,5.1117,5.1541,5.201,3.6908,3.698,3.7704,3.7765,3.7374,3.7211,3.6933,3.6518,3.6417,3.6417,3.6417,3.6417,3.6417,3.6417,3.6417,3.6417,3.6405,3.638,3.6317,3.5952,3.4951,3.4261,3.4236,3.4336,3.4876,3.5458,3.5621,3.5906,3.6304,3.627,3.6094,3.5571,3.5395,3.5219,3.4705,3.4211,3.4566,3.5592,3.5294,3.61,3.7897,3.8005,3.8352,3.928,3.9301,3.9301,3.9388,3.9388,3.9388,3.9388,3.9388,3.9388,3.9388,3.9388,3.9388,3.9388,3.9388,3.9388,3.9388,3.9388,3.9448,3.9574,3.9568,3.9738,4.0322,4.0472,4.0726,4.1407,4.1916,4.2321,4.25,4.2895,4.3185,4.3275,4.3185,4.323,4.329,4.3305,4.3305,4.3305,4.3305,4.3305,4.3305,4.3305,4.3305,4.3319,4.3364,4.3708,4.4107,4.4526,4.5053,4.5622,4.6247,4.6621,4.6995,4.707,4.7309,4.7309,4.7309,4.7309,4.7309,4.7309,4.7309,4.7309,4.7495,4.7495,4.8003,4.8948,4.9679,5.0458,5.093,5.108,5.1541,5.2098,5.24,3.8918,3.8908,3.8704,3.8555,3.8304,3.7563,3.7123,3.6958,3.6581,3.6443,3.6417,3.6417,3.6417,3.6417,3.6417,3.6417,3.6417,3.6417,3.6417,3.6279,3.5567,3.4831,3.4688,3.4868,3.5169,3.5483,3.5855,3.6254,3.6405,3.6417,3.6317,3.6132,3.5696,3.5458,3.5207,3.4788,3.5556,3.7064,3.7248,3.7936,3.9346,3.9654,3.9565,3.9331,3.9433,3.9433,3.9403,3.9388,3.9388,3.9388,3.9388,3.9388,3.9388,3.9388,3.9403,3.9448,3.9418,3.9418,3.9433,3.9448,3.9664,4.0083,4.0142,4.0427,4.1055,4.1153,4.1482,4.2006,4.2351,4.262,4.297,4.3185,4.329,4.3305,4.3305,4.3305,4.3305,4.3305,4.3305,4.3305,4.3305,4.3305,4.3305,4.3305,4.3319,4.3394,4.3678,4.4152,4.4571,4.52,4.5801,4.6172,4.6636,4.698,4.7234,4.7264,4.7309,4.7309,4.7309,4.7309,4.7309,4.7309,4.7309,4.7309,4.7988,4.8141,4.9336,5.0534,5.1043,5.1283,5.2026,5.2451,5.2731,5.3161,5.3076,3.9697,3.9659,3.9346,3.9082,3.8856,3.8215,3.7638,3.7186,3.686,3.6606,3.6468,3.6417,3.6417,3.6417,3.6417,3.6417,3.6417,3.6417,3.6417,3.6317,3.5768,3.5044,3.463,3.4893,3.5157,3.5219,3.5768,3.6119,3.6367,3.6417,3.6417,3.6355,3.6044,3.5906,3.5868,3.5399,3.6158,3.7917,3.827,3.8942,4.0643,4.0816,4.0651,4.0307,4.0247,4.0232,4.0247,4.0247,4.0038,3.9589,3.9388,3.9388,3.9388,3.9388,3.9508,3.9768,3.9828,3.9948,4.0202,4.0247,4.0412,4.0711,4.0801,4.1183,4.1662,4.1841,4.2111,4.2671,4.2746,4.2955,4.3185,4.3305,4.3305,4.3305,4.3305,4.3305,4.3305,4.3305,4.3305,4.3305,4.3305,4.3305,4.3305,4.3305,4.3454,4.3678,4.4032,4.4586,4.5185,4.5903,4.6471,4.6726,4.689,4.7145,4.7279,4.7294,4.7309,4.7309,4.7309,4.7309,4.7309,4.7309,4.7309,4.7495,4.8293,4.9013,4.9876,5.0801,5.1578,5.2082,5.3025,5.3416,5.3399,5.3518,5.3518,3.9697,3.9697,3.9697,3.9408,3.9057,3.8919,3.8216,3.74,3.7174,3.6883,3.6493,3.6417,3.6417,3.6417,3.6417,3.6417,3.6417,3.6417,3.6417,3.6279,3.5855,3.5169,3.45,3.4756,3.4944,3.5019,3.5357,3.5906,3.6317,3.6417,3.6417,3.6405,3.638,3.6392,3.6335,3.6016,3.7024,3.8589,3.895,3.9736,4.1198,4.1474,4.1392,4.1175,4.1145,4.116,4.1242,4.122,4.0816,3.9694,3.9597,3.9717,3.9687,3.9642,3.9918,4.0367,4.0516,4.0726,4.119,4.119,4.1354,4.1467,4.1512,4.1811,4.2321,4.2515,4.2671,4.3125,4.329,4.3245,4.3275,4.3305,4.3305,4.3305,4.3305,4.3305,4.3305,4.3305,4.3305,4.3305,4.3305,4.3305,4.3305,4.3394,4.3618,4.4022,4.4496,4.5229,4.5768,4.6322,4.68,4.7115,4.7204,4.7264,4.7309,4.7309,4.7309,4.7309,4.7309,4.7309,4.7309,4.7309,4.7309,4.7609,4.8252,4.8677,4.9054,5.011,5.134,5.1957,5.2312,5.2835,5.3264,5.3433,5.3518,3.9697,3.9697,3.9697,3.9622,3.9446,3.9108,3.8479,3.7789,3.7362,3.691,3.6505,3.6417,3.6417,3.6417,3.6417,3.6417,3.6417,3.6417,3.6417,3.6392,3.6317,3.583,3.529,3.5282,3.5295,3.542,3.5918,3.6279,3.6405,3.6417,3.6417,3.6417,3.6417,3.6417,3.6461,3.7021,3.8206,3.9578,4.0294,4.1071,4.1867,4.2186,4.1976,4.1579,4.1489,4.1467,4.1437,4.1422,4.1272,4.1025,4.0965,4.095,4.0831,4.0846,4.095,4.11,4.1175,4.125,4.1384,4.1572,4.1624,4.2126,4.2216,4.2447,4.3045,4.309,4.3125,4.3305,4.3305,4.3305,4.3305,4.3305,4.3305,4.3305,4.3305,4.3305,4.3305,4.3305,4.3305,4.3305,4.3334,4.3305,4.3364,4.3858,4.4127,4.4411,4.5039,4.5846,4.6381,4.677,4.7025,4.7309,4.7309,4.7309,4.7309,4.7309,4.7309,4.7309,4.7309,4.7309,4.7309,4.7309,4.7309,4.7651,4.8183,4.8527,4.8825,4.9639,5.0968,5.1229,5.1651,5.2277,5.287,5.3161,5.3518,3.9697,3.9697,3.9697,3.9697,3.9647,3.9383,3.8781,3.8065,3.7713,3.7111,3.6531,3.6417,3.6417,3.6417,3.6417,3.6417,3.6417,3.6417,3.6417,3.6417,3.6392,3.6194,3.6006,3.5893,3.5843,3.5658,3.6094,3.6392,3.6417,3.6417,3.6417,3.6417,3.6417,3.6417,3.6405,3.7116,3.8153,3.961,4.0476,4.1373,4.2575,4.2806,4.2731,4.2372,4.2297,4.2297,4.2327,4.2327,4.2312,4.2297,4.2282,4.1968,4.1474,4.1437,4.1519,4.1841,4.1886,4.2028,4.2192,4.2312,4.2462,4.2761,4.2821,4.3,4.3215,4.3305,4.3305,4.3305,4.3305,4.3305,4.3305,4.3305,4.3305,4.3305,4.3305,4.3305,4.3305,4.3305,4.3305,4.3379,4.3589,4.3738,4.3962,4.4421,4.496,4.5334,4.5502,4.6249,4.6756,4.71,4.7145,4.7309,4.7309,4.7309,4.7309,4.7309,4.7309,4.7309,4.7309,4.7309,4.7309,4.7309,4.7309,4.7694,4.803,4.8569,4.8948,4.9797,5.0458,5.1266,5.176,5.2117,5.2557,5.3161,5.3433,3.9697,3.9697,3.9697,3.9697,3.9697,3.9672,3.9107,3.8228,3.804,3.7412,3.6656,3.6468,3.6417,3.6417,3.6417,3.6417,3.6417,3.6417,3.6417,3.6417,3.6417,3.638,3.6329,3.6279,3.6107,3.5755,3.6144,3.6405,3.6417,3.6417,3.6417,3.6417,3.6417,3.6581,3.6662,3.7023,3.8302,4.0145,4.0788,4.1545,4.2921,4.3215,4.317,4.3125,4.3095,4.3095,4.308,4.3125,4.3215,4.3305,4.3305,4.2731,4.2028,4.1713,4.1863,4.2515,4.2506,4.2701,4.2961,4.3155,4.3185,4.3305,4.3275,4.3275,4.329,4.3305,4.3305,4.3305,4.3305,4.3305,4.3305,4.3305,4.3305,4.3305,4.3305,4.3334,4.3424,4.3439,4.3514,4.3574,4.3873,4.4137,4.4571,4.505,4.5663,4.6172,4.6324,4.6563,4.7055,4.7309,4.7309,4.7309,4.7309,4.7309,4.7309,4.7309,4.7309,4.7309,4.7309,4.7309,4.7309,4.7309,4.7352,4.7452,4.7834,4.8252,4.8527,4.8841,4.9734,5.1026,5.1561,5.1504,5.2222,5.3161,5.3433,3.9697,3.9697,3.9697,3.9697,3.9697,3.9697,3.9308,3.8705,3.8178,3.7651,3.701,3.6619,3.6417,3.6417,3.6417,3.6417,3.6417,3.6417,3.6417,3.6417,3.6417,3.6417,3.6417,3.6405,3.6317,3.6317,3.6392,3.6405,3.6417,3.6417,3.6499,3.6452,3.6499,3.6837,3.7893,3.8738,3.9623,4.0958,4.1782,4.2603,4.313,4.3305,4.3305,4.3305,4.3305,4.3305,4.3305,4.3305,4.3305,4.3305,4.3305,4.3155,4.2901,4.2826,4.2955,4.303,4.309,4.3125,4.3275,4.3305,4.3305,4.3305,4.3305,4.3305,4.3305,4.3305,4.3305,4.3305,4.3305,4.3305,4.3305,4.3305,4.3305,4.3305,4.3394,4.3584,4.3958,4.4122,4.4197,4.4332,4.4436,4.4616,4.5155,4.5648,4.6172,4.6576,4.6756,4.689,4.716,4.7309,4.7309,4.7309,4.7309,4.7309,4.7309,4.7309,4.7309,4.7309,4.7309,4.7309,4.7309,4.7309,4.7337,4.7452,4.7452,4.7609,4.7849,4.8046,4.8625,4.9694,5.0204,5.0779,5.1918,5.3007,5.3433,3.9697,3.9697,3.9697,3.9697,3.9697,3.9697,3.9207,3.8454,3.8115,3.7525,3.6872,3.6531,3.6417,3.6417,3.6417,3.6417,3.6417,3.6417,3.6417,3.6417,3.6417,3.6417,3.6417,3.6417,3.6417,3.6405,3.6405,3.6417,3.6417,3.6417,3.6709,3.7243,3.7276,3.7861,3.8827,3.9549,4.0575,4.156,4.2208,4.278,4.325,4.3305,4.3305,4.3305,4.3305,4.3305,4.3305,4.3305,4.3305,4.3305,4.3305,4.3305,4.3305,4.3305,4.3305,4.3305,4.3305,4.3305,4.3305,4.3305,4.3305,4.3305,4.3305,4.3305,4.3305,4.3305,4.3305,4.3305,4.3305,4.3305,4.3305,4.3319,4.3305,4.3349,4.3574,4.3973,4.4302,4.4616,4.4915,4.52,4.5439,4.5633,4.5798,4.6277,4.6696,4.6965,4.713,4.7219,4.7309,4.7309,4.7309,4.7309,4.7309,4.7309,4.7309,4.7309,4.7309,4.7309,4.7309,4.7309,4.7309,4.7309,4.7309,4.7352,4.7309,4.7309,4.7381,4.7651,4.8003,4.8501,4.9671,5.0817,5.1902,5.2765,5.3246,3.9697,3.9697,3.9697,3.9697,3.9697,3.9697,3.9145,3.8291,3.8065,3.7475,3.6644,3.6468,3.6417,3.6417,3.6417,3.6417,3.6417,3.6417,3.6417,3.6417,3.6417,3.6417,3.6417,3.6417,3.6417,3.6417,3.6417,3.6417,3.6499,3.6769,3.7322,3.7848,3.8198,3.9036,4.0059,4.0361,4.0958,4.1601,4.1974,4.2467,4.3076,4.3305,4.3305,4.3305,4.3305,4.3305,4.3305,4.3305,4.3305,4.3305,4.3305,4.3305,4.3305,4.3305,4.3305,4.3305,4.3305,4.3305,4.3305,4.3305,4.3305,4.3305,4.3305,4.3305,4.3305,4.3305,4.3305,4.3305,4.3305,4.3305,4.3319,4.3439,4.3514,4.3678,4.4137,4.4601,4.4915,4.5289,4.5798,4.6112,4.6369,4.6516,4.6561,4.6651,4.7025,4.7085,4.7234,4.7249,4.7309,4.7309,4.7309,4.7309,4.7309,4.7309,4.7309,4.7309,4.7309,4.7309,4.7309,4.7309,4.7309,4.7309,4.7309,4.7309,4.7309,4.7309,4.7309,4.7424,4.7919,4.8666,4.9773,5.0855,5.1865,5.2731,5.3348,3.9697,3.9697,3.9697,3.9697,3.9697,3.9697,3.9346,3.8693,3.8191,3.7676,3.6958,3.6631,3.6417,3.6417,3.6417,3.6417,3.6417,3.6417,3.6417,3.6417,3.6417,3.6417,3.6417,3.6417,3.6417,3.6417,3.6417,3.6417,3.6581,3.7322,3.7939,3.8334,3.9302,4.0275,4.1295,4.1393,4.1988,4.2845,4.3036,4.3115,4.325,4.3305,4.3305,4.3305,4.3305,4.3305,4.3305,4.3305,4.3305,4.3305,4.3305,4.3305,4.3305,4.3305,4.3305,4.3305,4.3305,4.3305,4.3305,4.3305,4.3305,4.3305,4.3305,4.3305,4.3305,4.3305,4.3305,4.3305,4.3334,4.3394,4.3529,4.3858,4.4067,4.4421,4.4796,4.5409,4.5813,4.5933,4.6456,4.6696,4.689,4.7025,4.71,4.7189,4.7294,4.7309,4.7309,4.7309,4.7309,4.7309,4.7309,4.7309,4.7309,4.7309,4.7309,4.7309,4.7309,4.7309,4.7309,4.7309,4.7309,4.7309,4.7309,4.7309,4.7352,4.7495,4.7609,4.7849,4.8072,4.8922,5.0149,5.1005,5.174,5.2557,5.3467,3.9697,3.9697,3.9697,3.9697,3.9697,3.9697,3.9182,3.8442,3.8115,3.7513,3.6845,3.6543,3.6417,3.6417,3.6417,3.6417,3.6417,3.6417,3.6417,3.6417,3.6417,3.6417,3.6417,3.6417,3.6417,3.6417,3.6417,3.6417,3.6756,3.7494,3.8334,3.9214,4.0261,4.1435,4.2345,4.2548,4.282,4.317,4.3305,4.3305,4.3305,4.3305,4.3305,4.3305,4.3305,4.3305,4.3305,4.3305,4.3305,4.3305,4.3305,4.3305,4.3305,4.3305,4.3305,4.3305,4.3305,4.3305,4.3305,4.3305,4.3305,4.3305,4.3305,4.3305,4.3305,4.3305,4.3305,4.3305,4.3648,4.3813,4.3947,4.4496,4.4751,4.5065,4.5484,4.5843,4.6324,4.6741,4.6995,4.7189,4.7309,4.7309,4.7309,4.7309,4.7309,4.7309,4.7309,4.7309,4.7309,4.7309,4.7309,4.7309,4.7309,4.7309,4.7309,4.7309,4.7309,4.7309,4.7309,4.7309,4.7309,4.7309,4.7309,4.7566,4.7876,4.7988,4.8015,4.8377,4.8718,4.9615,5.0534,5.1431,5.2293,5.28,5.3518,3.9697,3.9672,3.9546,3.9484,3.9471,3.9346,3.8705,3.7864,3.7789,3.7249,3.6619,3.6417,3.6417,3.6417,3.6417,3.6417,3.6417,3.6417,3.6417,3.6417,3.6417,3.6417,3.6417,3.6417,3.6417,3.6417,3.6417,3.6417,3.6756,3.754,3.8693,3.9885,4.0859,4.207,4.2955,4.321,4.325,4.3265,4.3305,4.3305,4.3305,4.3305,4.3305,4.3305,4.3305,4.3305,4.3305,4.3305,4.3305,4.3305,4.3305,4.3305,4.3305,4.3305,4.3305,4.3305,4.3305,4.3305,4.3305,4.3305,4.3305,4.3305,4.3305,4.3305,4.3305,4.3305,4.3454,4.3589,4.3917,4.4302,4.4646,4.5155,4.5469,4.5783,4.6157,4.6381,4.6606,4.6935,4.716,4.7234,4.7309,4.7309,4.7309,4.7309,4.7309,4.7309,4.7309,4.7309,4.7309,4.7309,4.7309,4.7309,4.7309,4.7309,4.7309,4.7309,4.7309,4.7309,4.7309,4.7309,4.7309,4.7309,4.7309,4.7722,4.8293,4.8444,4.8444,4.8948,4.9536,5.0458,5.1377,5.217,5.2921,5.3314,5.3518,3.9697,3.9647,3.9132,3.8982,3.8919,3.8354,3.7814,3.7324,3.7287,3.6948,3.6455,3.6417,3.6417,3.6417,3.6417,3.6417,3.6417,3.6417,3.6417,3.6417,3.6417,3.6417,3.6417,3.6417,3.6417,3.6417,3.6417,3.6417,3.6675,3.754,3.8738,3.9885,4.1028,4.2167,4.2955,4.3305,4.3305,4.3305,4.3305,4.3305,4.3305,4.3305,4.3305,4.3305,4.3305,4.3305,4.3305,4.3305,4.3305,4.3305,4.3305,4.3305,4.3305,4.3305,4.3305,4.3305,4.3305,4.3305,4.3305,4.3305,4.3305,4.3305,4.3305,4.3349,4.3469,4.3364,4.3574,4.4142,4.45,4.4796,4.5259,4.5768,4.6187,4.6381,4.6666,4.686,4.6995,4.7085,4.7264,4.7294,4.7309,4.7309,4.7309,4.7309,4.7309,4.7309,4.7309,4.7309,4.7309,4.7309,4.7309,4.7309,4.7309,4.7309,4.7309,4.7309,4.7309,4.7309,4.7309,4.7309,4.7309,4.7309,4.7651,4.803,4.8636,4.8759,4.9135,5.011,5.093,5.1451,5.2153,5.2749,5.3127,5.3399,5.3518,3.9697,3.9609,3.8718,3.8542,3.8869,3.8253,3.7688,3.7249,3.7186,3.6872,3.6417,3.6417,3.6417,3.6417,3.6417,3.6417,3.6417,3.6417,3.6417,3.6417,3.6417,3.6417,3.6417,3.6417,3.6417,3.6417,3.6417,3.6417,3.6546,3.7586,3.8738,3.9885,4.107,4.2167,4.2955,4.3305,4.3305,4.3305,4.3305,4.3305,4.3305,4.3305,4.3305,4.3305,4.3305,4.3305,4.3305,4.3305,4.3305,4.3305,4.3305,4.3305,4.3305,4.3305,4.3305,4.3305,4.3305,4.3305,4.3305,4.3305,4.3305,4.3305,4.3319,4.3454,4.3808,4.3888,4.4231,4.4766,4.5218,4.5574,4.5903,4.6501,4.6935,4.6995,4.71,4.7249,4.7309,4.7309,4.7309,4.7309,4.7309,4.7309,4.7309,4.7309,4.7309,4.7309,4.7309,4.7309,4.7309,4.7309,4.7309,4.7309,4.7309,4.7309,4.7309,4.7309,4.7309,4.7309,4.7309,4.7309,4.7381,4.8099,4.8444,4.8743,4.9336,5.0071,5.0855,5.1667,5.2134,5.2205,5.2557,5.311,5.3348,5.3467,5.3518,3.9697,3.9584,3.8655,3.8391,3.8517,3.7839,3.7299,3.6985,3.6923,3.6795,3.6417,3.6417,3.6417,3.6417,3.6417,3.6417,3.6417,3.6417,3.6417,3.6417,3.6417,3.6417,3.6417,3.6417,3.6417,3.6417,3.6452,3.6452,3.707,3.7756,3.9036,4.0304,4.1211,4.2208,4.3036,4.3305,4.3305,4.3305,4.3305,4.3305,4.3305,4.3305,4.3305,4.3305,4.3305,4.3305,4.3305,4.3305,4.3305,4.3305,4.3305,4.3305,4.3305,4.3305,4.3305,4.3305,4.3305,4.3305,4.3305,4.3305,4.3305,4.3305,4.3589,4.3883,4.4197,4.4496,4.4915,4.5514,4.6037,4.6396,4.6516,4.701,4.7189,4.7189,4.7189,4.7309,4.7309,4.7309,4.7309,4.7309,4.7309,4.7309,4.7309,4.7309,4.7309,4.7309,4.7309,4.7309,4.7309,4.7309,4.7309,4.7309,4.7309,4.7309,4.7309,4.7309,4.7309,4.7309,4.7309,4.7309,4.7581,4.8418,4.8907,4.8907,4.9797,5.1394,5.2098,5.2364,5.2487,5.2557,5.2956,5.3348,5.3382,5.3518,5.3518,3.9685,3.9622,3.9044,3.8504,3.799,3.6945,3.6518,3.6593,3.6518,3.6468,3.6417,3.6417,3.6417,3.6417,3.6417,3.6417,3.6417,3.6417,3.6417,3.6417,3.6417,3.6417,3.6417,3.6417,3.6417,3.6417,3.6452,3.6883,3.7893,3.8289,3.9508,4.0901,4.1711,4.233,4.321,4.3305,4.3305,4.3305,4.3305,4.3305,4.3305,4.3305,4.3305,4.3305,4.3305,4.3305,4.3305,4.3305,4.3305,4.3305,4.3305,4.3305,4.3305,4.3305,4.3305,4.3305,4.3305,4.3305,4.3334,4.3319,4.3394,4.3544,4.3973,4.4421,4.4541,4.493,4.5559,4.6202,4.6441,4.6711,4.701,4.7279,4.7294,4.7309,4.7309,4.7309,4.7309,4.7309,4.7309,4.7309,4.7309,4.7309,4.7309,4.7309,4.7309,4.7309,4.7309,4.7309,4.7309,4.7309,4.7309,4.7309,4.7309,4.7309,4.7309,4.7309,4.7309,4.7309,4.7467,4.7651,4.8072,4.8907,4.9175,4.9135,5.0458,5.2241,5.2592,5.2765,5.2886,5.299,5.3195,5.3467,5.3518,5.3518,5.3518,3.9484,3.9145,3.853,3.8191,3.7914,3.7236,3.6958,3.6883,3.6593,3.6417,3.6417,3.6417,3.6417,3.6417,3.6417,3.6417,3.6417,3.6417,3.6417,3.6417,3.6417,3.6417,3.6417,3.6417,3.6417,3.6417,3.6499,3.6977,3.8075,3.8738,3.9988,4.1378,4.233,4.2886,4.321,4.3305,4.3305,4.3305,4.3305,4.3305,4.3305,4.3305,4.3305,4.3305,4.3305,4.3305,4.3305,4.3305,4.3305,4.3305,4.3305,4.3305,4.3305,4.3305,4.3305,4.3305,4.3319,4.3529,4.3768,4.3947,4.3962,4.4212,4.4571,4.514,4.5574,4.5798,4.6337,4.6756,4.6875,4.7085,4.7264,4.7294,4.7309,4.7309,4.7309,4.7309,4.7309,4.7309,4.7309,4.7309,4.7309,4.7309,4.7309,4.7309,4.7309,4.7309,4.7309,4.7309,4.7309,4.7309,4.7309,4.7309,4.7309,4.7309,4.7309,4.7309,4.7309,4.7309,4.7807,4.8418,4.8948,4.9456,5.0227,5.0573,5.1813,5.2973,5.3025,5.3127,5.3314,5.3467,5.3518,5.3518,5.3518,5.3518,5.3518,3.9383,3.8843,3.8479,3.8178,3.7939,3.7425,3.7186,3.7086,3.6656,3.6417,3.6417,3.6417,3.6417,3.6417,3.6417,3.6417,3.6417,3.6417,3.6417,3.6417,3.6417,3.6417,3.6417,3.6417,3.6417,3.6417,3.6593,3.7116,3.8783,3.9536,4.0746,4.207,4.293,4.3349,4.3514,4.3514,4.3305,4.3305,4.3305,4.3305,4.3305,4.3305,4.3305,4.3305,4.3305,4.3305,4.3305,4.3305,4.3305,4.3305,4.3305,4.3305,4.3305,4.3305,4.3305,4.3305,4.3589,4.3973,4.4466,4.5005,4.508,4.5125,4.5454,4.5828,4.6307,4.6429,4.68,4.7145,4.7294,4.7309,4.7309,4.7309,4.7309,4.7309,4.7309,4.7309,4.7309,4.7309,4.7309,4.7309,4.7309,4.7309,4.7309,4.7309,4.7309,4.7309,4.7309,4.7309,4.7309,4.7309,4.7309,4.7309,4.7309,4.7309,4.7309,4.7309,4.7309,4.7309,4.7876,4.8569,4.9175,4.9615,5.0801,5.1974,5.2627,5.3179,5.3348,5.3518,5.3518,5.3518,5.3518,5.3518,5.3518,5.3518,5.3518,3.9358,3.8881,3.8894,3.8467,3.7939,3.7387,3.7174,3.7098,3.6644,3.6417,3.6417,3.6417,3.6417,3.6417,3.6417,3.6468,3.6531,3.6518,3.6606,3.6568,3.6644,3.6568,3.6493,3.6443,3.6417,3.6417,3.6628,3.752,3.9593,4.0715,4.183,4.2961,4.3573,4.3973,4.4092,4.3947,4.3708,4.3753,4.3753,4.3768,4.3798,4.3529,4.3529,4.3484,4.3379,4.3319,4.3305,4.3305,4.3305,4.3305,4.3305,4.3305,4.3305,4.3319,4.3334,4.3559,4.4067,4.4631,4.5259,4.5828,4.6127,4.6112,4.6277,4.6339,4.6488,4.6875,4.713,4.7249,4.7309,4.7309,4.7309,4.7309,4.7309,4.7309,4.7309,4.7309,4.7309,4.7309,4.7309,4.7309,4.7309,4.7309,4.7309,4.7309,4.7309,4.7309,4.7309,4.7309,4.7309,4.7309,4.7309,4.7309,4.7309,4.7309,4.7309,4.7309,4.7309,4.7309,4.7694,4.8335,4.9004,5.0009,5.1245,5.2293,5.2956,5.3348,5.3467,5.3518,5.3518,5.3518,5.3518,5.3518,5.3518,5.3518,5.3518,3.9132,3.8278,3.8253,3.7927,3.7437,3.7249,3.6973,3.6644,3.6455,3.6417,3.6417,3.6417,3.643,3.6417,3.6417,3.6656,3.6822,3.701,3.7262,3.7249,3.7073,3.6985,3.6835,3.6694,3.6505,3.6468,3.6785,3.7722,3.9977,4.1483,4.3186,4.4553,4.4526,4.4781,4.484,4.4811,4.4751,4.4676,4.4646,4.4541,4.4436,4.4212,4.4122,4.3932,4.3633,4.3544,4.3484,4.3454,4.3454,4.3394,4.3349,4.3319,4.3305,4.3723,4.4097,4.4691,4.499,4.5289,4.5861,4.6175,4.6459,4.686,4.6965,4.701,4.7085,4.716,4.7309,4.7309,4.7309,4.7309,4.7309,4.7309,4.7309,4.7309,4.7309,4.7309,4.7309,4.7309,4.7309,4.7309,4.7309,4.7309,4.7309,4.7309,4.7309,4.7309,4.7309,4.7309,4.7309,4.7309,4.7309,4.7309,4.7309,4.7309,4.7309,4.7309,4.7309,4.7337,4.7807,4.8501,4.9655,5.0703,5.1793,5.2609,5.3195,5.3433,5.3467,5.3518,5.3518,5.3518,5.3518,5.3518,5.3518,5.3518,5.3518,3.8831,3.804,3.7764,3.7362,3.6971,3.6908,3.6694,3.6443,3.6417,3.6417,3.6417,3.6417,3.6531,3.6744,3.6795,3.6998,3.7487,3.7525,3.7663,3.7701,3.7676,3.7575,3.7349,3.7186,3.7136,3.6998,3.7273,3.8114,4.0316,4.2467,4.4278,4.5155,4.5289,4.5484,4.5589,4.5693,4.5873,4.5768,4.5633,4.5379,4.5155,4.4945,4.4781,4.4616,4.4227,4.4067,4.4007,4.4007,4.4037,4.4092,4.4107,4.4082,4.4152,4.4556,4.502,4.5499,4.5708,4.6067,4.6561,4.6726,4.698,4.7174,4.7309,4.7279,4.7264,4.7279,4.7309,4.7309,4.7309,4.7309,4.7309,4.7309,4.7309,4.7309,4.7309,4.7309,4.7309,4.7309,4.7309,4.7309,4.7309,4.7309,4.7309,4.7309,4.7309,4.7309,4.7309,4.7309,4.7309,4.7309,4.7309,4.7309,4.7309,4.7309,4.7309,4.7309,4.7309,4.7538,4.8141,4.8963,5.0204,5.1245,5.2134,5.28,5.3399,5.3518,5.3534,5.3518,5.3518,5.3551,5.3602,5.3602,5.3568,5.3518,5.3518,3.8504,3.7877,3.7349,3.6895,3.6455,3.6443,3.643,3.6417,3.6417,3.6417,3.6417,3.6417,3.6646,3.6985,3.7073,3.7475,3.7902,3.809,3.8203,3.8128,3.8128,3.809,3.8065,3.799,3.7701,3.7864,3.8441,3.9207,4.0701,4.2915,4.4849,4.5382,4.5589,4.5903,4.6294,4.6396,4.6561,4.6726,4.6232,4.5783,4.5633,4.5484,4.5379,4.5364,4.5244,4.517,4.5185,4.5229,4.5289,4.5259,4.5229,4.517,4.5319,4.5349,4.5783,4.6157,4.6381,4.6651,4.698,4.713,4.7189,4.7279,4.7309,4.7309,4.7309,4.7309,4.7309,4.7309,4.7309,4.7309,4.7309,4.7309,4.7309,4.7309,4.7309,4.7309,4.7309,4.7309,4.7309,4.7309,4.7309,4.7309,4.7309,4.7309,4.7309,4.7309,4.7309,4.7309,4.7309,4.7309,4.7309,4.7309,4.7309,4.7309,4.7309,4.7309,4.7309,4.7651,4.8225,4.915,5.0165,5.1283,5.24,5.3057,5.3653,5.3585,5.3568,5.367,5.3771,5.3822,5.3839,5.3737,5.3704,5.3788,5.3619,3.8278,3.7349,3.6832,3.6518,3.6417,3.6417,3.6417,3.6417,3.6417,3.6417,3.6417,3.6455,3.6744,3.7199,3.7324,3.7789,3.8504,3.868,3.8931,3.8931,3.8843,3.8655,3.8567,3.8354,3.819,3.8322,3.9113,4.0817,4.2852,4.4632,4.5865,4.6668,4.6696,4.68,4.6935,4.6965,4.71,4.7264,4.6965,4.6591,4.6591,4.6277,4.604,4.5918,4.5768,4.5499,4.5439,4.5394,4.5334,4.5274,4.5274,4.5544,4.598,4.6067,4.6411,4.6905,4.6995,4.713,4.7204,4.7309,4.7309,4.7309,4.7309,4.7309,4.7309,4.7309,4.7309,4.7309,4.7309,4.7309,4.7309,4.7309,4.7309,4.7309,4.7309,4.7309,4.7309,4.7309,4.7309,4.7309,4.7309,4.7309,4.7309,4.7309,4.7309,4.7309,4.7309,4.7309,4.7309,4.7309,4.7309,4.7309,4.7309,4.7309,4.7309,4.7309,4.7309,4.7381,4.7834,4.8882,5.0165,5.1631,5.2972,5.3397,5.3805,5.3687,5.3754,5.4093,5.4177,5.4025,5.4008,5.3907,5.438,5.4566,5.4177,3.7764,3.7136,3.6631,3.6417,3.6417,3.6417,3.6417,3.6455,3.6656,3.6631,3.648,3.6681,3.7023,3.7575,3.7801,3.8278,3.9107,3.9233,3.9358,3.9459,3.9421,3.9295,3.9044,3.8894,3.9459,3.9689,4.0965,4.2791,4.4843,4.5418,4.6153,4.7134,4.7309,4.7309,4.7309,4.7309,4.7309,4.7309,4.7309,4.7309,4.7309,4.695,4.6756,4.6576,4.6426,4.6142,4.6187,4.6187,4.6202,4.6202,4.6277,4.6367,4.6696,4.6741,4.692,4.716,4.7264,4.7309,4.7309,4.7309,4.7309,4.7309,4.7309,4.7309,4.7309,4.7309,4.7309,4.7309,4.7309,4.7309,4.7309,4.7309,4.7309,4.7309,4.7309,4.7309,4.7309,4.7309,4.7309,4.7309,4.7309,4.7309,4.7309,4.7309,4.7309,4.7309,4.7309,4.7309,4.7309,4.7309,4.7309,4.7309,4.7309,4.7309,4.7309,4.7309,4.7309,4.7424,4.7523,4.915,5.0703,5.2293,5.3518,5.3687,5.3737,5.3704,5.3856,5.4126,5.4059,5.3805,5.3907,5.4059,5.4651,5.5056,5.4482,3.7161,3.7059,3.6606,3.6417,3.643,3.6505,3.648,3.6505,3.6971,3.6958,3.6681,3.7073,3.7575,3.8052,3.8605,3.917,3.9509,3.9521,3.9659,3.9685,3.9659,3.9559,3.9572,3.9636,4.0399,4.1612,4.2951,4.4245,4.5752,4.6064,4.6491,4.7149,4.7309,4.7309,4.7309,4.7309,4.7309,4.7309,4.7309,4.7309,4.7309,4.7309,4.7249,4.7264,4.7309,4.7309,4.7294,4.7279,4.7279,4.7219,4.7085,4.71,4.713,4.7145,4.7189,4.7309,4.7309,4.7309,4.7309,4.7309,4.7309,4.7309,4.7309,4.7309,4.7309,4.7309,4.7309,4.7309,4.7309,4.7309,4.7309,4.7309,4.7309,4.7309,4.7309,4.7309,4.7309,4.7309,4.7309,4.7309,4.7309,4.7309,4.7309,4.7309,4.7309,4.7309,4.7309,4.7309,4.7309,4.7309,4.7309,4.7309,4.7309,4.7309,4.7309,4.7309,4.7309,4.7381,4.7764,4.9536,5.108,5.2134,5.3007,5.3551,5.3602,5.3754,5.3754,5.3907,5.3754,5.3737,5.4008,5.4313,5.4651,5.4921,5.4448,3.6971,3.6556,3.6443,3.6417,3.6468,3.6835,3.6832,3.6531,3.6973,3.7111,3.7247,3.7575,3.7952,3.804,3.8605,3.9208,3.9622,3.9697,3.9697,3.9697,3.9697,3.9697,3.989,4.0313,4.1269,4.2738,4.4303,4.5689,4.6403,4.6741,4.6975,4.7309,4.7309,4.7309,4.7309,4.7309,4.7309,4.7309,4.7309,4.7309,4.7309,4.7309,4.7309,4.7309,4.7309,4.7309,4.7309,4.7309,4.7309,4.7309,4.7309,4.7309,4.7309,4.7309,4.7309,4.7309,4.7309,4.7309,4.7309,4.7309,4.7309,4.7309,4.7309,4.7309,4.7309,4.7309,4.7309,4.7309,4.7309,4.7309,4.7309,4.7309,4.7309,4.7309,4.7309,4.7309,4.7309,4.7309,4.7309,4.7309,4.7309,4.7309,4.7309,4.7309,4.7309,4.7309,4.7309,4.7309,4.7309,4.7309,4.7309,4.7309,4.7309,4.7309,4.7309,4.7309,4.7309,4.7381,4.7849,4.9392,5.0627,5.1451,5.2241,5.3246,5.3788,5.4042,5.4008,5.3737,5.3991,5.4076,5.4329,5.46,5.482,5.4769,5.4329]}]]